<?xml version="1.0" encoding="UTF-8" standalone="no" ?>
<gpx xmlns="http://www.topografix.com/GPX/1/1" xmlns:xsi="http://www.w3.org/2001/XMLSchema-instance" xsi:schemaLocation="http://www.topografix.com/GPX/1/1 http://www.topografix.com/GPX/1/1/gpx.xsd" version="1.1" creator="VisuGPX - https://www.visugpx.com">
  <metadata>
    <name>Raid Encantats 2011 - J3</name>
    <desc><![CDATA[[b]J3[/b] : Refuge Colomers - Port de la Ratera - Refuge Saboredo]]></desc>
  </metadata>
  <trk>
    <name><![CDATA[J3-------- 15:59:52]]></name>
    <trkseg>
      <trkpt lat="42.62414" lon="0.92077">
        <ele>2170.31</ele>
        <time>2011-03-12T08:07:23Z</time>
      </trkpt>
      <trkpt lat="42.62414" lon="0.92077">
        <ele>2165.51</ele>
        <time>2011-03-12T08:07:24Z</time>
      </trkpt>
      <trkpt lat="42.62414" lon="0.92076">
        <ele>2162.62</ele>
        <time>2011-03-12T08:07:26Z</time>
      </trkpt>
      <trkpt lat="42.62414" lon="0.92076">
        <ele>2163.1</ele>
        <time>2011-03-12T08:07:27Z</time>
      </trkpt>
      <trkpt lat="42.62417" lon="0.92077">
        <ele>2158.78</ele>
        <time>2011-03-12T08:07:31Z</time>
      </trkpt>
      <trkpt lat="42.62417" lon="0.92077">
        <ele>2159.74</ele>
        <time>2011-03-12T08:07:32Z</time>
      </trkpt>
      <trkpt lat="42.62417" lon="0.92077">
        <ele>2156.37</ele>
        <time>2011-03-12T08:07:34Z</time>
      </trkpt>
      <trkpt lat="42.62419" lon="0.92079">
        <ele>2152.53</ele>
        <time>2011-03-12T08:07:39Z</time>
      </trkpt>
      <trkpt lat="42.6242" lon="0.92078">
        <ele>2150.13</ele>
        <time>2011-03-12T08:07:44Z</time>
      </trkpt>
      <trkpt lat="42.62422" lon="0.92079">
        <ele>2144.84</ele>
        <time>2011-03-12T08:07:49Z</time>
      </trkpt>
      <trkpt lat="42.62422" lon="0.92079">
        <ele>2146.76</ele>
        <time>2011-03-12T08:07:50Z</time>
      </trkpt>
      <trkpt lat="42.62422" lon="0.92079">
        <ele>2144.84</ele>
        <time>2011-03-12T08:07:53Z</time>
      </trkpt>
      <trkpt lat="42.62421" lon="0.9208">
        <ele>2142.92</ele>
        <time>2011-03-12T08:07:58Z</time>
      </trkpt>
      <trkpt lat="42.62422" lon="0.92082">
        <ele>2139.07</ele>
        <time>2011-03-12T08:08:03Z</time>
      </trkpt>
      <trkpt lat="42.62418" lon="0.92085">
        <ele>2139.07</ele>
        <time>2011-03-12T08:08:30Z</time>
      </trkpt>
      <trkpt lat="42.62416" lon="0.92088">
        <ele>2138.59</ele>
        <time>2011-03-12T08:08:32Z</time>
      </trkpt>
      <trkpt lat="42.62415" lon="0.92092">
        <ele>2137.15</ele>
        <time>2011-03-12T08:08:35Z</time>
      </trkpt>
      <trkpt lat="42.62409" lon="0.92096">
        <ele>2133.3</ele>
        <time>2011-03-12T08:08:44Z</time>
      </trkpt>
      <trkpt lat="42.62409" lon="0.92096">
        <ele>2133.3</ele>
        <time>2011-03-12T08:08:45Z</time>
      </trkpt>
      <trkpt lat="42.62405" lon="0.92095">
        <ele>2128.98</ele>
        <time>2011-03-12T08:08:51Z</time>
      </trkpt>
      <trkpt lat="42.62405" lon="0.92094">
        <ele>2129.46</ele>
        <time>2011-03-12T08:08:52Z</time>
      </trkpt>
      <trkpt lat="42.62402" lon="0.92092">
        <ele>2129.46</ele>
        <time>2011-03-12T08:08:59Z</time>
      </trkpt>
      <trkpt lat="42.6239" lon="0.92084">
        <ele>2126.09</ele>
        <time>2011-03-12T08:09:17Z</time>
      </trkpt>
      <trkpt lat="42.62389" lon="0.92084">
        <ele>2126.09</ele>
        <time>2011-03-12T08:09:18Z</time>
      </trkpt>
      <trkpt lat="42.62388" lon="0.92082">
        <ele>2128.02</ele>
        <time>2011-03-12T08:09:21Z</time>
      </trkpt>
      <trkpt lat="42.62384" lon="0.92079">
        <ele>2124.17</ele>
        <time>2011-03-12T08:09:26Z</time>
      </trkpt>
      <trkpt lat="42.62376" lon="0.92067">
        <ele>2122.25</ele>
        <time>2011-03-12T08:09:41Z</time>
      </trkpt>
      <trkpt lat="42.62372" lon="0.92065">
        <ele>2120.81</ele>
        <time>2011-03-12T08:09:44Z</time>
      </trkpt>
      <trkpt lat="42.62367" lon="0.92064">
        <ele>2116.96</ele>
        <time>2011-03-12T08:09:52Z</time>
      </trkpt>
      <trkpt lat="42.62365" lon="0.92063">
        <ele>2117.44</ele>
        <time>2011-03-12T08:09:54Z</time>
      </trkpt>
      <trkpt lat="42.62357" lon="0.92059">
        <ele>2116.96</ele>
        <time>2011-03-12T08:10:18Z</time>
      </trkpt>
      <trkpt lat="42.62357" lon="0.92058">
        <ele>2092.93</ele>
        <time>2011-03-12T08:10:30Z</time>
      </trkpt>
      <trkpt lat="42.62357" lon="0.92058">
        <ele>2121.77</ele>
        <time>2011-03-12T08:10:31Z</time>
      </trkpt>
      <trkpt lat="42.62357" lon="0.92058">
        <ele>2117.92</ele>
        <time>2011-03-12T08:10:32Z</time>
      </trkpt>
      <trkpt lat="42.62358" lon="0.92059">
        <ele>2114.56</ele>
        <time>2011-03-12T08:10:34Z</time>
      </trkpt>
      <trkpt lat="42.62358" lon="0.92059">
        <ele>2090.52</ele>
        <time>2011-03-12T08:10:35Z</time>
      </trkpt>
      <trkpt lat="42.62358" lon="0.92059">
        <ele>2109.27</ele>
        <time>2011-03-12T08:10:36Z</time>
      </trkpt>
      <trkpt lat="42.62358" lon="0.92059">
        <ele>2136.67</ele>
        <time>2011-03-12T08:10:37Z</time>
      </trkpt>
      <trkpt lat="42.62358" lon="0.92059">
        <ele>2110.23</ele>
        <time>2011-03-12T08:10:38Z</time>
      </trkpt>
      <trkpt lat="42.62358" lon="0.92059">
        <ele>2116</ele>
        <time>2011-03-12T08:10:39Z</time>
      </trkpt>
      <trkpt lat="42.62358" lon="0.92059">
        <ele>2152.05</ele>
        <time>2011-03-12T08:10:40Z</time>
      </trkpt>
      <trkpt lat="42.62358" lon="0.92059">
        <ele>2134.26</ele>
        <time>2011-03-12T08:10:41Z</time>
      </trkpt>
      <trkpt lat="42.62358" lon="0.92059">
        <ele>2119.36</ele>
        <time>2011-03-12T08:10:42Z</time>
      </trkpt>
      <trkpt lat="42.62358" lon="0.92059">
        <ele>2116</ele>
        <time>2011-03-12T08:10:47Z</time>
      </trkpt>
      <trkpt lat="42.62357" lon="0.92059">
        <ele>2120.32</ele>
        <time>2011-03-12T08:10:59Z</time>
      </trkpt>
      <trkpt lat="42.62357" lon="0.92059">
        <ele>2117.92</ele>
        <time>2011-03-12T08:11:00Z</time>
      </trkpt>
      <trkpt lat="42.62357" lon="0.92059">
        <ele>2116.96</ele>
        <time>2011-03-12T08:11:02Z</time>
      </trkpt>
      <trkpt lat="42.62357" lon="0.9206">
        <ele>2111.19</ele>
        <time>2011-03-12T08:11:40Z</time>
      </trkpt>
      <trkpt lat="42.62357" lon="0.92059">
        <ele>2117.92</ele>
        <time>2011-03-12T08:11:41Z</time>
      </trkpt>
      <trkpt lat="42.62357" lon="0.92059">
        <ele>2116</ele>
        <time>2011-03-12T08:11:44Z</time>
      </trkpt>
      <trkpt lat="42.62357" lon="0.92059">
        <ele>2115.52</ele>
        <time>2011-03-12T08:12:37Z</time>
      </trkpt>
      <trkpt lat="42.62348" lon="0.92049">
        <ele>2115.52</ele>
        <time>2011-03-12T08:13:12Z</time>
      </trkpt>
      <trkpt lat="42.62338" lon="0.92039">
        <ele>2114.56</ele>
        <time>2011-03-12T08:13:25Z</time>
      </trkpt>
      <trkpt lat="42.62329" lon="0.92035">
        <ele>2114.56</ele>
        <time>2011-03-12T08:13:36Z</time>
      </trkpt>
      <trkpt lat="42.62319" lon="0.92028">
        <ele>2114.08</ele>
        <time>2011-03-12T08:13:49Z</time>
      </trkpt>
      <trkpt lat="42.62309" lon="0.92022">
        <ele>2115.52</ele>
        <time>2011-03-12T08:14:00Z</time>
      </trkpt>
      <trkpt lat="42.62303" lon="0.92022">
        <ele>2114.56</ele>
        <time>2011-03-12T08:14:07Z</time>
      </trkpt>
      <trkpt lat="42.6229" lon="0.92026">
        <ele>2115.52</ele>
        <time>2011-03-12T08:14:19Z</time>
      </trkpt>
      <trkpt lat="42.6228" lon="0.92029">
        <ele>2116.48</ele>
        <time>2011-03-12T08:14:29Z</time>
      </trkpt>
      <trkpt lat="42.6227" lon="0.92033">
        <ele>2116</ele>
        <time>2011-03-12T08:14:39Z</time>
      </trkpt>
      <trkpt lat="42.6226" lon="0.92038">
        <ele>2116.96</ele>
        <time>2011-03-12T08:14:50Z</time>
      </trkpt>
      <trkpt lat="42.62249" lon="0.92041">
        <ele>2118.4</ele>
        <time>2011-03-12T08:15:02Z</time>
      </trkpt>
      <trkpt lat="42.6224" lon="0.92041">
        <ele>2120.32</ele>
        <time>2011-03-12T08:15:14Z</time>
      </trkpt>
      <trkpt lat="42.62235" lon="0.92041">
        <ele>2120.32</ele>
        <time>2011-03-12T08:15:19Z</time>
      </trkpt>
      <trkpt lat="42.62229" lon="0.9205">
        <ele>2119.84</ele>
        <time>2011-03-12T08:15:30Z</time>
      </trkpt>
      <trkpt lat="42.62225" lon="0.92058">
        <ele>2119.84</ele>
        <time>2011-03-12T08:15:39Z</time>
      </trkpt>
      <trkpt lat="42.62216" lon="0.92068">
        <ele>2119.36</ele>
        <time>2011-03-12T08:16:04Z</time>
      </trkpt>
      <trkpt lat="42.62213" lon="0.92079">
        <ele>2116</ele>
        <time>2011-03-12T08:16:12Z</time>
      </trkpt>
      <trkpt lat="42.62207" lon="0.92097">
        <ele>2117.44</ele>
        <time>2011-03-12T08:16:22Z</time>
      </trkpt>
      <trkpt lat="42.622" lon="0.92112">
        <ele>2116</ele>
        <time>2011-03-12T08:16:35Z</time>
      </trkpt>
      <trkpt lat="42.62195" lon="0.92123">
        <ele>2115.04</ele>
        <time>2011-03-12T08:16:44Z</time>
      </trkpt>
      <trkpt lat="42.62188" lon="0.92136">
        <ele>2116</ele>
        <time>2011-03-12T08:16:55Z</time>
      </trkpt>
      <trkpt lat="42.62186" lon="0.92147">
        <ele>2115.52</ele>
        <time>2011-03-12T08:17:04Z</time>
      </trkpt>
      <trkpt lat="42.62184" lon="0.92161">
        <ele>2115.04</ele>
        <time>2011-03-12T08:17:15Z</time>
      </trkpt>
      <trkpt lat="42.62184" lon="0.92175">
        <ele>2115.04</ele>
        <time>2011-03-12T08:17:26Z</time>
      </trkpt>
      <trkpt lat="42.62184" lon="0.92203">
        <ele>2116.96</ele>
        <time>2011-03-12T08:17:44Z</time>
      </trkpt>
      <trkpt lat="42.62183" lon="0.92208">
        <ele>2116.96</ele>
        <time>2011-03-12T08:17:47Z</time>
      </trkpt>
      <trkpt lat="42.62177" lon="0.92221">
        <ele>2116.96</ele>
        <time>2011-03-12T08:17:59Z</time>
      </trkpt>
      <trkpt lat="42.62173" lon="0.92237">
        <ele>2116.48</ele>
        <time>2011-03-12T08:18:11Z</time>
      </trkpt>
      <trkpt lat="42.62172" lon="0.92242">
        <ele>2111.67</ele>
        <time>2011-03-12T08:18:20Z</time>
      </trkpt>
      <trkpt lat="42.62171" lon="0.92245">
        <ele>2114.08</ele>
        <time>2011-03-12T08:18:27Z</time>
      </trkpt>
      <trkpt lat="42.62169" lon="0.92251">
        <ele>2110.71</ele>
        <time>2011-03-12T08:18:34Z</time>
      </trkpt>
      <trkpt lat="42.62166" lon="0.92269">
        <ele>2111.67</ele>
        <time>2011-03-12T08:18:46Z</time>
      </trkpt>
      <trkpt lat="42.62167" lon="0.92275">
        <ele>2110.71</ele>
        <time>2011-03-12T08:18:51Z</time>
      </trkpt>
      <trkpt lat="42.62167" lon="0.92277">
        <ele>2112.15</ele>
        <time>2011-03-12T08:18:53Z</time>
      </trkpt>
      <trkpt lat="42.62167" lon="0.92287">
        <ele>2108.79</ele>
        <time>2011-03-12T08:19:03Z</time>
      </trkpt>
      <trkpt lat="42.62167" lon="0.92287">
        <ele>2108.79</ele>
        <time>2011-03-12T08:19:04Z</time>
      </trkpt>
      <trkpt lat="42.62164" lon="0.92292">
        <ele>2109.75</ele>
        <time>2011-03-12T08:19:15Z</time>
      </trkpt>
      <trkpt lat="42.62164" lon="0.92302">
        <ele>2110.71</ele>
        <time>2011-03-12T08:19:23Z</time>
      </trkpt>
      <trkpt lat="42.62161" lon="0.92317">
        <ele>2109.75</ele>
        <time>2011-03-12T08:19:36Z</time>
      </trkpt>
      <trkpt lat="42.62163" lon="0.92331">
        <ele>2109.75</ele>
        <time>2011-03-12T08:19:47Z</time>
      </trkpt>
      <trkpt lat="42.62166" lon="0.92342">
        <ele>2108.79</ele>
        <time>2011-03-12T08:19:53Z</time>
      </trkpt>
      <trkpt lat="42.6217" lon="0.92359">
        <ele>2108.31</ele>
        <time>2011-03-12T08:20:06Z</time>
      </trkpt>
      <trkpt lat="42.62174" lon="0.92373">
        <ele>2106.87</ele>
        <time>2011-03-12T08:20:18Z</time>
      </trkpt>
      <trkpt lat="42.62179" lon="0.92388">
        <ele>2107.83</ele>
        <time>2011-03-12T08:20:31Z</time>
      </trkpt>
      <trkpt lat="42.62183" lon="0.92405">
        <ele>2108.79</ele>
        <time>2011-03-12T08:20:43Z</time>
      </trkpt>
      <trkpt lat="42.6219" lon="0.92423">
        <ele>2109.27</ele>
        <time>2011-03-12T08:20:57Z</time>
      </trkpt>
      <trkpt lat="42.62198" lon="0.92432">
        <ele>2110.23</ele>
        <time>2011-03-12T08:21:09Z</time>
      </trkpt>
      <trkpt lat="42.62195" lon="0.92452">
        <ele>2108.79</ele>
        <time>2011-03-12T08:21:25Z</time>
      </trkpt>
      <trkpt lat="42.62197" lon="0.92472">
        <ele>2110.71</ele>
        <time>2011-03-12T08:21:38Z</time>
      </trkpt>
      <trkpt lat="42.62198" lon="0.92473">
        <ele>2111.19</ele>
        <time>2011-03-12T08:21:39Z</time>
      </trkpt>
      <trkpt lat="42.62199" lon="0.92483">
        <ele>2112.15</ele>
        <time>2011-03-12T08:21:46Z</time>
      </trkpt>
      <trkpt lat="42.62199" lon="0.92493">
        <ele>2114.08</ele>
        <time>2011-03-12T08:21:56Z</time>
      </trkpt>
      <trkpt lat="42.62202" lon="0.92499">
        <ele>2115.52</ele>
        <time>2011-03-12T08:22:15Z</time>
      </trkpt>
      <trkpt lat="42.62202" lon="0.92499">
        <ele>2116</ele>
        <time>2011-03-12T08:22:24Z</time>
      </trkpt>
      <trkpt lat="42.62201" lon="0.92499">
        <ele>2109.75</ele>
        <time>2011-03-12T08:22:30Z</time>
      </trkpt>
      <trkpt lat="42.62201" lon="0.92499">
        <ele>2113.6</ele>
        <time>2011-03-12T08:22:31Z</time>
      </trkpt>
      <trkpt lat="42.62202" lon="0.92499">
        <ele>2115.52</ele>
        <time>2011-03-12T08:22:33Z</time>
      </trkpt>
      <trkpt lat="42.62202" lon="0.92495">
        <ele>2115.52</ele>
        <time>2011-03-12T08:22:55Z</time>
      </trkpt>
      <trkpt lat="42.62201" lon="0.92494">
        <ele>2115.52</ele>
        <time>2011-03-12T08:22:59Z</time>
      </trkpt>
      <trkpt lat="42.62198" lon="0.92495">
        <ele>2115.52</ele>
        <time>2011-03-12T08:23:10Z</time>
      </trkpt>
      <trkpt lat="42.62198" lon="0.92495">
        <ele>2115.04</ele>
        <time>2011-03-12T08:23:22Z</time>
      </trkpt>
      <trkpt lat="42.62199" lon="0.92495">
        <ele>2115.52</ele>
        <time>2011-03-12T08:24:35Z</time>
      </trkpt>
      <trkpt lat="42.62199" lon="0.92495">
        <ele>2116</ele>
        <time>2011-03-12T08:24:52Z</time>
      </trkpt>
      <trkpt lat="42.622" lon="0.92496">
        <ele>2114.56</ele>
        <time>2011-03-12T08:25:36Z</time>
      </trkpt>
      <trkpt lat="42.62209" lon="0.92504">
        <ele>2116.48</ele>
        <time>2011-03-12T08:25:46Z</time>
      </trkpt>
      <trkpt lat="42.62218" lon="0.92519">
        <ele>2118.4</ele>
        <time>2011-03-12T08:26:04Z</time>
      </trkpt>
      <trkpt lat="42.62224" lon="0.92528">
        <ele>2119.84</ele>
        <time>2011-03-12T08:26:15Z</time>
      </trkpt>
      <trkpt lat="42.62232" lon="0.92545">
        <ele>2122.73</ele>
        <time>2011-03-12T08:26:38Z</time>
      </trkpt>
      <trkpt lat="42.62237" lon="0.92565">
        <ele>2123.69</ele>
        <time>2011-03-12T08:26:53Z</time>
      </trkpt>
      <trkpt lat="42.62238" lon="0.92579">
        <ele>2126.09</ele>
        <time>2011-03-12T08:27:06Z</time>
      </trkpt>
      <trkpt lat="42.62233" lon="0.9259">
        <ele>2128.98</ele>
        <time>2011-03-12T08:27:33Z</time>
      </trkpt>
      <trkpt lat="42.62237" lon="0.92597">
        <ele>2132.34</ele>
        <time>2011-03-12T08:27:57Z</time>
      </trkpt>
      <trkpt lat="42.62231" lon="0.92612">
        <ele>2134.26</ele>
        <time>2011-03-12T08:28:10Z</time>
      </trkpt>
      <trkpt lat="42.62221" lon="0.92613">
        <ele>2136.19</ele>
        <time>2011-03-12T08:28:20Z</time>
      </trkpt>
      <trkpt lat="42.62211" lon="0.92616">
        <ele>2139.07</ele>
        <time>2011-03-12T08:28:35Z</time>
      </trkpt>
      <trkpt lat="42.6221" lon="0.92616">
        <ele>2139.55</ele>
        <time>2011-03-12T08:28:36Z</time>
      </trkpt>
      <trkpt lat="42.62203" lon="0.92614">
        <ele>2140.99</ele>
        <time>2011-03-12T08:28:48Z</time>
      </trkpt>
      <trkpt lat="42.62195" lon="0.92617">
        <ele>2144.84</ele>
        <time>2011-03-12T08:29:04Z</time>
      </trkpt>
      <trkpt lat="42.62195" lon="0.92618">
        <ele>2144.36</ele>
        <time>2011-03-12T08:29:05Z</time>
      </trkpt>
      <trkpt lat="42.62193" lon="0.92631">
        <ele>2145.8</ele>
        <time>2011-03-12T08:29:20Z</time>
      </trkpt>
      <trkpt lat="42.62193" lon="0.92637">
        <ele>2146.28</ele>
        <time>2011-03-12T08:29:35Z</time>
      </trkpt>
      <trkpt lat="42.62194" lon="0.92637">
        <ele>2147.24</ele>
        <time>2011-03-12T08:30:15Z</time>
      </trkpt>
      <trkpt lat="42.62198" lon="0.9265">
        <ele>2149.65</ele>
        <time>2011-03-12T08:30:53Z</time>
      </trkpt>
      <trkpt lat="42.622" lon="0.92661">
        <ele>2152.05</ele>
        <time>2011-03-12T08:31:07Z</time>
      </trkpt>
      <trkpt lat="42.62201" lon="0.92669">
        <ele>2154.93</ele>
        <time>2011-03-12T08:31:18Z</time>
      </trkpt>
      <trkpt lat="42.62209" lon="0.92683">
        <ele>2156.37</ele>
        <time>2011-03-12T08:31:34Z</time>
      </trkpt>
      <trkpt lat="42.62218" lon="0.92685">
        <ele>2157.82</ele>
        <time>2011-03-12T08:31:39Z</time>
      </trkpt>
      <trkpt lat="42.6222" lon="0.92695">
        <ele>2159.26</ele>
        <time>2011-03-12T08:31:52Z</time>
      </trkpt>
      <trkpt lat="42.62211" lon="0.92701">
        <ele>2160.7</ele>
        <time>2011-03-12T08:32:04Z</time>
      </trkpt>
      <trkpt lat="42.62202" lon="0.92704">
        <ele>2162.62</ele>
        <time>2011-03-12T08:32:15Z</time>
      </trkpt>
      <trkpt lat="42.62198" lon="0.92706">
        <ele>2164.55</ele>
        <time>2011-03-12T08:32:28Z</time>
      </trkpt>
      <trkpt lat="42.62205" lon="0.92718">
        <ele>2166.95</ele>
        <time>2011-03-12T08:32:42Z</time>
      </trkpt>
      <trkpt lat="42.62209" lon="0.92723">
        <ele>2169.35</ele>
        <time>2011-03-12T08:32:55Z</time>
      </trkpt>
      <trkpt lat="42.62214" lon="0.92733">
        <ele>2171.76</ele>
        <time>2011-03-12T08:33:12Z</time>
      </trkpt>
      <trkpt lat="42.62212" lon="0.92735">
        <ele>2173.68</ele>
        <time>2011-03-12T08:33:19Z</time>
      </trkpt>
      <trkpt lat="42.62205" lon="0.92739">
        <ele>2175.12</ele>
        <time>2011-03-12T08:33:32Z</time>
      </trkpt>
      <trkpt lat="42.62195" lon="0.92745">
        <ele>2177.04</ele>
        <time>2011-03-12T08:33:49Z</time>
      </trkpt>
      <trkpt lat="42.62201" lon="0.92755">
        <ele>2180.41</ele>
        <time>2011-03-12T08:34:05Z</time>
      </trkpt>
      <trkpt lat="42.62201" lon="0.92755">
        <ele>2180.41</ele>
        <time>2011-03-12T08:34:06Z</time>
      </trkpt>
      <trkpt lat="42.62207" lon="0.92764">
        <ele>2181.85</ele>
        <time>2011-03-12T08:34:18Z</time>
      </trkpt>
      <trkpt lat="42.62206" lon="0.92778">
        <ele>2183.29</ele>
        <time>2011-03-12T08:34:33Z</time>
      </trkpt>
      <trkpt lat="42.62197" lon="0.92782">
        <ele>2184.25</ele>
        <time>2011-03-12T08:34:47Z</time>
      </trkpt>
      <trkpt lat="42.62196" lon="0.92786">
        <ele>2187.62</ele>
        <time>2011-03-12T08:34:51Z</time>
      </trkpt>
      <trkpt lat="42.62196" lon="0.92786">
        <ele>2189.54</ele>
        <time>2011-03-12T08:35:07Z</time>
      </trkpt>
      <trkpt lat="42.62196" lon="0.92786">
        <ele>2188.58</ele>
        <time>2011-03-12T08:35:14Z</time>
      </trkpt>
      <trkpt lat="42.62196" lon="0.92786">
        <ele>2187.62</ele>
        <time>2011-03-12T08:35:16Z</time>
      </trkpt>
      <trkpt lat="42.62196" lon="0.92786">
        <ele>2185.69</ele>
        <time>2011-03-12T08:36:08Z</time>
      </trkpt>
      <trkpt lat="42.62197" lon="0.92787">
        <ele>2185.69</ele>
        <time>2011-03-12T08:36:26Z</time>
      </trkpt>
      <trkpt lat="42.62199" lon="0.9278">
        <ele>2184.25</ele>
        <time>2011-03-12T08:36:39Z</time>
      </trkpt>
      <trkpt lat="42.62198" lon="0.92781">
        <ele>2186.66</ele>
        <time>2011-03-12T08:37:04Z</time>
      </trkpt>
      <trkpt lat="42.62204" lon="0.92802">
        <ele>2185.69</ele>
        <time>2011-03-12T08:37:20Z</time>
      </trkpt>
      <trkpt lat="42.62206" lon="0.92807">
        <ele>2185.21</ele>
        <time>2011-03-12T08:37:37Z</time>
      </trkpt>
      <trkpt lat="42.62216" lon="0.9282">
        <ele>2185.69</ele>
        <time>2011-03-12T08:37:52Z</time>
      </trkpt>
      <trkpt lat="42.62221" lon="0.92821">
        <ele>2186.18</ele>
        <time>2011-03-12T08:37:57Z</time>
      </trkpt>
      <trkpt lat="42.62223" lon="0.92823">
        <ele>2185.21</ele>
        <time>2011-03-12T08:37:59Z</time>
      </trkpt>
      <trkpt lat="42.62227" lon="0.92825">
        <ele>2185.21</ele>
        <time>2011-03-12T08:38:03Z</time>
      </trkpt>
      <trkpt lat="42.62242" lon="0.92837">
        <ele>2183.29</ele>
        <time>2011-03-12T08:38:18Z</time>
      </trkpt>
      <trkpt lat="42.62248" lon="0.92853">
        <ele>2185.21</ele>
        <time>2011-03-12T08:38:32Z</time>
      </trkpt>
      <trkpt lat="42.62248" lon="0.92874">
        <ele>2185.21</ele>
        <time>2011-03-12T08:38:46Z</time>
      </trkpt>
      <trkpt lat="42.6225" lon="0.92891">
        <ele>2187.62</ele>
        <time>2011-03-12T08:38:58Z</time>
      </trkpt>
      <trkpt lat="42.62256" lon="0.92907">
        <ele>2188.58</ele>
        <time>2011-03-12T08:39:15Z</time>
      </trkpt>
      <trkpt lat="42.62264" lon="0.92923">
        <ele>2187.62</ele>
        <time>2011-03-12T08:39:30Z</time>
      </trkpt>
      <trkpt lat="42.62262" lon="0.92936">
        <ele>2187.62</ele>
        <time>2011-03-12T08:39:46Z</time>
      </trkpt>
      <trkpt lat="42.62271" lon="0.92952">
        <ele>2185.21</ele>
        <time>2011-03-12T08:40:04Z</time>
      </trkpt>
      <trkpt lat="42.6227" lon="0.92956">
        <ele>2182.33</ele>
        <time>2011-03-12T08:40:10Z</time>
      </trkpt>
      <trkpt lat="42.6227" lon="0.92956">
        <ele>2186.66</ele>
        <time>2011-03-12T08:40:12Z</time>
      </trkpt>
      <trkpt lat="42.6227" lon="0.92956">
        <ele>2183.77</ele>
        <time>2011-03-12T08:40:13Z</time>
      </trkpt>
      <trkpt lat="42.6227" lon="0.92956">
        <ele>2170.79</ele>
        <time>2011-03-12T08:40:14Z</time>
      </trkpt>
      <trkpt lat="42.6227" lon="0.92956">
        <ele>2179.45</ele>
        <time>2011-03-12T08:40:15Z</time>
      </trkpt>
      <trkpt lat="42.6227" lon="0.92956">
        <ele>2191.46</ele>
        <time>2011-03-12T08:40:16Z</time>
      </trkpt>
      <trkpt lat="42.6227" lon="0.92956">
        <ele>2186.66</ele>
        <time>2011-03-12T08:40:17Z</time>
      </trkpt>
      <trkpt lat="42.62269" lon="0.92956">
        <ele>2183.77</ele>
        <time>2011-03-12T08:40:18Z</time>
      </trkpt>
      <trkpt lat="42.62269" lon="0.92957">
        <ele>2183.77</ele>
        <time>2011-03-12T08:40:19Z</time>
      </trkpt>
      <trkpt lat="42.62272" lon="0.92972">
        <ele>2181.37</ele>
        <time>2011-03-12T08:40:33Z</time>
      </trkpt>
      <trkpt lat="42.62273" lon="0.92979">
        <ele>2179.45</ele>
        <time>2011-03-12T08:40:36Z</time>
      </trkpt>
      <trkpt lat="42.62268" lon="0.93001">
        <ele>2176.56</ele>
        <time>2011-03-12T08:40:47Z</time>
      </trkpt>
      <trkpt lat="42.62257" lon="0.93022">
        <ele>2174.64</ele>
        <time>2011-03-12T08:41:05Z</time>
      </trkpt>
      <trkpt lat="42.62254" lon="0.93036">
        <ele>2174.64</ele>
        <time>2011-03-12T08:41:17Z</time>
      </trkpt>
      <trkpt lat="42.62254" lon="0.93055">
        <ele>2174.64</ele>
        <time>2011-03-12T08:41:34Z</time>
      </trkpt>
      <trkpt lat="42.6225" lon="0.93068">
        <ele>2173.2</ele>
        <time>2011-03-12T08:41:46Z</time>
      </trkpt>
      <trkpt lat="42.62246" lon="0.93088">
        <ele>2175.6</ele>
        <time>2011-03-12T08:42:01Z</time>
      </trkpt>
      <trkpt lat="42.62244" lon="0.93104">
        <ele>2177.04</ele>
        <time>2011-03-12T08:42:14Z</time>
      </trkpt>
      <trkpt lat="42.62239" lon="0.93113">
        <ele>2176.56</ele>
        <time>2011-03-12T08:42:22Z</time>
      </trkpt>
      <trkpt lat="42.6223" lon="0.93132">
        <ele>2176.56</ele>
        <time>2011-03-12T08:42:37Z</time>
      </trkpt>
      <trkpt lat="42.62224" lon="0.93152">
        <ele>2177.04</ele>
        <time>2011-03-12T08:42:52Z</time>
      </trkpt>
      <trkpt lat="42.62217" lon="0.93158">
        <ele>2180.41</ele>
        <time>2011-03-12T08:43:00Z</time>
      </trkpt>
      <trkpt lat="42.62211" lon="0.93169">
        <ele>2179.93</ele>
        <time>2011-03-12T08:43:18Z</time>
      </trkpt>
      <trkpt lat="42.62212" lon="0.93171">
        <ele>2178.97</ele>
        <time>2011-03-12T08:44:08Z</time>
      </trkpt>
      <trkpt lat="42.62212" lon="0.93185">
        <ele>2177.04</ele>
        <time>2011-03-12T08:44:16Z</time>
      </trkpt>
      <trkpt lat="42.62211" lon="0.93186">
        <ele>2177.52</ele>
        <time>2011-03-12T08:44:17Z</time>
      </trkpt>
      <trkpt lat="42.62203" lon="0.93207">
        <ele>2175.6</ele>
        <time>2011-03-12T08:44:29Z</time>
      </trkpt>
      <trkpt lat="42.62196" lon="0.93228">
        <ele>2173.68</ele>
        <time>2011-03-12T08:44:42Z</time>
      </trkpt>
      <trkpt lat="42.62195" lon="0.93253">
        <ele>2171.76</ele>
        <time>2011-03-12T08:44:58Z</time>
      </trkpt>
      <trkpt lat="42.62192" lon="0.9328">
        <ele>2169.35</ele>
        <time>2011-03-12T08:45:14Z</time>
      </trkpt>
      <trkpt lat="42.62182" lon="0.93296">
        <ele>2169.35</ele>
        <time>2011-03-12T08:45:30Z</time>
      </trkpt>
      <trkpt lat="42.62175" lon="0.93307">
        <ele>2169.35</ele>
        <time>2011-03-12T08:45:43Z</time>
      </trkpt>
      <trkpt lat="42.6217" lon="0.93321">
        <ele>2167.43</ele>
        <time>2011-03-12T08:45:52Z</time>
      </trkpt>
      <trkpt lat="42.62168" lon="0.93329">
        <ele>2165.03</ele>
        <time>2011-03-12T08:45:56Z</time>
      </trkpt>
      <trkpt lat="42.62166" lon="0.93332">
        <ele>2157.82</ele>
        <time>2011-03-12T08:45:58Z</time>
      </trkpt>
      <trkpt lat="42.62166" lon="0.93333">
        <ele>2166.47</ele>
        <time>2011-03-12T08:45:59Z</time>
      </trkpt>
      <trkpt lat="42.62165" lon="0.93334">
        <ele>2165.99</ele>
        <time>2011-03-12T08:46:00Z</time>
      </trkpt>
      <trkpt lat="42.62165" lon="0.93334">
        <ele>2164.55</ele>
        <time>2011-03-12T08:46:02Z</time>
      </trkpt>
      <trkpt lat="42.6216" lon="0.9334">
        <ele>2163.58</ele>
        <time>2011-03-12T08:46:18Z</time>
      </trkpt>
      <trkpt lat="42.62151" lon="0.93358">
        <ele>2162.14</ele>
        <time>2011-03-12T08:46:34Z</time>
      </trkpt>
      <trkpt lat="42.62146" lon="0.93368">
        <ele>2161.18</ele>
        <time>2011-03-12T08:46:47Z</time>
      </trkpt>
      <trkpt lat="42.62139" lon="0.93376">
        <ele>2163.1</ele>
        <time>2011-03-12T08:47:05Z</time>
      </trkpt>
      <trkpt lat="42.62133" lon="0.93384">
        <ele>2163.1</ele>
        <time>2011-03-12T08:47:24Z</time>
      </trkpt>
      <trkpt lat="42.62123" lon="0.93396">
        <ele>2162.62</ele>
        <time>2011-03-12T08:47:38Z</time>
      </trkpt>
      <trkpt lat="42.62114" lon="0.934">
        <ele>2164.06</ele>
        <time>2011-03-12T08:47:49Z</time>
      </trkpt>
      <trkpt lat="42.621" lon="0.93412">
        <ele>2163.58</ele>
        <time>2011-03-12T08:48:05Z</time>
      </trkpt>
      <trkpt lat="42.62089" lon="0.93426">
        <ele>2164.06</ele>
        <time>2011-03-12T08:48:23Z</time>
      </trkpt>
      <trkpt lat="42.62081" lon="0.93438">
        <ele>2165.99</ele>
        <time>2011-03-12T08:48:34Z</time>
      </trkpt>
      <trkpt lat="42.62074" lon="0.93451">
        <ele>2165.99</ele>
        <time>2011-03-12T08:48:47Z</time>
      </trkpt>
      <trkpt lat="42.62069" lon="0.93458">
        <ele>2166.95</ele>
        <time>2011-03-12T08:48:59Z</time>
      </trkpt>
      <trkpt lat="42.62064" lon="0.93465">
        <ele>2169.35</ele>
        <time>2011-03-12T08:49:10Z</time>
      </trkpt>
      <trkpt lat="42.62057" lon="0.93474">
        <ele>2169.35</ele>
        <time>2011-03-12T08:49:25Z</time>
      </trkpt>
      <trkpt lat="42.62049" lon="0.93492">
        <ele>2171.27</ele>
        <time>2011-03-12T08:49:38Z</time>
      </trkpt>
      <trkpt lat="42.62038" lon="0.93504">
        <ele>2171.27</ele>
        <time>2011-03-12T08:49:53Z</time>
      </trkpt>
      <trkpt lat="42.6203" lon="0.93515">
        <ele>2168.39</ele>
        <time>2011-03-12T08:50:04Z</time>
      </trkpt>
      <trkpt lat="42.62029" lon="0.93516">
        <ele>2167.91</ele>
        <time>2011-03-12T08:50:05Z</time>
      </trkpt>
      <trkpt lat="42.62027" lon="0.93519">
        <ele>2160.22</ele>
        <time>2011-03-12T08:50:07Z</time>
      </trkpt>
      <trkpt lat="42.62027" lon="0.9352">
        <ele>2169.83</ele>
        <time>2011-03-12T08:50:08Z</time>
      </trkpt>
      <trkpt lat="42.62027" lon="0.9352">
        <ele>2169.83</ele>
        <time>2011-03-12T08:50:09Z</time>
      </trkpt>
      <trkpt lat="42.62027" lon="0.9352">
        <ele>2168.39</ele>
        <time>2011-03-12T08:50:11Z</time>
      </trkpt>
      <trkpt lat="42.62027" lon="0.9352">
        <ele>2169.35</ele>
        <time>2011-03-12T08:50:20Z</time>
      </trkpt>
      <trkpt lat="42.62027" lon="0.9352">
        <ele>2166.95</ele>
        <time>2011-03-12T08:50:23Z</time>
      </trkpt>
      <trkpt lat="42.62026" lon="0.93519">
        <ele>2169.83</ele>
        <time>2011-03-12T08:50:43Z</time>
      </trkpt>
      <trkpt lat="42.62028" lon="0.93515">
        <ele>2172.24</ele>
        <time>2011-03-12T08:50:55Z</time>
      </trkpt>
      <trkpt lat="42.62031" lon="0.93511">
        <ele>2173.68</ele>
        <time>2011-03-12T08:50:58Z</time>
      </trkpt>
      <trkpt lat="42.62042" lon="0.935">
        <ele>2174.64</ele>
        <time>2011-03-12T08:51:10Z</time>
      </trkpt>
      <trkpt lat="42.62044" lon="0.93498">
        <ele>2168.87</ele>
        <time>2011-03-12T08:51:32Z</time>
      </trkpt>
      <trkpt lat="42.62044" lon="0.93498">
        <ele>2177.04</ele>
        <time>2011-03-12T08:51:33Z</time>
      </trkpt>
      <trkpt lat="42.62044" lon="0.93498">
        <ele>2172.24</ele>
        <time>2011-03-12T08:51:34Z</time>
      </trkpt>
      <trkpt lat="42.62044" lon="0.93498">
        <ele>2176.08</ele>
        <time>2011-03-12T08:51:42Z</time>
      </trkpt>
      <trkpt lat="42.62044" lon="0.93497">
        <ele>2171.27</ele>
        <time>2011-03-12T08:52:11Z</time>
      </trkpt>
      <trkpt lat="42.62044" lon="0.93497">
        <ele>2175.12</ele>
        <time>2011-03-12T08:52:13Z</time>
      </trkpt>
      <trkpt lat="42.62044" lon="0.93497">
        <ele>2171.27</ele>
        <time>2011-03-12T08:52:18Z</time>
      </trkpt>
      <trkpt lat="42.62044" lon="0.93497">
        <ele>2173.2</ele>
        <time>2011-03-12T08:52:21Z</time>
      </trkpt>
      <trkpt lat="42.62044" lon="0.93499">
        <ele>2173.68</ele>
        <time>2011-03-12T08:52:32Z</time>
      </trkpt>
      <trkpt lat="42.62044" lon="0.93499">
        <ele>2175.12</ele>
        <time>2011-03-12T08:53:03Z</time>
      </trkpt>
      <trkpt lat="42.62044" lon="0.93499">
        <ele>2167.43</ele>
        <time>2011-03-12T08:53:10Z</time>
      </trkpt>
      <trkpt lat="42.62044" lon="0.93499">
        <ele>2171.27</ele>
        <time>2011-03-12T08:53:11Z</time>
      </trkpt>
      <trkpt lat="42.62044" lon="0.93499">
        <ele>2177.04</ele>
        <time>2011-03-12T08:53:12Z</time>
      </trkpt>
      <trkpt lat="42.62044" lon="0.93499">
        <ele>2175.12</ele>
        <time>2011-03-12T08:53:13Z</time>
      </trkpt>
      <trkpt lat="42.62044" lon="0.93499">
        <ele>2174.16</ele>
        <time>2011-03-12T08:53:15Z</time>
      </trkpt>
      <trkpt lat="42.62042" lon="0.93499">
        <ele>2170.79</ele>
        <time>2011-03-12T08:53:33Z</time>
      </trkpt>
      <trkpt lat="42.6204" lon="0.935">
        <ele>2171.27</ele>
        <time>2011-03-12T08:53:35Z</time>
      </trkpt>
      <trkpt lat="42.62036" lon="0.93503">
        <ele>2170.31</ele>
        <time>2011-03-12T08:53:39Z</time>
      </trkpt>
      <trkpt lat="42.62028" lon="0.93515">
        <ele>2169.35</ele>
        <time>2011-03-12T08:53:47Z</time>
      </trkpt>
      <trkpt lat="42.62022" lon="0.93526">
        <ele>2166.95</ele>
        <time>2011-03-12T08:54:00Z</time>
      </trkpt>
      <trkpt lat="42.62013" lon="0.93534">
        <ele>2164.06</ele>
        <time>2011-03-12T08:54:11Z</time>
      </trkpt>
      <trkpt lat="42.62001" lon="0.93539">
        <ele>2164.06</ele>
        <time>2011-03-12T08:54:23Z</time>
      </trkpt>
      <trkpt lat="42.61992" lon="0.93546">
        <ele>2162.62</ele>
        <time>2011-03-12T08:54:33Z</time>
      </trkpt>
      <trkpt lat="42.6198" lon="0.93558">
        <ele>2162.14</ele>
        <time>2011-03-12T08:54:47Z</time>
      </trkpt>
      <trkpt lat="42.6197" lon="0.93568">
        <ele>2161.18</ele>
        <time>2011-03-12T08:54:59Z</time>
      </trkpt>
      <trkpt lat="42.61959" lon="0.93582">
        <ele>2161.18</ele>
        <time>2011-03-12T08:55:12Z</time>
      </trkpt>
      <trkpt lat="42.61953" lon="0.93591">
        <ele>2161.66</ele>
        <time>2011-03-12T08:55:22Z</time>
      </trkpt>
      <trkpt lat="42.6194" lon="0.93598">
        <ele>2163.1</ele>
        <time>2011-03-12T08:55:37Z</time>
      </trkpt>
      <trkpt lat="42.61939" lon="0.93601">
        <ele>2163.58</ele>
        <time>2011-03-12T08:55:40Z</time>
      </trkpt>
      <trkpt lat="42.6193" lon="0.93616">
        <ele>2164.55</ele>
        <time>2011-03-12T08:55:55Z</time>
      </trkpt>
      <trkpt lat="42.6192" lon="0.93632">
        <ele>2164.55</ele>
        <time>2011-03-12T08:56:10Z</time>
      </trkpt>
      <trkpt lat="42.61913" lon="0.93644">
        <ele>2166.47</ele>
        <time>2011-03-12T08:56:23Z</time>
      </trkpt>
      <trkpt lat="42.6191" lon="0.93647">
        <ele>2167.91</ele>
        <time>2011-03-12T08:56:27Z</time>
      </trkpt>
      <trkpt lat="42.61903" lon="0.93659">
        <ele>2167.43</ele>
        <time>2011-03-12T08:56:39Z</time>
      </trkpt>
      <trkpt lat="42.619" lon="0.93661">
        <ele>2167.91</ele>
        <time>2011-03-12T08:56:41Z</time>
      </trkpt>
      <trkpt lat="42.61893" lon="0.93676">
        <ele>2170.79</ele>
        <time>2011-03-12T08:56:56Z</time>
      </trkpt>
      <trkpt lat="42.61893" lon="0.93684">
        <ele>2171.27</ele>
        <time>2011-03-12T08:57:04Z</time>
      </trkpt>
      <trkpt lat="42.61892" lon="0.93685">
        <ele>2170.31</ele>
        <time>2011-03-12T08:57:19Z</time>
      </trkpt>
      <trkpt lat="42.6189" lon="0.93695">
        <ele>2171.76</ele>
        <time>2011-03-12T08:57:30Z</time>
      </trkpt>
      <trkpt lat="42.61881" lon="0.93707">
        <ele>2172.24</ele>
        <time>2011-03-12T08:57:45Z</time>
      </trkpt>
      <trkpt lat="42.61878" lon="0.93711">
        <ele>2174.64</ele>
        <time>2011-03-12T08:57:51Z</time>
      </trkpt>
      <trkpt lat="42.61876" lon="0.93718">
        <ele>2175.12</ele>
        <time>2011-03-12T08:57:56Z</time>
      </trkpt>
      <trkpt lat="42.61869" lon="0.93725">
        <ele>2176.08</ele>
        <time>2011-03-12T08:58:05Z</time>
      </trkpt>
      <trkpt lat="42.61864" lon="0.93741">
        <ele>2176.56</ele>
        <time>2011-03-12T08:58:18Z</time>
      </trkpt>
      <trkpt lat="42.6186" lon="0.93753">
        <ele>2177.04</ele>
        <time>2011-03-12T08:58:28Z</time>
      </trkpt>
      <trkpt lat="42.61853" lon="0.93762">
        <ele>2178.97</ele>
        <time>2011-03-12T08:58:38Z</time>
      </trkpt>
      <trkpt lat="42.61845" lon="0.93768">
        <ele>2181.37</ele>
        <time>2011-03-12T08:58:51Z</time>
      </trkpt>
      <trkpt lat="42.61839" lon="0.93771">
        <ele>2182.81</ele>
        <time>2011-03-12T08:59:00Z</time>
      </trkpt>
      <trkpt lat="42.61838" lon="0.93778">
        <ele>2184.25</ele>
        <time>2011-03-12T08:59:06Z</time>
      </trkpt>
      <trkpt lat="42.61838" lon="0.93784">
        <ele>2185.21</ele>
        <time>2011-03-12T08:59:24Z</time>
      </trkpt>
      <trkpt lat="42.61837" lon="0.93784">
        <ele>2184.73</ele>
        <time>2011-03-12T08:59:55Z</time>
      </trkpt>
      <trkpt lat="42.61837" lon="0.93783">
        <ele>2184.25</ele>
        <time>2011-03-12T09:00:27Z</time>
      </trkpt>
      <trkpt lat="42.61836" lon="0.93782">
        <ele>2185.21</ele>
        <time>2011-03-12T09:01:33Z</time>
      </trkpt>
      <trkpt lat="42.61836" lon="0.93782">
        <ele>2183.29</ele>
        <time>2011-03-12T09:01:44Z</time>
      </trkpt>
      <trkpt lat="42.61826" lon="0.93782">
        <ele>2184.25</ele>
        <time>2011-03-12T09:01:56Z</time>
      </trkpt>
      <trkpt lat="42.61815" lon="0.93786">
        <ele>2186.66</ele>
        <time>2011-03-12T09:02:11Z</time>
      </trkpt>
      <trkpt lat="42.61814" lon="0.93787">
        <ele>2186.66</ele>
        <time>2011-03-12T09:02:13Z</time>
      </trkpt>
      <trkpt lat="42.61808" lon="0.93792">
        <ele>2187.14</ele>
        <time>2011-03-12T09:02:20Z</time>
      </trkpt>
      <trkpt lat="42.618" lon="0.93798">
        <ele>2189.54</ele>
        <time>2011-03-12T09:02:33Z</time>
      </trkpt>
      <trkpt lat="42.61796" lon="0.93798">
        <ele>2190.02</ele>
        <time>2011-03-12T09:02:37Z</time>
      </trkpt>
      <trkpt lat="42.61789" lon="0.93794">
        <ele>2192.42</ele>
        <time>2011-03-12T09:02:48Z</time>
      </trkpt>
      <trkpt lat="42.61782" lon="0.938">
        <ele>2194.83</ele>
        <time>2011-03-12T09:03:11Z</time>
      </trkpt>
      <trkpt lat="42.61774" lon="0.93806">
        <ele>2197.23</ele>
        <time>2011-03-12T09:03:24Z</time>
      </trkpt>
      <trkpt lat="42.61772" lon="0.93807">
        <ele>2197.71</ele>
        <time>2011-03-12T09:03:43Z</time>
      </trkpt>
      <trkpt lat="42.61764" lon="0.93804">
        <ele>2198.19</ele>
        <time>2011-03-12T09:03:57Z</time>
      </trkpt>
      <trkpt lat="42.61762" lon="0.93805">
        <ele>2200.59</ele>
        <time>2011-03-12T09:04:04Z</time>
      </trkpt>
      <trkpt lat="42.61755" lon="0.93806">
        <ele>2203.48</ele>
        <time>2011-03-12T09:04:15Z</time>
      </trkpt>
      <trkpt lat="42.61754" lon="0.93812">
        <ele>2203.96</ele>
        <time>2011-03-12T09:04:32Z</time>
      </trkpt>
      <trkpt lat="42.61749" lon="0.93811">
        <ele>2204.44</ele>
        <time>2011-03-12T09:04:48Z</time>
      </trkpt>
      <trkpt lat="42.61738" lon="0.93812">
        <ele>2206.84</ele>
        <time>2011-03-12T09:05:02Z</time>
      </trkpt>
      <trkpt lat="42.61731" lon="0.93809">
        <ele>2209.25</ele>
        <time>2011-03-12T09:05:14Z</time>
      </trkpt>
      <trkpt lat="42.61729" lon="0.93819">
        <ele>2212.61</ele>
        <time>2011-03-12T09:05:24Z</time>
      </trkpt>
      <trkpt lat="42.61731" lon="0.93831">
        <ele>2213.09</ele>
        <time>2011-03-12T09:05:48Z</time>
      </trkpt>
      <trkpt lat="42.61729" lon="0.93841">
        <ele>2214.05</ele>
        <time>2011-03-12T09:05:57Z</time>
      </trkpt>
      <trkpt lat="42.61729" lon="0.93842">
        <ele>2213.57</ele>
        <time>2011-03-12T09:05:58Z</time>
      </trkpt>
      <trkpt lat="42.61725" lon="0.93848">
        <ele>2215.01</ele>
        <time>2011-03-12T09:06:05Z</time>
      </trkpt>
      <trkpt lat="42.61722" lon="0.93854">
        <ele>2215.01</ele>
        <time>2011-03-12T09:06:10Z</time>
      </trkpt>
      <trkpt lat="42.61715" lon="0.93864">
        <ele>2216.46</ele>
        <time>2011-03-12T09:06:22Z</time>
      </trkpt>
      <trkpt lat="42.61714" lon="0.93865">
        <ele>2217.42</ele>
        <time>2011-03-12T09:06:49Z</time>
      </trkpt>
      <trkpt lat="42.61713" lon="0.93864">
        <ele>2215.98</ele>
        <time>2011-03-12T09:07:08Z</time>
      </trkpt>
      <trkpt lat="42.61703" lon="0.93869">
        <ele>2217.42</ele>
        <time>2011-03-12T09:07:19Z</time>
      </trkpt>
      <trkpt lat="42.61689" lon="0.93875">
        <ele>2216.46</ele>
        <time>2011-03-12T09:07:33Z</time>
      </trkpt>
      <trkpt lat="42.61674" lon="0.93877">
        <ele>2217.42</ele>
        <time>2011-03-12T09:07:46Z</time>
      </trkpt>
      <trkpt lat="42.6166" lon="0.93878">
        <ele>2217.42</ele>
        <time>2011-03-12T09:08:01Z</time>
      </trkpt>
      <trkpt lat="42.61651" lon="0.93879">
        <ele>2216.94</ele>
        <time>2011-03-12T09:08:12Z</time>
      </trkpt>
      <trkpt lat="42.61642" lon="0.93885">
        <ele>2217.9</ele>
        <time>2011-03-12T09:08:23Z</time>
      </trkpt>
      <trkpt lat="42.61631" lon="0.93889">
        <ele>2219.34</ele>
        <time>2011-03-12T09:08:35Z</time>
      </trkpt>
      <trkpt lat="42.61621" lon="0.93894">
        <ele>2219.34</ele>
        <time>2011-03-12T09:08:46Z</time>
      </trkpt>
      <trkpt lat="42.61619" lon="0.93895">
        <ele>2220.3</ele>
        <time>2011-03-12T09:08:48Z</time>
      </trkpt>
      <trkpt lat="42.61617" lon="0.93897">
        <ele>2220.78</ele>
        <time>2011-03-12T09:08:51Z</time>
      </trkpt>
      <trkpt lat="42.61605" lon="0.93912">
        <ele>2220.78</ele>
        <time>2011-03-12T09:09:05Z</time>
      </trkpt>
      <trkpt lat="42.61596" lon="0.93917">
        <ele>2221.74</ele>
        <time>2011-03-12T09:09:17Z</time>
      </trkpt>
      <trkpt lat="42.61591" lon="0.93924">
        <ele>2220.3</ele>
        <time>2011-03-12T09:09:23Z</time>
      </trkpt>
      <trkpt lat="42.61579" lon="0.93939">
        <ele>2221.74</ele>
        <time>2011-03-12T09:09:39Z</time>
      </trkpt>
      <trkpt lat="42.61572" lon="0.93947">
        <ele>2220.78</ele>
        <time>2011-03-12T09:09:50Z</time>
      </trkpt>
      <trkpt lat="42.61561" lon="0.93956">
        <ele>2220.3</ele>
        <time>2011-03-12T09:10:03Z</time>
      </trkpt>
      <trkpt lat="42.61562" lon="0.93956">
        <ele>2219.34</ele>
        <time>2011-03-12T09:10:27Z</time>
      </trkpt>
      <trkpt lat="42.61562" lon="0.93956">
        <ele>2219.82</ele>
        <time>2011-03-12T09:10:38Z</time>
      </trkpt>
      <trkpt lat="42.61568" lon="0.93951">
        <ele>2219.82</ele>
        <time>2011-03-12T09:10:44Z</time>
      </trkpt>
      <trkpt lat="42.6157" lon="0.93942">
        <ele>2220.78</ele>
        <time>2011-03-12T09:10:50Z</time>
      </trkpt>
      <trkpt lat="42.61572" lon="0.93939">
        <ele>2218.86</ele>
        <time>2011-03-12T09:11:02Z</time>
      </trkpt>
      <trkpt lat="42.61572" lon="0.93939">
        <ele>2223.19</ele>
        <time>2011-03-12T09:11:03Z</time>
      </trkpt>
      <trkpt lat="42.61572" lon="0.93939">
        <ele>2221.74</ele>
        <time>2011-03-12T09:11:04Z</time>
      </trkpt>
      <trkpt lat="42.61569" lon="0.93942">
        <ele>2220.78</ele>
        <time>2011-03-12T09:12:51Z</time>
      </trkpt>
      <trkpt lat="42.61568" lon="0.93942">
        <ele>2221.26</ele>
        <time>2011-03-12T09:12:52Z</time>
      </trkpt>
      <trkpt lat="42.61566" lon="0.93943">
        <ele>2220.78</ele>
        <time>2011-03-12T09:12:55Z</time>
      </trkpt>
      <trkpt lat="42.61558" lon="0.93955">
        <ele>2220.78</ele>
        <time>2011-03-12T09:13:10Z</time>
      </trkpt>
      <trkpt lat="42.61556" lon="0.93957">
        <ele>2219.34</ele>
        <time>2011-03-12T09:13:18Z</time>
      </trkpt>
      <trkpt lat="42.61552" lon="0.93962">
        <ele>2219.34</ele>
        <time>2011-03-12T09:13:23Z</time>
      </trkpt>
      <trkpt lat="42.61541" lon="0.93972">
        <ele>2218.86</ele>
        <time>2011-03-12T09:13:37Z</time>
      </trkpt>
      <trkpt lat="42.61539" lon="0.93975">
        <ele>2218.86</ele>
        <time>2011-03-12T09:13:40Z</time>
      </trkpt>
      <trkpt lat="42.61536" lon="0.93977">
        <ele>2218.86</ele>
        <time>2011-03-12T09:13:43Z</time>
      </trkpt>
      <trkpt lat="42.61525" lon="0.93989">
        <ele>2218.38</ele>
        <time>2011-03-12T09:13:56Z</time>
      </trkpt>
      <trkpt lat="42.61516" lon="0.93999">
        <ele>2218.38</ele>
        <time>2011-03-12T09:14:05Z</time>
      </trkpt>
      <trkpt lat="42.61509" lon="0.94009">
        <ele>2218.38</ele>
        <time>2011-03-12T09:14:13Z</time>
      </trkpt>
      <trkpt lat="42.61505" lon="0.94012">
        <ele>2218.86</ele>
        <time>2011-03-12T09:14:18Z</time>
      </trkpt>
      <trkpt lat="42.61502" lon="0.94018">
        <ele>2218.86</ele>
        <time>2011-03-12T09:14:22Z</time>
      </trkpt>
      <trkpt lat="42.61497" lon="0.94027">
        <ele>2217.42</ele>
        <time>2011-03-12T09:14:31Z</time>
      </trkpt>
      <trkpt lat="42.61496" lon="0.94029">
        <ele>2218.38</ele>
        <time>2011-03-12T09:14:33Z</time>
      </trkpt>
      <trkpt lat="42.61489" lon="0.94044">
        <ele>2219.34</ele>
        <time>2011-03-12T09:14:44Z</time>
      </trkpt>
      <trkpt lat="42.61487" lon="0.94048">
        <ele>2219.82</ele>
        <time>2011-03-12T09:14:47Z</time>
      </trkpt>
      <trkpt lat="42.61484" lon="0.94049">
        <ele>2219.34</ele>
        <time>2011-03-12T09:14:50Z</time>
      </trkpt>
      <trkpt lat="42.61476" lon="0.94062">
        <ele>2218.86</ele>
        <time>2011-03-12T09:15:02Z</time>
      </trkpt>
      <trkpt lat="42.61473" lon="0.94073">
        <ele>2218.38</ele>
        <time>2011-03-12T09:15:13Z</time>
      </trkpt>
      <trkpt lat="42.61472" lon="0.94074">
        <ele>2219.34</ele>
        <time>2011-03-12T09:15:14Z</time>
      </trkpt>
      <trkpt lat="42.61464" lon="0.94082">
        <ele>2219.34</ele>
        <time>2011-03-12T09:15:25Z</time>
      </trkpt>
      <trkpt lat="42.61455" lon="0.94087">
        <ele>2218.86</ele>
        <time>2011-03-12T09:15:33Z</time>
      </trkpt>
      <trkpt lat="42.61454" lon="0.94091">
        <ele>2221.74</ele>
        <time>2011-03-12T09:15:48Z</time>
      </trkpt>
      <trkpt lat="42.61455" lon="0.94091">
        <ele>2219.34</ele>
        <time>2011-03-12T09:15:51Z</time>
      </trkpt>
      <trkpt lat="42.61453" lon="0.94089">
        <ele>2220.78</ele>
        <time>2011-03-12T09:15:58Z</time>
      </trkpt>
      <trkpt lat="42.6145" lon="0.94087">
        <ele>2222.22</ele>
        <time>2011-03-12T09:16:01Z</time>
      </trkpt>
      <trkpt lat="42.61438" lon="0.94075">
        <ele>2220.78</ele>
        <time>2011-03-12T09:16:14Z</time>
      </trkpt>
      <trkpt lat="42.61434" lon="0.94072">
        <ele>2219.82</ele>
        <time>2011-03-12T09:16:18Z</time>
      </trkpt>
      <trkpt lat="42.61421" lon="0.9407">
        <ele>2219.34</ele>
        <time>2011-03-12T09:16:30Z</time>
      </trkpt>
      <trkpt lat="42.6141" lon="0.94066">
        <ele>2221.26</ele>
        <time>2011-03-12T09:16:43Z</time>
      </trkpt>
      <trkpt lat="42.61409" lon="0.94065">
        <ele>2220.78</ele>
        <time>2011-03-12T09:16:45Z</time>
      </trkpt>
      <trkpt lat="42.61403" lon="0.94062">
        <ele>2221.74</ele>
        <time>2011-03-12T09:16:56Z</time>
      </trkpt>
      <trkpt lat="42.61398" lon="0.94059">
        <ele>2221.74</ele>
        <time>2011-03-12T09:17:14Z</time>
      </trkpt>
      <trkpt lat="42.61391" lon="0.94056">
        <ele>2219.34</ele>
        <time>2011-03-12T09:17:56Z</time>
      </trkpt>
      <trkpt lat="42.61387" lon="0.94055">
        <ele>2219.34</ele>
        <time>2011-03-12T09:18:30Z</time>
      </trkpt>
      <trkpt lat="42.61377" lon="0.94052">
        <ele>2220.78</ele>
        <time>2011-03-12T09:18:46Z</time>
      </trkpt>
      <trkpt lat="42.61368" lon="0.94053">
        <ele>2219.82</ele>
        <time>2011-03-12T09:18:57Z</time>
      </trkpt>
      <trkpt lat="42.61362" lon="0.9406">
        <ele>2221.74</ele>
        <time>2011-03-12T09:19:09Z</time>
      </trkpt>
      <trkpt lat="42.61361" lon="0.94061">
        <ele>2222.22</ele>
        <time>2011-03-12T09:19:10Z</time>
      </trkpt>
      <trkpt lat="42.61355" lon="0.94069">
        <ele>2221.26</ele>
        <time>2011-03-12T09:19:25Z</time>
      </trkpt>
      <trkpt lat="42.6135" lon="0.94076">
        <ele>2221.74</ele>
        <time>2011-03-12T09:19:40Z</time>
      </trkpt>
      <trkpt lat="42.6134" lon="0.94078">
        <ele>2221.26</ele>
        <time>2011-03-12T09:19:48Z</time>
      </trkpt>
      <trkpt lat="42.61337" lon="0.94076">
        <ele>2220.3</ele>
        <time>2011-03-12T09:19:51Z</time>
      </trkpt>
      <trkpt lat="42.61327" lon="0.9408">
        <ele>2221.26</ele>
        <time>2011-03-12T09:20:02Z</time>
      </trkpt>
      <trkpt lat="42.61316" lon="0.94085">
        <ele>2220.78</ele>
        <time>2011-03-12T09:20:14Z</time>
      </trkpt>
      <trkpt lat="42.61311" lon="0.94094">
        <ele>2221.74</ele>
        <time>2011-03-12T09:20:20Z</time>
      </trkpt>
      <trkpt lat="42.61308" lon="0.94098">
        <ele>2220.3</ele>
        <time>2011-03-12T09:20:40Z</time>
      </trkpt>
      <trkpt lat="42.61312" lon="0.94092">
        <ele>2220.3</ele>
        <time>2011-03-12T09:26:49Z</time>
      </trkpt>
      <trkpt lat="42.61312" lon="0.94092">
        <ele>2224.15</ele>
        <time>2011-03-12T09:26:50Z</time>
      </trkpt>
      <trkpt lat="42.61312" lon="0.94092">
        <ele>2221.26</ele>
        <time>2011-03-12T09:26:51Z</time>
      </trkpt>
      <trkpt lat="42.61312" lon="0.94091">
        <ele>2221.26</ele>
        <time>2011-03-12T09:26:55Z</time>
      </trkpt>
      <trkpt lat="42.61327" lon="0.94079">
        <ele>2221.26</ele>
        <time>2011-03-12T09:27:10Z</time>
      </trkpt>
      <trkpt lat="42.61341" lon="0.94077">
        <ele>2220.78</ele>
        <time>2011-03-12T09:27:24Z</time>
      </trkpt>
      <trkpt lat="42.61349" lon="0.94069">
        <ele>2222.22</ele>
        <time>2011-03-12T09:27:33Z</time>
      </trkpt>
      <trkpt lat="42.61358" lon="0.94056">
        <ele>2222.71</ele>
        <time>2011-03-12T09:27:46Z</time>
      </trkpt>
      <trkpt lat="42.61368" lon="0.94046">
        <ele>2221.26</ele>
        <time>2011-03-12T09:27:57Z</time>
      </trkpt>
      <trkpt lat="42.61381" lon="0.94048">
        <ele>2221.74</ele>
        <time>2011-03-12T09:28:12Z</time>
      </trkpt>
      <trkpt lat="42.61381" lon="0.94048">
        <ele>2222.22</ele>
        <time>2011-03-12T09:28:17Z</time>
      </trkpt>
      <trkpt lat="42.61393" lon="0.94054">
        <ele>2221.74</ele>
        <time>2011-03-12T09:28:30Z</time>
      </trkpt>
      <trkpt lat="42.61406" lon="0.94064">
        <ele>2221.74</ele>
        <time>2011-03-12T09:28:44Z</time>
      </trkpt>
      <trkpt lat="42.6142" lon="0.94068">
        <ele>2219.82</ele>
        <time>2011-03-12T09:28:56Z</time>
      </trkpt>
      <trkpt lat="42.6143" lon="0.94069">
        <ele>2220.3</ele>
        <time>2011-03-12T09:29:09Z</time>
      </trkpt>
      <trkpt lat="42.61445" lon="0.94073">
        <ele>2220.78</ele>
        <time>2011-03-12T09:29:20Z</time>
      </trkpt>
      <trkpt lat="42.61462" lon="0.94074">
        <ele>2220.3</ele>
        <time>2011-03-12T09:29:33Z</time>
      </trkpt>
      <trkpt lat="42.61472" lon="0.94072">
        <ele>2220.78</ele>
        <time>2011-03-12T09:29:41Z</time>
      </trkpt>
      <trkpt lat="42.61484" lon="0.94056">
        <ele>2220.78</ele>
        <time>2011-03-12T09:29:57Z</time>
      </trkpt>
      <trkpt lat="42.61484" lon="0.94054">
        <ele>2219.82</ele>
        <time>2011-03-12T09:29:59Z</time>
      </trkpt>
      <trkpt lat="42.61492" lon="0.94039">
        <ele>2220.3</ele>
        <time>2011-03-12T09:30:12Z</time>
      </trkpt>
      <trkpt lat="42.61499" lon="0.94019">
        <ele>2219.82</ele>
        <time>2011-03-12T09:30:26Z</time>
      </trkpt>
      <trkpt lat="42.61511" lon="0.94003">
        <ele>2219.34</ele>
        <time>2011-03-12T09:30:40Z</time>
      </trkpt>
      <trkpt lat="42.61524" lon="0.93985">
        <ele>2219.82</ele>
        <time>2011-03-12T09:30:54Z</time>
      </trkpt>
      <trkpt lat="42.61538" lon="0.93969">
        <ele>2219.82</ele>
        <time>2011-03-12T09:31:09Z</time>
      </trkpt>
      <trkpt lat="42.6155" lon="0.9396">
        <ele>2219.82</ele>
        <time>2011-03-12T09:31:20Z</time>
      </trkpt>
      <trkpt lat="42.61563" lon="0.93948">
        <ele>2219.34</ele>
        <time>2011-03-12T09:31:34Z</time>
      </trkpt>
      <trkpt lat="42.61564" lon="0.93944">
        <ele>2221.26</ele>
        <time>2011-03-12T09:31:37Z</time>
      </trkpt>
      <trkpt lat="42.61577" lon="0.93931">
        <ele>2221.74</ele>
        <time>2011-03-12T09:31:52Z</time>
      </trkpt>
      <trkpt lat="42.61588" lon="0.93918">
        <ele>2221.74</ele>
        <time>2011-03-12T09:32:03Z</time>
      </trkpt>
      <trkpt lat="42.61605" lon="0.93902">
        <ele>2221.74</ele>
        <time>2011-03-12T09:32:20Z</time>
      </trkpt>
      <trkpt lat="42.61619" lon="0.93891">
        <ele>2221.26</ele>
        <time>2011-03-12T09:32:33Z</time>
      </trkpt>
      <trkpt lat="42.61621" lon="0.93891">
        <ele>2221.26</ele>
        <time>2011-03-12T09:32:35Z</time>
      </trkpt>
      <trkpt lat="42.61641" lon="0.9388">
        <ele>2218.86</ele>
        <time>2011-03-12T09:32:49Z</time>
      </trkpt>
      <trkpt lat="42.61646" lon="0.93878">
        <ele>2217.9</ele>
        <time>2011-03-12T09:32:53Z</time>
      </trkpt>
      <trkpt lat="42.61668" lon="0.93873">
        <ele>2216.94</ele>
        <time>2011-03-12T09:33:07Z</time>
      </trkpt>
      <trkpt lat="42.61674" lon="0.93868">
        <ele>2216.46</ele>
        <time>2011-03-12T09:33:24Z</time>
      </trkpt>
      <trkpt lat="42.61675" lon="0.93868">
        <ele>2215.98</ele>
        <time>2011-03-12T09:33:50Z</time>
      </trkpt>
      <trkpt lat="42.6168" lon="0.93864">
        <ele>2216.94</ele>
        <time>2011-03-12T09:34:07Z</time>
      </trkpt>
      <trkpt lat="42.61679" lon="0.93865">
        <ele>2215.98</ele>
        <time>2011-03-12T09:34:35Z</time>
      </trkpt>
      <trkpt lat="42.61679" lon="0.93866">
        <ele>2218.86</ele>
        <time>2011-03-12T09:34:45Z</time>
      </trkpt>
      <trkpt lat="42.61678" lon="0.93867">
        <ele>2217.9</ele>
        <time>2011-03-12T09:34:46Z</time>
      </trkpt>
      <trkpt lat="42.61672" lon="0.93868">
        <ele>2215.98</ele>
        <time>2011-03-12T09:35:05Z</time>
      </trkpt>
      <trkpt lat="42.61669" lon="0.93869">
        <ele>2217.9</ele>
        <time>2011-03-12T09:35:27Z</time>
      </trkpt>
      <trkpt lat="42.61668" lon="0.93871">
        <ele>2215.98</ele>
        <time>2011-03-12T09:35:30Z</time>
      </trkpt>
      <trkpt lat="42.61664" lon="0.9388">
        <ele>2216.94</ele>
        <time>2011-03-12T09:35:39Z</time>
      </trkpt>
      <trkpt lat="42.61666" lon="0.93874">
        <ele>2219.34</ele>
        <time>2011-03-12T09:35:45Z</time>
      </trkpt>
      <trkpt lat="42.61664" lon="0.93871">
        <ele>2217.42</ele>
        <time>2011-03-12T09:35:49Z</time>
      </trkpt>
      <trkpt lat="42.61665" lon="0.93872">
        <ele>2218.86</ele>
        <time>2011-03-12T09:36:06Z</time>
      </trkpt>
      <trkpt lat="42.61666" lon="0.9387">
        <ele>2218.86</ele>
        <time>2011-03-12T09:36:16Z</time>
      </trkpt>
      <trkpt lat="42.61662" lon="0.93865">
        <ele>2218.86</ele>
        <time>2011-03-12T09:36:26Z</time>
      </trkpt>
      <trkpt lat="42.61662" lon="0.93865">
        <ele>2216.94</ele>
        <time>2011-03-12T09:36:28Z</time>
      </trkpt>
      <trkpt lat="42.61662" lon="0.93865">
        <ele>2216.94</ele>
        <time>2011-03-12T09:36:29Z</time>
      </trkpt>
      <trkpt lat="42.6166" lon="0.93867">
        <ele>2219.82</ele>
        <time>2011-03-12T09:36:31Z</time>
      </trkpt>
      <trkpt lat="42.61657" lon="0.93869">
        <ele>2218.38</ele>
        <time>2011-03-12T09:36:33Z</time>
      </trkpt>
      <trkpt lat="42.61652" lon="0.93871">
        <ele>2218.86</ele>
        <time>2011-03-12T09:36:52Z</time>
      </trkpt>
      <trkpt lat="42.61649" lon="0.93884">
        <ele>2218.38</ele>
        <time>2011-03-12T09:37:04Z</time>
      </trkpt>
      <trkpt lat="42.61651" lon="0.93887">
        <ele>2216.94</ele>
        <time>2011-03-12T09:37:21Z</time>
      </trkpt>
      <trkpt lat="42.61648" lon="0.93895">
        <ele>2217.9</ele>
        <time>2011-03-12T09:37:39Z</time>
      </trkpt>
      <trkpt lat="42.61646" lon="0.93896">
        <ele>2217.9</ele>
        <time>2011-03-12T09:37:43Z</time>
      </trkpt>
      <trkpt lat="42.61643" lon="0.93897">
        <ele>2217.42</ele>
        <time>2011-03-12T09:37:46Z</time>
      </trkpt>
      <trkpt lat="42.61637" lon="0.93903">
        <ele>2218.86</ele>
        <time>2011-03-12T09:37:52Z</time>
      </trkpt>
      <trkpt lat="42.61625" lon="0.93905">
        <ele>2221.26</ele>
        <time>2011-03-12T09:38:02Z</time>
      </trkpt>
      <trkpt lat="42.61617" lon="0.93909">
        <ele>2222.22</ele>
        <time>2011-03-12T09:38:12Z</time>
      </trkpt>
      <trkpt lat="42.61612" lon="0.93911">
        <ele>2223.19</ele>
        <time>2011-03-12T09:38:21Z</time>
      </trkpt>
      <trkpt lat="42.616" lon="0.93922">
        <ele>2223.19</ele>
        <time>2011-03-12T09:38:46Z</time>
      </trkpt>
      <trkpt lat="42.61593" lon="0.93931">
        <ele>2225.11</ele>
        <time>2011-03-12T09:39:00Z</time>
      </trkpt>
      <trkpt lat="42.61586" lon="0.93942">
        <ele>2224.63</ele>
        <time>2011-03-12T09:39:15Z</time>
      </trkpt>
      <trkpt lat="42.6158" lon="0.9395">
        <ele>2225.59</ele>
        <time>2011-03-12T09:39:24Z</time>
      </trkpt>
      <trkpt lat="42.61576" lon="0.93956">
        <ele>2225.11</ele>
        <time>2011-03-12T09:39:29Z</time>
      </trkpt>
      <trkpt lat="42.61569" lon="0.93966">
        <ele>2223.19</ele>
        <time>2011-03-12T09:39:35Z</time>
      </trkpt>
      <trkpt lat="42.61562" lon="0.93977">
        <ele>2221.74</ele>
        <time>2011-03-12T09:39:42Z</time>
      </trkpt>
      <trkpt lat="42.61556" lon="0.93989">
        <ele>2222.22</ele>
        <time>2011-03-12T09:39:53Z</time>
      </trkpt>
      <trkpt lat="42.61555" lon="0.9399">
        <ele>2221.26</ele>
        <time>2011-03-12T09:39:54Z</time>
      </trkpt>
      <trkpt lat="42.61548" lon="0.94002">
        <ele>2222.22</ele>
        <time>2011-03-12T09:40:06Z</time>
      </trkpt>
      <trkpt lat="42.61539" lon="0.94011">
        <ele>2222.22</ele>
        <time>2011-03-12T09:40:17Z</time>
      </trkpt>
      <trkpt lat="42.61532" lon="0.9401">
        <ele>2223.19</ele>
        <time>2011-03-12T09:40:29Z</time>
      </trkpt>
      <trkpt lat="42.61532" lon="0.9401">
        <ele>2217.42</ele>
        <time>2011-03-12T09:40:31Z</time>
      </trkpt>
      <trkpt lat="42.61532" lon="0.9401">
        <ele>2219.34</ele>
        <time>2011-03-12T09:40:32Z</time>
      </trkpt>
      <trkpt lat="42.61532" lon="0.9401">
        <ele>2222.71</ele>
        <time>2011-03-12T09:40:33Z</time>
      </trkpt>
      <trkpt lat="42.61532" lon="0.9401">
        <ele>2220.78</ele>
        <time>2011-03-12T09:40:34Z</time>
      </trkpt>
      <trkpt lat="42.61532" lon="0.9401">
        <ele>2225.59</ele>
        <time>2011-03-12T09:40:36Z</time>
      </trkpt>
      <trkpt lat="42.61532" lon="0.9401">
        <ele>2225.11</ele>
        <time>2011-03-12T09:40:37Z</time>
      </trkpt>
      <trkpt lat="42.61527" lon="0.9401">
        <ele>2223.19</ele>
        <time>2011-03-12T09:40:43Z</time>
      </trkpt>
      <trkpt lat="42.6152" lon="0.94011">
        <ele>2225.11</ele>
        <time>2011-03-12T09:40:49Z</time>
      </trkpt>
      <trkpt lat="42.61515" lon="0.94011">
        <ele>2224.15</ele>
        <time>2011-03-12T09:40:53Z</time>
      </trkpt>
      <trkpt lat="42.61509" lon="0.9401">
        <ele>2224.63</ele>
        <time>2011-03-12T09:41:04Z</time>
      </trkpt>
      <trkpt lat="42.615" lon="0.94016">
        <ele>2225.11</ele>
        <time>2011-03-12T09:41:15Z</time>
      </trkpt>
      <trkpt lat="42.61496" lon="0.94023">
        <ele>2224.63</ele>
        <time>2011-03-12T09:41:26Z</time>
      </trkpt>
      <trkpt lat="42.61492" lon="0.94028">
        <ele>2224.63</ele>
        <time>2011-03-12T09:41:33Z</time>
      </trkpt>
      <trkpt lat="42.61485" lon="0.94037">
        <ele>2222.22</ele>
        <time>2011-03-12T09:41:44Z</time>
      </trkpt>
      <trkpt lat="42.61485" lon="0.94037">
        <ele>2223.19</ele>
        <time>2011-03-12T09:41:56Z</time>
      </trkpt>
      <trkpt lat="42.61485" lon="0.94033">
        <ele>2224.15</ele>
        <time>2011-03-12T09:42:06Z</time>
      </trkpt>
      <trkpt lat="42.61484" lon="0.94038">
        <ele>2222.71</ele>
        <time>2011-03-12T09:43:16Z</time>
      </trkpt>
      <trkpt lat="42.61483" lon="0.94038">
        <ele>2224.15</ele>
        <time>2011-03-12T09:43:18Z</time>
      </trkpt>
      <trkpt lat="42.61472" lon="0.94049">
        <ele>2223.19</ele>
        <time>2011-03-12T09:43:35Z</time>
      </trkpt>
      <trkpt lat="42.61468" lon="0.94053">
        <ele>2222.71</ele>
        <time>2011-03-12T09:43:41Z</time>
      </trkpt>
      <trkpt lat="42.61463" lon="0.94061">
        <ele>2223.19</ele>
        <time>2011-03-12T09:43:57Z</time>
      </trkpt>
      <trkpt lat="42.61462" lon="0.94062">
        <ele>2222.22</ele>
        <time>2011-03-12T09:43:58Z</time>
      </trkpt>
      <trkpt lat="42.61457" lon="0.94066">
        <ele>2220.78</ele>
        <time>2011-03-12T09:44:06Z</time>
      </trkpt>
      <trkpt lat="42.61454" lon="0.94067">
        <ele>2223.19</ele>
        <time>2011-03-12T09:44:11Z</time>
      </trkpt>
      <trkpt lat="42.61446" lon="0.9408">
        <ele>2224.15</ele>
        <time>2011-03-12T09:44:28Z</time>
      </trkpt>
      <trkpt lat="42.61439" lon="0.94089">
        <ele>2226.55</ele>
        <time>2011-03-12T09:44:39Z</time>
      </trkpt>
      <trkpt lat="42.61434" lon="0.94095">
        <ele>2225.59</ele>
        <time>2011-03-12T09:44:50Z</time>
      </trkpt>
      <trkpt lat="42.61432" lon="0.94095">
        <ele>2224.63</ele>
        <time>2011-03-12T09:45:01Z</time>
      </trkpt>
      <trkpt lat="42.61424" lon="0.94102">
        <ele>2224.15</ele>
        <time>2011-03-12T09:45:12Z</time>
      </trkpt>
      <trkpt lat="42.61416" lon="0.94108">
        <ele>2225.11</ele>
        <time>2011-03-12T09:45:24Z</time>
      </trkpt>
      <trkpt lat="42.61415" lon="0.94108">
        <ele>2224.63</ele>
        <time>2011-03-12T09:45:25Z</time>
      </trkpt>
      <trkpt lat="42.61409" lon="0.94111">
        <ele>2225.11</ele>
        <time>2011-03-12T09:45:32Z</time>
      </trkpt>
      <trkpt lat="42.61403" lon="0.94118">
        <ele>2225.11</ele>
        <time>2011-03-12T09:45:44Z</time>
      </trkpt>
      <trkpt lat="42.61397" lon="0.94125">
        <ele>2225.59</ele>
        <time>2011-03-12T09:45:51Z</time>
      </trkpt>
      <trkpt lat="42.61389" lon="0.94135">
        <ele>2225.11</ele>
        <time>2011-03-12T09:46:04Z</time>
      </trkpt>
      <trkpt lat="42.61381" lon="0.94145">
        <ele>2222.71</ele>
        <time>2011-03-12T09:46:14Z</time>
      </trkpt>
      <trkpt lat="42.61374" lon="0.94149">
        <ele>2224.63</ele>
        <time>2011-03-12T09:46:24Z</time>
      </trkpt>
      <trkpt lat="42.6137" lon="0.94151">
        <ele>2225.59</ele>
        <time>2011-03-12T09:46:33Z</time>
      </trkpt>
      <trkpt lat="42.61365" lon="0.94153">
        <ele>2226.07</ele>
        <time>2011-03-12T09:46:43Z</time>
      </trkpt>
      <trkpt lat="42.61354" lon="0.94156">
        <ele>2226.07</ele>
        <time>2011-03-12T09:46:57Z</time>
      </trkpt>
      <trkpt lat="42.61348" lon="0.94164">
        <ele>2225.11</ele>
        <time>2011-03-12T09:47:06Z</time>
      </trkpt>
      <trkpt lat="42.61341" lon="0.94166">
        <ele>2226.55</ele>
        <time>2011-03-12T09:47:17Z</time>
      </trkpt>
      <trkpt lat="42.6134" lon="0.94167">
        <ele>2224.63</ele>
        <time>2011-03-12T09:47:19Z</time>
      </trkpt>
      <trkpt lat="42.61335" lon="0.94171">
        <ele>2225.59</ele>
        <time>2011-03-12T09:47:26Z</time>
      </trkpt>
      <trkpt lat="42.61328" lon="0.94177">
        <ele>2227.03</ele>
        <time>2011-03-12T09:47:36Z</time>
      </trkpt>
      <trkpt lat="42.61321" lon="0.94183">
        <ele>2227.99</ele>
        <time>2011-03-12T09:47:51Z</time>
      </trkpt>
      <trkpt lat="42.61313" lon="0.9419">
        <ele>2228.47</ele>
        <time>2011-03-12T09:48:01Z</time>
      </trkpt>
      <trkpt lat="42.61302" lon="0.94198">
        <ele>2227.99</ele>
        <time>2011-03-12T09:48:14Z</time>
      </trkpt>
      <trkpt lat="42.61296" lon="0.94203">
        <ele>2228.47</ele>
        <time>2011-03-12T09:48:24Z</time>
      </trkpt>
      <trkpt lat="42.61288" lon="0.94207">
        <ele>2227.99</ele>
        <time>2011-03-12T09:48:34Z</time>
      </trkpt>
      <trkpt lat="42.6128" lon="0.94214">
        <ele>2227.99</ele>
        <time>2011-03-12T09:48:52Z</time>
      </trkpt>
      <trkpt lat="42.61274" lon="0.94218">
        <ele>2227.51</ele>
        <time>2011-03-12T09:49:02Z</time>
      </trkpt>
      <trkpt lat="42.61272" lon="0.9422">
        <ele>2227.51</ele>
        <time>2011-03-12T09:49:05Z</time>
      </trkpt>
      <trkpt lat="42.61265" lon="0.94221">
        <ele>2227.99</ele>
        <time>2011-03-12T09:49:23Z</time>
      </trkpt>
      <trkpt lat="42.61252" lon="0.9422">
        <ele>2227.99</ele>
        <time>2011-03-12T09:49:40Z</time>
      </trkpt>
      <trkpt lat="42.6125" lon="0.94218">
        <ele>2228.47</ele>
        <time>2011-03-12T09:49:42Z</time>
      </trkpt>
      <trkpt lat="42.61248" lon="0.94218">
        <ele>2228.95</ele>
        <time>2011-03-12T09:49:44Z</time>
      </trkpt>
      <trkpt lat="42.61238" lon="0.94211">
        <ele>2226.55</ele>
        <time>2011-03-12T09:49:51Z</time>
      </trkpt>
      <trkpt lat="42.61236" lon="0.94213">
        <ele>2226.07</ele>
        <time>2011-03-12T09:49:56Z</time>
      </trkpt>
      <trkpt lat="42.61232" lon="0.94218">
        <ele>2227.03</ele>
        <time>2011-03-12T09:50:02Z</time>
      </trkpt>
      <trkpt lat="42.6123" lon="0.94225">
        <ele>2226.55</ele>
        <time>2011-03-12T09:50:15Z</time>
      </trkpt>
      <trkpt lat="42.61226" lon="0.94228">
        <ele>2227.99</ele>
        <time>2011-03-12T09:50:29Z</time>
      </trkpt>
      <trkpt lat="42.61217" lon="0.94229">
        <ele>2229.43</ele>
        <time>2011-03-12T09:50:50Z</time>
      </trkpt>
      <trkpt lat="42.61218" lon="0.94228">
        <ele>2228.95</ele>
        <time>2011-03-12T09:51:49Z</time>
      </trkpt>
      <trkpt lat="42.61219" lon="0.94227">
        <ele>2229.43</ele>
        <time>2011-03-12T09:52:02Z</time>
      </trkpt>
      <trkpt lat="42.6122" lon="0.94228">
        <ele>2227.03</ele>
        <time>2011-03-12T09:52:18Z</time>
      </trkpt>
      <trkpt lat="42.6122" lon="0.94228">
        <ele>2231.84</ele>
        <time>2011-03-12T09:52:21Z</time>
      </trkpt>
      <trkpt lat="42.6122" lon="0.94228">
        <ele>2230.88</ele>
        <time>2011-03-12T09:52:22Z</time>
      </trkpt>
      <trkpt lat="42.6122" lon="0.94228">
        <ele>2229.43</ele>
        <time>2011-03-12T09:52:26Z</time>
      </trkpt>
      <trkpt lat="42.61219" lon="0.94229">
        <ele>2227.51</ele>
        <time>2011-03-12T09:53:41Z</time>
      </trkpt>
      <trkpt lat="42.6121" lon="0.94224">
        <ele>2228.95</ele>
        <time>2011-03-12T09:55:09Z</time>
      </trkpt>
      <trkpt lat="42.61201" lon="0.94234">
        <ele>2230.4</ele>
        <time>2011-03-12T09:55:44Z</time>
      </trkpt>
      <trkpt lat="42.61195" lon="0.94237">
        <ele>2232.32</ele>
        <time>2011-03-12T09:56:03Z</time>
      </trkpt>
      <trkpt lat="42.61191" lon="0.9424">
        <ele>2233.76</ele>
        <time>2011-03-12T09:56:19Z</time>
      </trkpt>
      <trkpt lat="42.61187" lon="0.9424">
        <ele>2235.68</ele>
        <time>2011-03-12T09:56:35Z</time>
      </trkpt>
      <trkpt lat="42.61185" lon="0.94234">
        <ele>2236.64</ele>
        <time>2011-03-12T09:56:47Z</time>
      </trkpt>
      <trkpt lat="42.61177" lon="0.94231">
        <ele>2237.61</ele>
        <time>2011-03-12T09:57:01Z</time>
      </trkpt>
      <trkpt lat="42.61169" lon="0.94234">
        <ele>2240.97</ele>
        <time>2011-03-12T09:57:15Z</time>
      </trkpt>
      <trkpt lat="42.61164" lon="0.94231">
        <ele>2240.49</ele>
        <time>2011-03-12T09:57:29Z</time>
      </trkpt>
      <trkpt lat="42.61158" lon="0.94228">
        <ele>2243.85</ele>
        <time>2011-03-12T09:57:43Z</time>
      </trkpt>
      <trkpt lat="42.61155" lon="0.94227">
        <ele>2244.33</ele>
        <time>2011-03-12T09:57:50Z</time>
      </trkpt>
      <trkpt lat="42.6115" lon="0.94222">
        <ele>2245.3</ele>
        <time>2011-03-12T09:58:13Z</time>
      </trkpt>
      <trkpt lat="42.61146" lon="0.94213">
        <ele>2245.78</ele>
        <time>2011-03-12T09:58:27Z</time>
      </trkpt>
      <trkpt lat="42.61145" lon="0.94208">
        <ele>2247.7</ele>
        <time>2011-03-12T09:58:42Z</time>
      </trkpt>
      <trkpt lat="42.61142" lon="0.94192">
        <ele>2248.66</ele>
        <time>2011-03-12T09:58:57Z</time>
      </trkpt>
      <trkpt lat="42.61144" lon="0.9418">
        <ele>2250.58</ele>
        <time>2011-03-12T09:59:12Z</time>
      </trkpt>
      <trkpt lat="42.61143" lon="0.94171">
        <ele>2252.03</ele>
        <time>2011-03-12T09:59:25Z</time>
      </trkpt>
      <trkpt lat="42.6114" lon="0.94165">
        <ele>2255.87</ele>
        <time>2011-03-12T09:59:37Z</time>
      </trkpt>
      <trkpt lat="42.61139" lon="0.94163">
        <ele>2255.87</ele>
        <time>2011-03-12T09:59:57Z</time>
      </trkpt>
      <trkpt lat="42.61138" lon="0.94162">
        <ele>2257.31</ele>
        <time>2011-03-12T10:00:00Z</time>
      </trkpt>
      <trkpt lat="42.61134" lon="0.94156">
        <ele>2258.27</ele>
        <time>2011-03-12T10:00:13Z</time>
      </trkpt>
      <trkpt lat="42.6113" lon="0.94153">
        <ele>2260.2</ele>
        <time>2011-03-12T10:00:30Z</time>
      </trkpt>
      <trkpt lat="42.61126" lon="0.94143">
        <ele>2261.64</ele>
        <time>2011-03-12T10:00:46Z</time>
      </trkpt>
      <trkpt lat="42.6112" lon="0.94131">
        <ele>2262.6</ele>
        <time>2011-03-12T10:00:59Z</time>
      </trkpt>
      <trkpt lat="42.61114" lon="0.94126">
        <ele>2263.56</ele>
        <time>2011-03-12T10:01:14Z</time>
      </trkpt>
      <trkpt lat="42.61109" lon="0.94121">
        <ele>2263.56</ele>
        <time>2011-03-12T10:01:29Z</time>
      </trkpt>
      <trkpt lat="42.61102" lon="0.94116">
        <ele>2264.52</ele>
        <time>2011-03-12T10:01:45Z</time>
      </trkpt>
      <trkpt lat="42.61097" lon="0.94116">
        <ele>2265</ele>
        <time>2011-03-12T10:01:55Z</time>
      </trkpt>
      <trkpt lat="42.6109" lon="0.94107">
        <ele>2265.48</ele>
        <time>2011-03-12T10:02:09Z</time>
      </trkpt>
      <trkpt lat="42.61083" lon="0.941">
        <ele>2266.93</ele>
        <time>2011-03-12T10:02:24Z</time>
      </trkpt>
      <trkpt lat="42.61074" lon="0.94093">
        <ele>2267.89</ele>
        <time>2011-03-12T10:02:38Z</time>
      </trkpt>
      <trkpt lat="42.61074" lon="0.94093">
        <ele>2241.45</ele>
        <time>2011-03-12T10:02:40Z</time>
      </trkpt>
      <trkpt lat="42.61074" lon="0.94094">
        <ele>2267.89</ele>
        <time>2011-03-12T10:02:41Z</time>
      </trkpt>
      <trkpt lat="42.61075" lon="0.94095">
        <ele>2268.85</ele>
        <time>2011-03-12T10:04:20Z</time>
      </trkpt>
      <trkpt lat="42.61076" lon="0.94096">
        <ele>2269.33</ele>
        <time>2011-03-12T10:04:42Z</time>
      </trkpt>
      <trkpt lat="42.61075" lon="0.94097">
        <ele>2266.93</ele>
        <time>2011-03-12T10:05:04Z</time>
      </trkpt>
      <trkpt lat="42.61075" lon="0.94097">
        <ele>2268.85</ele>
        <time>2011-03-12T10:05:06Z</time>
      </trkpt>
      <trkpt lat="42.6107" lon="0.94097">
        <ele>2268.85</ele>
        <time>2011-03-12T10:05:25Z</time>
      </trkpt>
      <trkpt lat="42.61057" lon="0.94086">
        <ele>2269.33</ele>
        <time>2011-03-12T10:05:40Z</time>
      </trkpt>
      <trkpt lat="42.61048" lon="0.94078">
        <ele>2268.37</ele>
        <time>2011-03-12T10:05:56Z</time>
      </trkpt>
      <trkpt lat="42.61048" lon="0.94078">
        <ele>2268.85</ele>
        <time>2011-03-12T10:05:57Z</time>
      </trkpt>
      <trkpt lat="42.61046" lon="0.94077">
        <ele>2269.33</ele>
        <time>2011-03-12T10:06:05Z</time>
      </trkpt>
      <trkpt lat="42.61038" lon="0.94078">
        <ele>2271.25</ele>
        <time>2011-03-12T10:06:25Z</time>
      </trkpt>
      <trkpt lat="42.61031" lon="0.9408">
        <ele>2272.21</ele>
        <time>2011-03-12T10:06:41Z</time>
      </trkpt>
      <trkpt lat="42.61021" lon="0.94081">
        <ele>2275.58</ele>
        <time>2011-03-12T10:07:13Z</time>
      </trkpt>
      <trkpt lat="42.61016" lon="0.94084">
        <ele>2275.58</ele>
        <time>2011-03-12T10:07:27Z</time>
      </trkpt>
      <trkpt lat="42.6101" lon="0.9408">
        <ele>2278.94</ele>
        <time>2011-03-12T10:07:57Z</time>
      </trkpt>
      <trkpt lat="42.61" lon="0.94075">
        <ele>2280.38</ele>
        <time>2011-03-12T10:08:20Z</time>
      </trkpt>
      <trkpt lat="42.60995" lon="0.94072">
        <ele>2283.75</ele>
        <time>2011-03-12T10:08:44Z</time>
      </trkpt>
      <trkpt lat="42.60987" lon="0.94063">
        <ele>2286.63</ele>
        <time>2011-03-12T10:09:07Z</time>
      </trkpt>
      <trkpt lat="42.60982" lon="0.94053">
        <ele>2288.56</ele>
        <time>2011-03-12T10:09:33Z</time>
      </trkpt>
      <trkpt lat="42.60978" lon="0.94041">
        <ele>2291.92</ele>
        <time>2011-03-12T10:09:58Z</time>
      </trkpt>
      <trkpt lat="42.60983" lon="0.94039">
        <ele>2293.36</ele>
        <time>2011-03-12T10:10:10Z</time>
      </trkpt>
      <trkpt lat="42.60988" lon="0.94029">
        <ele>2296.73</ele>
        <time>2011-03-12T10:10:32Z</time>
      </trkpt>
      <trkpt lat="42.60991" lon="0.94018">
        <ele>2297.21</ele>
        <time>2011-03-12T10:10:51Z</time>
      </trkpt>
      <trkpt lat="42.60994" lon="0.94003">
        <ele>2297.69</ele>
        <time>2011-03-12T10:11:06Z</time>
      </trkpt>
      <trkpt lat="42.60995" lon="0.93998">
        <ele>2299.13</ele>
        <time>2011-03-12T10:11:15Z</time>
      </trkpt>
      <trkpt lat="42.60987" lon="0.93982">
        <ele>2299.61</ele>
        <time>2011-03-12T10:11:36Z</time>
      </trkpt>
      <trkpt lat="42.60986" lon="0.93971">
        <ele>2301.53</ele>
        <time>2011-03-12T10:11:52Z</time>
      </trkpt>
      <trkpt lat="42.60986" lon="0.9396">
        <ele>2302.98</ele>
        <time>2011-03-12T10:12:06Z</time>
      </trkpt>
      <trkpt lat="42.60986" lon="0.93947">
        <ele>2304.42</ele>
        <time>2011-03-12T10:12:33Z</time>
      </trkpt>
      <trkpt lat="42.60984" lon="0.93935">
        <ele>2308.26</ele>
        <time>2011-03-12T10:12:44Z</time>
      </trkpt>
      <trkpt lat="42.60984" lon="0.93934">
        <ele>2308.26</ele>
        <time>2011-03-12T10:12:45Z</time>
      </trkpt>
      <trkpt lat="42.60988" lon="0.93927">
        <ele>2310.19</ele>
        <time>2011-03-12T10:13:05Z</time>
      </trkpt>
      <trkpt lat="42.60992" lon="0.93923">
        <ele>2313.07</ele>
        <time>2011-03-12T10:13:23Z</time>
      </trkpt>
      <trkpt lat="42.60999" lon="0.93911">
        <ele>2314.51</ele>
        <time>2011-03-12T10:13:44Z</time>
      </trkpt>
      <trkpt lat="42.61002" lon="0.93897">
        <ele>2317.4</ele>
        <time>2011-03-12T10:14:04Z</time>
      </trkpt>
      <trkpt lat="42.61004" lon="0.93892">
        <ele>2316.91</ele>
        <time>2011-03-12T10:14:24Z</time>
      </trkpt>
      <trkpt lat="42.60994" lon="0.93869">
        <ele>2319.32</ele>
        <time>2011-03-12T10:14:52Z</time>
      </trkpt>
      <trkpt lat="42.60993" lon="0.93865">
        <ele>2318.84</ele>
        <time>2011-03-12T10:14:58Z</time>
      </trkpt>
      <trkpt lat="42.60992" lon="0.93863">
        <ele>2320.28</ele>
        <time>2011-03-12T10:15:00Z</time>
      </trkpt>
      <trkpt lat="42.60991" lon="0.93849">
        <ele>2322.68</ele>
        <time>2011-03-12T10:15:11Z</time>
      </trkpt>
      <trkpt lat="42.60994" lon="0.93838">
        <ele>2323.16</ele>
        <time>2011-03-12T10:15:24Z</time>
      </trkpt>
      <trkpt lat="42.60996" lon="0.93831">
        <ele>2323.16</ele>
        <time>2011-03-12T10:15:38Z</time>
      </trkpt>
      <trkpt lat="42.60998" lon="0.93825">
        <ele>2323.16</ele>
        <time>2011-03-12T10:15:49Z</time>
      </trkpt>
      <trkpt lat="42.61005" lon="0.93818">
        <ele>2323.64</ele>
        <time>2011-03-12T10:16:03Z</time>
      </trkpt>
      <trkpt lat="42.61008" lon="0.93812">
        <ele>2324.61</ele>
        <time>2011-03-12T10:16:14Z</time>
      </trkpt>
      <trkpt lat="42.6101" lon="0.93807">
        <ele>2326.05</ele>
        <time>2011-03-12T10:16:25Z</time>
      </trkpt>
      <trkpt lat="42.61011" lon="0.93805">
        <ele>2327.49</ele>
        <time>2011-03-12T10:16:36Z</time>
      </trkpt>
      <trkpt lat="42.61017" lon="0.93802">
        <ele>2329.41</ele>
        <time>2011-03-12T10:16:50Z</time>
      </trkpt>
      <trkpt lat="42.6102" lon="0.93797">
        <ele>2329.41</ele>
        <time>2011-03-12T10:17:01Z</time>
      </trkpt>
      <trkpt lat="42.6102" lon="0.93797">
        <ele>2330.37</ele>
        <time>2011-03-12T10:17:06Z</time>
      </trkpt>
      <trkpt lat="42.61021" lon="0.93796">
        <ele>2330.85</ele>
        <time>2011-03-12T10:17:17Z</time>
      </trkpt>
      <trkpt lat="42.61019" lon="0.93791">
        <ele>2332.78</ele>
        <time>2011-03-12T10:17:29Z</time>
      </trkpt>
      <trkpt lat="42.61013" lon="0.93789">
        <ele>2334.22</ele>
        <time>2011-03-12T10:17:43Z</time>
      </trkpt>
      <trkpt lat="42.61007" lon="0.93786">
        <ele>2334.7</ele>
        <time>2011-03-12T10:17:57Z</time>
      </trkpt>
      <trkpt lat="42.61004" lon="0.93786">
        <ele>2335.66</ele>
        <time>2011-03-12T10:18:16Z</time>
      </trkpt>
      <trkpt lat="42.60999" lon="0.93785">
        <ele>2336.14</ele>
        <time>2011-03-12T10:18:30Z</time>
      </trkpt>
      <trkpt lat="42.61003" lon="0.93774">
        <ele>2337.1</ele>
        <time>2011-03-12T10:18:48Z</time>
      </trkpt>
      <trkpt lat="42.61007" lon="0.93769">
        <ele>2339.51</ele>
        <time>2011-03-12T10:19:02Z</time>
      </trkpt>
      <trkpt lat="42.61013" lon="0.93763">
        <ele>2340.47</ele>
        <time>2011-03-12T10:19:17Z</time>
      </trkpt>
      <trkpt lat="42.61016" lon="0.9376">
        <ele>2340.95</ele>
        <time>2011-03-12T10:19:47Z</time>
      </trkpt>
      <trkpt lat="42.6102" lon="0.93756">
        <ele>2342.39</ele>
        <time>2011-03-12T10:20:09Z</time>
      </trkpt>
      <trkpt lat="42.61014" lon="0.93756">
        <ele>2342.87</ele>
        <time>2011-03-12T10:20:22Z</time>
      </trkpt>
      <trkpt lat="42.61012" lon="0.93755">
        <ele>2344.31</ele>
        <time>2011-03-12T10:21:02Z</time>
      </trkpt>
      <trkpt lat="42.61007" lon="0.93757">
        <ele>2345.27</ele>
        <time>2011-03-12T10:22:17Z</time>
      </trkpt>
      <trkpt lat="42.61011" lon="0.93746">
        <ele>2346.23</ele>
        <time>2011-03-12T10:22:32Z</time>
      </trkpt>
      <trkpt lat="42.61013" lon="0.93742">
        <ele>2347.68</ele>
        <time>2011-03-12T10:22:55Z</time>
      </trkpt>
      <trkpt lat="42.61015" lon="0.9374">
        <ele>2348.16</ele>
        <time>2011-03-12T10:23:06Z</time>
      </trkpt>
      <trkpt lat="42.61019" lon="0.93737">
        <ele>2349.12</ele>
        <time>2011-03-12T10:23:20Z</time>
      </trkpt>
      <trkpt lat="42.61017" lon="0.93736">
        <ele>2349.12</ele>
        <time>2011-03-12T10:23:35Z</time>
      </trkpt>
      <trkpt lat="42.61013" lon="0.93733">
        <ele>2350.08</ele>
        <time>2011-03-12T10:23:43Z</time>
      </trkpt>
      <trkpt lat="42.61009" lon="0.9373">
        <ele>2352.96</ele>
        <time>2011-03-12T10:23:54Z</time>
      </trkpt>
      <trkpt lat="42.61005" lon="0.93727">
        <ele>2352.96</ele>
        <time>2011-03-12T10:24:09Z</time>
      </trkpt>
      <trkpt lat="42.60998" lon="0.93728">
        <ele>2355.85</ele>
        <time>2011-03-12T10:24:27Z</time>
      </trkpt>
      <trkpt lat="42.60995" lon="0.93729">
        <ele>2352.48</ele>
        <time>2011-03-12T10:24:45Z</time>
      </trkpt>
      <trkpt lat="42.60995" lon="0.93729">
        <ele>2356.81</ele>
        <time>2011-03-12T10:24:46Z</time>
      </trkpt>
      <trkpt lat="42.60985" lon="0.93729">
        <ele>2358.25</ele>
        <time>2011-03-12T10:25:04Z</time>
      </trkpt>
      <trkpt lat="42.60978" lon="0.93727">
        <ele>2358.73</ele>
        <time>2011-03-12T10:25:17Z</time>
      </trkpt>
      <trkpt lat="42.60973" lon="0.93725">
        <ele>2361.14</ele>
        <time>2011-03-12T10:25:33Z</time>
      </trkpt>
      <trkpt lat="42.60968" lon="0.93719">
        <ele>2362.58</ele>
        <time>2011-03-12T10:25:43Z</time>
      </trkpt>
      <trkpt lat="42.60969" lon="0.9371">
        <ele>2364.02</ele>
        <time>2011-03-12T10:25:59Z</time>
      </trkpt>
      <trkpt lat="42.6097" lon="0.93706">
        <ele>2364.98</ele>
        <time>2011-03-12T10:26:14Z</time>
      </trkpt>
      <trkpt lat="42.60979" lon="0.93696">
        <ele>2367.86</ele>
        <time>2011-03-12T10:26:45Z</time>
      </trkpt>
      <trkpt lat="42.6098" lon="0.93694">
        <ele>2368.35</ele>
        <time>2011-03-12T10:26:59Z</time>
      </trkpt>
      <trkpt lat="42.60982" lon="0.93686">
        <ele>2369.79</ele>
        <time>2011-03-12T10:27:14Z</time>
      </trkpt>
      <trkpt lat="42.60982" lon="0.93682">
        <ele>2370.75</ele>
        <time>2011-03-12T10:27:19Z</time>
      </trkpt>
      <trkpt lat="42.60987" lon="0.93676">
        <ele>2371.23</ele>
        <time>2011-03-12T10:27:34Z</time>
      </trkpt>
      <trkpt lat="42.60994" lon="0.93671">
        <ele>2373.15</ele>
        <time>2011-03-12T10:27:49Z</time>
      </trkpt>
      <trkpt lat="42.60993" lon="0.93671">
        <ele>2372.67</ele>
        <time>2011-03-12T10:28:01Z</time>
      </trkpt>
      <trkpt lat="42.60992" lon="0.93669">
        <ele>2374.59</ele>
        <time>2011-03-12T10:28:04Z</time>
      </trkpt>
      <trkpt lat="42.60984" lon="0.93664">
        <ele>2376.04</ele>
        <time>2011-03-12T10:28:19Z</time>
      </trkpt>
      <trkpt lat="42.6098" lon="0.93661">
        <ele>2376.52</ele>
        <time>2011-03-12T10:28:32Z</time>
      </trkpt>
      <trkpt lat="42.60979" lon="0.93661">
        <ele>2374.59</ele>
        <time>2011-03-12T10:28:47Z</time>
      </trkpt>
      <trkpt lat="42.60976" lon="0.9366">
        <ele>2377.96</ele>
        <time>2011-03-12T10:29:00Z</time>
      </trkpt>
      <trkpt lat="42.60977" lon="0.93654">
        <ele>2379.4</ele>
        <time>2011-03-12T10:29:15Z</time>
      </trkpt>
      <trkpt lat="42.60981" lon="0.9365">
        <ele>2381.8</ele>
        <time>2011-03-12T10:29:33Z</time>
      </trkpt>
      <trkpt lat="42.60986" lon="0.93647">
        <ele>2381.8</ele>
        <time>2011-03-12T10:29:46Z</time>
      </trkpt>
      <trkpt lat="42.60992" lon="0.93644">
        <ele>2383.73</ele>
        <time>2011-03-12T10:30:07Z</time>
      </trkpt>
      <trkpt lat="42.60992" lon="0.93642">
        <ele>2386.13</ele>
        <time>2011-03-12T10:30:26Z</time>
      </trkpt>
      <trkpt lat="42.60988" lon="0.93633">
        <ele>2388.05</ele>
        <time>2011-03-12T10:30:36Z</time>
      </trkpt>
      <trkpt lat="42.60987" lon="0.93627">
        <ele>2389.49</ele>
        <time>2011-03-12T10:30:48Z</time>
      </trkpt>
      <trkpt lat="42.60987" lon="0.93627">
        <ele>2385.65</ele>
        <time>2011-03-12T10:31:04Z</time>
      </trkpt>
      <trkpt lat="42.60987" lon="0.93627">
        <ele>2385.17</ele>
        <time>2011-03-12T10:31:05Z</time>
      </trkpt>
      <trkpt lat="42.60987" lon="0.93627">
        <ele>2389.01</ele>
        <time>2011-03-12T10:31:08Z</time>
      </trkpt>
      <trkpt lat="42.60987" lon="0.93627">
        <ele>2388.05</ele>
        <time>2011-03-12T10:31:09Z</time>
      </trkpt>
      <trkpt lat="42.60988" lon="0.93627">
        <ele>2383.25</ele>
        <time>2011-03-12T10:31:17Z</time>
      </trkpt>
      <trkpt lat="42.60988" lon="0.93627">
        <ele>2389.49</ele>
        <time>2011-03-12T10:31:18Z</time>
      </trkpt>
      <trkpt lat="42.60988" lon="0.93627">
        <ele>2382.28</ele>
        <time>2011-03-12T10:31:19Z</time>
      </trkpt>
      <trkpt lat="42.60988" lon="0.93627">
        <ele>2389.01</ele>
        <time>2011-03-12T10:31:20Z</time>
      </trkpt>
      <trkpt lat="42.60988" lon="0.93627">
        <ele>2383.73</ele>
        <time>2011-03-12T10:31:35Z</time>
      </trkpt>
      <trkpt lat="42.60988" lon="0.93627">
        <ele>2391.9</ele>
        <time>2011-03-12T10:31:36Z</time>
      </trkpt>
      <trkpt lat="42.60988" lon="0.93627">
        <ele>2389.01</ele>
        <time>2011-03-12T10:31:42Z</time>
      </trkpt>
      <trkpt lat="42.60988" lon="0.93627">
        <ele>2399.11</ele>
        <time>2011-03-12T10:32:02Z</time>
      </trkpt>
      <trkpt lat="42.60988" lon="0.93627">
        <ele>2390.46</ele>
        <time>2011-03-12T10:32:03Z</time>
      </trkpt>
      <trkpt lat="42.60988" lon="0.93627">
        <ele>2389.01</ele>
        <time>2011-03-12T10:32:05Z</time>
      </trkpt>
      <trkpt lat="42.60979" lon="0.93634">
        <ele>2385.65</ele>
        <time>2011-03-12T10:32:29Z</time>
      </trkpt>
      <trkpt lat="42.60974" lon="0.93638">
        <ele>2384.21</ele>
        <time>2011-03-12T10:32:32Z</time>
      </trkpt>
      <trkpt lat="42.60963" lon="0.93646">
        <ele>2384.21</ele>
        <time>2011-03-12T10:32:45Z</time>
      </trkpt>
      <trkpt lat="42.60955" lon="0.93654">
        <ele>2386.13</ele>
        <time>2011-03-12T10:32:59Z</time>
      </trkpt>
      <trkpt lat="42.60947" lon="0.93661">
        <ele>2384.69</ele>
        <time>2011-03-12T10:33:14Z</time>
      </trkpt>
      <trkpt lat="42.60938" lon="0.93669">
        <ele>2385.65</ele>
        <time>2011-03-12T10:33:31Z</time>
      </trkpt>
      <trkpt lat="42.60933" lon="0.93673">
        <ele>2385.65</ele>
        <time>2011-03-12T10:33:48Z</time>
      </trkpt>
      <trkpt lat="42.60932" lon="0.93676">
        <ele>2384.21</ele>
        <time>2011-03-12T10:35:02Z</time>
      </trkpt>
      <trkpt lat="42.60924" lon="0.9369">
        <ele>2384.21</ele>
        <time>2011-03-12T10:35:14Z</time>
      </trkpt>
      <trkpt lat="42.60923" lon="0.93693">
        <ele>2385.65</ele>
        <time>2011-03-12T10:35:17Z</time>
      </trkpt>
      <trkpt lat="42.60922" lon="0.93699">
        <ele>2385.65</ele>
        <time>2011-03-12T10:35:22Z</time>
      </trkpt>
      <trkpt lat="42.60922" lon="0.93705">
        <ele>2385.65</ele>
        <time>2011-03-12T10:35:38Z</time>
      </trkpt>
      <trkpt lat="42.60922" lon="0.93704">
        <ele>2383.25</ele>
        <time>2011-03-12T10:37:12Z</time>
      </trkpt>
      <trkpt lat="42.60922" lon="0.93705">
        <ele>2385.17</ele>
        <time>2011-03-12T10:37:58Z</time>
      </trkpt>
      <trkpt lat="42.6092" lon="0.93712">
        <ele>2384.21</ele>
        <time>2011-03-12T10:38:08Z</time>
      </trkpt>
      <trkpt lat="42.60916" lon="0.93721">
        <ele>2382.76</ele>
        <time>2011-03-12T10:38:12Z</time>
      </trkpt>
      <trkpt lat="42.60916" lon="0.93728">
        <ele>2380.84</ele>
        <time>2011-03-12T10:38:22Z</time>
      </trkpt>
      <trkpt lat="42.60916" lon="0.93728">
        <ele>2382.28</ele>
        <time>2011-03-12T10:38:29Z</time>
      </trkpt>
      <trkpt lat="42.60918" lon="0.93732">
        <ele>2380.36</ele>
        <time>2011-03-12T10:38:52Z</time>
      </trkpt>
      <trkpt lat="42.6092" lon="0.93734">
        <ele>2380.36</ele>
        <time>2011-03-12T10:39:09Z</time>
      </trkpt>
      <trkpt lat="42.60923" lon="0.93737">
        <ele>2379.88</ele>
        <time>2011-03-12T10:39:26Z</time>
      </trkpt>
      <trkpt lat="42.60924" lon="0.93738">
        <ele>2380.84</ele>
        <time>2011-03-12T10:39:42Z</time>
      </trkpt>
      <trkpt lat="42.60924" lon="0.93738">
        <ele>2380.84</ele>
        <time>2011-03-12T10:39:54Z</time>
      </trkpt>
      <trkpt lat="42.60926" lon="0.93739">
        <ele>2379.4</ele>
        <time>2011-03-12T10:39:57Z</time>
      </trkpt>
      <trkpt lat="42.60938" lon="0.93746">
        <ele>2377</ele>
        <time>2011-03-12T10:40:11Z</time>
      </trkpt>
      <trkpt lat="42.60938" lon="0.93746">
        <ele>2376.52</ele>
        <time>2011-03-12T10:40:39Z</time>
      </trkpt>
      <trkpt lat="42.60935" lon="0.93748">
        <ele>2372.67</ele>
        <time>2011-03-12T10:40:59Z</time>
      </trkpt>
      <trkpt lat="42.60935" lon="0.93748">
        <ele>2377</ele>
        <time>2011-03-12T10:41:00Z</time>
      </trkpt>
      <trkpt lat="42.60934" lon="0.93749">
        <ele>2376.52</ele>
        <time>2011-03-12T10:41:07Z</time>
      </trkpt>
      <trkpt lat="42.60933" lon="0.93749">
        <ele>2376.52</ele>
        <time>2011-03-12T10:41:09Z</time>
      </trkpt>
      <trkpt lat="42.60927" lon="0.93756">
        <ele>2375.07</ele>
        <time>2011-03-12T10:41:19Z</time>
      </trkpt>
      <trkpt lat="42.60927" lon="0.93756">
        <ele>2373.15</ele>
        <time>2011-03-12T10:41:27Z</time>
      </trkpt>
      <trkpt lat="42.60926" lon="0.93757">
        <ele>2373.63</ele>
        <time>2011-03-12T10:41:43Z</time>
      </trkpt>
      <trkpt lat="42.60922" lon="0.93761">
        <ele>2375.07</ele>
        <time>2011-03-12T10:41:57Z</time>
      </trkpt>
      <trkpt lat="42.60923" lon="0.93763">
        <ele>2373.63</ele>
        <time>2011-03-12T10:42:15Z</time>
      </trkpt>
      <trkpt lat="42.60923" lon="0.93763">
        <ele>2375.55</ele>
        <time>2011-03-12T10:42:19Z</time>
      </trkpt>
      <trkpt lat="42.60923" lon="0.93763">
        <ele>2374.11</ele>
        <time>2011-03-12T10:42:25Z</time>
      </trkpt>
      <trkpt lat="42.60923" lon="0.93763">
        <ele>2374.59</ele>
        <time>2011-03-12T10:42:49Z</time>
      </trkpt>
      <trkpt lat="42.60926" lon="0.93763">
        <ele>2372.67</ele>
        <time>2011-03-12T10:43:08Z</time>
      </trkpt>
      <trkpt lat="42.60929" lon="0.93763">
        <ele>2371.23</ele>
        <time>2011-03-12T10:43:30Z</time>
      </trkpt>
      <trkpt lat="42.60934" lon="0.93764">
        <ele>2368.35</ele>
        <time>2011-03-12T10:44:13Z</time>
      </trkpt>
      <trkpt lat="42.60937" lon="0.93765">
        <ele>2364.98</ele>
        <time>2011-03-12T10:45:15Z</time>
      </trkpt>
      <trkpt lat="42.60939" lon="0.93765">
        <ele>2364.5</ele>
        <time>2011-03-12T10:45:53Z</time>
      </trkpt>
      <trkpt lat="42.6094" lon="0.93765">
        <ele>2363.54</ele>
        <time>2011-03-12T10:46:07Z</time>
      </trkpt>
      <trkpt lat="42.60944" lon="0.93766">
        <ele>2360.17</ele>
        <time>2011-03-12T10:46:48Z</time>
      </trkpt>
      <trkpt lat="42.60947" lon="0.93767">
        <ele>2360.17</ele>
        <time>2011-03-12T10:47:20Z</time>
      </trkpt>
      <trkpt lat="42.60952" lon="0.93768">
        <ele>2358.25</ele>
        <time>2011-03-12T10:48:01Z</time>
      </trkpt>
      <trkpt lat="42.60956" lon="0.93767">
        <ele>2357.29</ele>
        <time>2011-03-12T10:48:30Z</time>
      </trkpt>
      <trkpt lat="42.60959" lon="0.93767">
        <ele>2355.37</ele>
        <time>2011-03-12T10:48:51Z</time>
      </trkpt>
      <trkpt lat="42.60959" lon="0.93767">
        <ele>2354.41</ele>
        <time>2011-03-12T10:48:58Z</time>
      </trkpt>
      <trkpt lat="42.60959" lon="0.93767">
        <ele>2355.37</ele>
        <time>2011-03-12T10:49:13Z</time>
      </trkpt>
      <trkpt lat="42.60963" lon="0.93766">
        <ele>2353.93</ele>
        <time>2011-03-12T10:49:15Z</time>
      </trkpt>
      <trkpt lat="42.60971" lon="0.93763">
        <ele>2351.52</ele>
        <time>2011-03-12T10:49:18Z</time>
      </trkpt>
      <trkpt lat="42.60971" lon="0.93765">
        <ele>2350.56</ele>
        <time>2011-03-12T10:49:30Z</time>
      </trkpt>
      <trkpt lat="42.60972" lon="0.93765">
        <ele>2350.08</ele>
        <time>2011-03-12T10:50:01Z</time>
      </trkpt>
      <trkpt lat="42.60972" lon="0.93765">
        <ele>2350.08</ele>
        <time>2011-03-12T10:50:08Z</time>
      </trkpt>
      <trkpt lat="42.60969" lon="0.93772">
        <ele>2347.68</ele>
        <time>2011-03-12T10:50:12Z</time>
      </trkpt>
      <trkpt lat="42.60969" lon="0.93772">
        <ele>2345.75</ele>
        <time>2011-03-12T10:50:14Z</time>
      </trkpt>
      <trkpt lat="42.6097" lon="0.93773">
        <ele>2347.2</ele>
        <time>2011-03-12T10:50:17Z</time>
      </trkpt>
      <trkpt lat="42.60976" lon="0.93773">
        <ele>2345.75</ele>
        <time>2011-03-12T10:50:26Z</time>
      </trkpt>
      <trkpt lat="42.60975" lon="0.93774">
        <ele>2345.27</ele>
        <time>2011-03-12T10:50:29Z</time>
      </trkpt>
      <trkpt lat="42.60972" lon="0.93783">
        <ele>2341.43</ele>
        <time>2011-03-12T10:50:32Z</time>
      </trkpt>
      <trkpt lat="42.6097" lon="0.93788">
        <ele>2341.91</ele>
        <time>2011-03-12T10:50:34Z</time>
      </trkpt>
      <trkpt lat="42.60967" lon="0.93802">
        <ele>2337.1</ele>
        <time>2011-03-12T10:50:37Z</time>
      </trkpt>
      <trkpt lat="42.60964" lon="0.93809">
        <ele>2335.66</ele>
        <time>2011-03-12T10:50:39Z</time>
      </trkpt>
      <trkpt lat="42.60961" lon="0.9382">
        <ele>2332.78</ele>
        <time>2011-03-12T10:50:43Z</time>
      </trkpt>
      <trkpt lat="42.60959" lon="0.9383">
        <ele>2329.41</ele>
        <time>2011-03-12T10:50:46Z</time>
      </trkpt>
      <trkpt lat="42.60958" lon="0.93836">
        <ele>2327.97</ele>
        <time>2011-03-12T10:50:48Z</time>
      </trkpt>
      <trkpt lat="42.60957" lon="0.93842">
        <ele>2325.09</ele>
        <time>2011-03-12T10:50:50Z</time>
      </trkpt>
      <trkpt lat="42.60956" lon="0.93843">
        <ele>2325.57</ele>
        <time>2011-03-12T10:50:51Z</time>
      </trkpt>
      <trkpt lat="42.60957" lon="0.93844">
        <ele>2326.53</ele>
        <time>2011-03-12T10:51:03Z</time>
      </trkpt>
      <trkpt lat="42.60961" lon="0.93843">
        <ele>2325.09</ele>
        <time>2011-03-12T10:51:07Z</time>
      </trkpt>
      <trkpt lat="42.60961" lon="0.93843">
        <ele>2324.12</ele>
        <time>2011-03-12T10:51:24Z</time>
      </trkpt>
      <trkpt lat="42.60961" lon="0.93843">
        <ele>2325.57</ele>
        <time>2011-03-12T10:51:26Z</time>
      </trkpt>
      <trkpt lat="42.60961" lon="0.93843">
        <ele>2324.12</ele>
        <time>2011-03-12T10:51:29Z</time>
      </trkpt>
      <trkpt lat="42.60963" lon="0.93843">
        <ele>2325.09</ele>
        <time>2011-03-12T10:53:17Z</time>
      </trkpt>
      <trkpt lat="42.60971" lon="0.93856">
        <ele>2322.2</ele>
        <time>2011-03-12T10:53:23Z</time>
      </trkpt>
      <trkpt lat="42.60971" lon="0.93868">
        <ele>2318.84</ele>
        <time>2011-03-12T10:53:26Z</time>
      </trkpt>
      <trkpt lat="42.6097" lon="0.9387">
        <ele>2318.84</ele>
        <time>2011-03-12T10:53:27Z</time>
      </trkpt>
      <trkpt lat="42.60969" lon="0.93871">
        <ele>2318.84</ele>
        <time>2011-03-12T10:53:40Z</time>
      </trkpt>
      <trkpt lat="42.6096" lon="0.93882">
        <ele>2315.47</ele>
        <time>2011-03-12T10:53:45Z</time>
      </trkpt>
      <trkpt lat="42.60953" lon="0.9389">
        <ele>2313.07</ele>
        <time>2011-03-12T10:53:47Z</time>
      </trkpt>
      <trkpt lat="42.60936" lon="0.93913">
        <ele>2307.3</ele>
        <time>2011-03-12T10:53:52Z</time>
      </trkpt>
      <trkpt lat="42.6093" lon="0.93923">
        <ele>2303.46</ele>
        <time>2011-03-12T10:53:55Z</time>
      </trkpt>
      <trkpt lat="42.60928" lon="0.9393">
        <ele>2302.49</ele>
        <time>2011-03-12T10:53:58Z</time>
      </trkpt>
      <trkpt lat="42.60929" lon="0.93944">
        <ele>2298.65</ele>
        <time>2011-03-12T10:54:02Z</time>
      </trkpt>
      <trkpt lat="42.60931" lon="0.93951">
        <ele>2296.25</ele>
        <time>2011-03-12T10:54:05Z</time>
      </trkpt>
      <trkpt lat="42.60934" lon="0.93956">
        <ele>2296.73</ele>
        <time>2011-03-12T10:54:16Z</time>
      </trkpt>
      <trkpt lat="42.60935" lon="0.93962">
        <ele>2296.25</ele>
        <time>2011-03-12T10:54:28Z</time>
      </trkpt>
      <trkpt lat="42.60935" lon="0.93963">
        <ele>2296.25</ele>
        <time>2011-03-12T10:54:43Z</time>
      </trkpt>
      <trkpt lat="42.60935" lon="0.93963">
        <ele>2296.73</ele>
        <time>2011-03-12T10:54:59Z</time>
      </trkpt>
      <trkpt lat="42.60935" lon="0.93963">
        <ele>2296.73</ele>
        <time>2011-03-12T10:55:22Z</time>
      </trkpt>
      <trkpt lat="42.60939" lon="0.93974">
        <ele>2292.88</ele>
        <time>2011-03-12T10:55:28Z</time>
      </trkpt>
      <trkpt lat="42.6094" lon="0.93976">
        <ele>2293.36</ele>
        <time>2011-03-12T10:55:29Z</time>
      </trkpt>
      <trkpt lat="42.60941" lon="0.93978">
        <ele>2292.4</ele>
        <time>2011-03-12T10:55:31Z</time>
      </trkpt>
      <trkpt lat="42.60931" lon="0.93984">
        <ele>2290.48</ele>
        <time>2011-03-12T10:55:41Z</time>
      </trkpt>
      <trkpt lat="42.60919" lon="0.93989">
        <ele>2290.48</ele>
        <time>2011-03-12T10:55:51Z</time>
      </trkpt>
      <trkpt lat="42.60919" lon="0.93989">
        <ele>2290.96</ele>
        <time>2011-03-12T10:55:52Z</time>
      </trkpt>
      <trkpt lat="42.60923" lon="0.94012">
        <ele>2292.4</ele>
        <time>2011-03-12T10:56:07Z</time>
      </trkpt>
      <trkpt lat="42.60924" lon="0.94015">
        <ele>2291.44</ele>
        <time>2011-03-12T10:56:11Z</time>
      </trkpt>
      <trkpt lat="42.60922" lon="0.94038">
        <ele>2290.48</ele>
        <time>2011-03-12T10:56:24Z</time>
      </trkpt>
      <trkpt lat="42.60922" lon="0.94051">
        <ele>2290.48</ele>
        <time>2011-03-12T10:56:41Z</time>
      </trkpt>
      <trkpt lat="42.60922" lon="0.94051">
        <ele>2289.04</ele>
        <time>2011-03-12T10:56:44Z</time>
      </trkpt>
      <trkpt lat="42.60921" lon="0.9405">
        <ele>2289.04</ele>
        <time>2011-03-12T10:57:04Z</time>
      </trkpt>
      <trkpt lat="42.60922" lon="0.94059">
        <ele>2290.96</ele>
        <time>2011-03-12T10:57:39Z</time>
      </trkpt>
      <trkpt lat="42.60923" lon="0.94072">
        <ele>2291.44</ele>
        <time>2011-03-12T10:58:06Z</time>
      </trkpt>
      <trkpt lat="42.60919" lon="0.94089">
        <ele>2290.96</ele>
        <time>2011-03-12T10:58:18Z</time>
      </trkpt>
      <trkpt lat="42.60918" lon="0.94092">
        <ele>2290.48</ele>
        <time>2011-03-12T10:58:40Z</time>
      </trkpt>
      <trkpt lat="42.60916" lon="0.9411">
        <ele>2289.52</ele>
        <time>2011-03-12T10:59:04Z</time>
      </trkpt>
      <trkpt lat="42.60916" lon="0.94112">
        <ele>2289.52</ele>
        <time>2011-03-12T10:59:06Z</time>
      </trkpt>
      <trkpt lat="42.60916" lon="0.94122">
        <ele>2289.52</ele>
        <time>2011-03-12T10:59:22Z</time>
      </trkpt>
      <trkpt lat="42.60916" lon="0.94126">
        <ele>2288.08</ele>
        <time>2011-03-12T11:00:00Z</time>
      </trkpt>
      <trkpt lat="42.60918" lon="0.94138">
        <ele>2288.56</ele>
        <time>2011-03-12T11:00:19Z</time>
      </trkpt>
      <trkpt lat="42.60919" lon="0.94151">
        <ele>2288.56</ele>
        <time>2011-03-12T11:00:48Z</time>
      </trkpt>
      <trkpt lat="42.6092" lon="0.94155">
        <ele>2289.04</ele>
        <time>2011-03-12T11:01:02Z</time>
      </trkpt>
      <trkpt lat="42.60916" lon="0.94173">
        <ele>2288.08</ele>
        <time>2011-03-12T11:01:15Z</time>
      </trkpt>
      <trkpt lat="42.60917" lon="0.94189">
        <ele>2290</ele>
        <time>2011-03-12T11:01:25Z</time>
      </trkpt>
      <trkpt lat="42.60922" lon="0.94196">
        <ele>2288.56</ele>
        <time>2011-03-12T11:01:30Z</time>
      </trkpt>
      <trkpt lat="42.60926" lon="0.94199">
        <ele>2287.11</ele>
        <time>2011-03-12T11:01:32Z</time>
      </trkpt>
      <trkpt lat="42.60932" lon="0.94206">
        <ele>2286.63</ele>
        <time>2011-03-12T11:01:43Z</time>
      </trkpt>
      <trkpt lat="42.60943" lon="0.94217">
        <ele>2288.08</ele>
        <time>2011-03-12T11:01:58Z</time>
      </trkpt>
      <trkpt lat="42.60949" lon="0.94226">
        <ele>2287.11</ele>
        <time>2011-03-12T11:02:10Z</time>
      </trkpt>
      <trkpt lat="42.60949" lon="0.94228">
        <ele>2288.56</ele>
        <time>2011-03-12T11:02:13Z</time>
      </trkpt>
      <trkpt lat="42.6095" lon="0.94235">
        <ele>2289.52</ele>
        <time>2011-03-12T11:02:28Z</time>
      </trkpt>
      <trkpt lat="42.60952" lon="0.94236">
        <ele>2288.56</ele>
        <time>2011-03-12T11:03:06Z</time>
      </trkpt>
      <trkpt lat="42.60954" lon="0.9424">
        <ele>2289.04</ele>
        <time>2011-03-12T11:03:10Z</time>
      </trkpt>
      <trkpt lat="42.60947" lon="0.9425">
        <ele>2288.56</ele>
        <time>2011-03-12T11:03:26Z</time>
      </trkpt>
      <trkpt lat="42.60949" lon="0.94258">
        <ele>2289.52</ele>
        <time>2011-03-12T11:03:38Z</time>
      </trkpt>
      <trkpt lat="42.60948" lon="0.94261">
        <ele>2290</ele>
        <time>2011-03-12T11:03:44Z</time>
      </trkpt>
      <trkpt lat="42.60942" lon="0.94272">
        <ele>2289.04</ele>
        <time>2011-03-12T11:03:54Z</time>
      </trkpt>
      <trkpt lat="42.60945" lon="0.94277">
        <ele>2289.52</ele>
        <time>2011-03-12T11:04:16Z</time>
      </trkpt>
      <trkpt lat="42.60948" lon="0.94279">
        <ele>2288.56</ele>
        <time>2011-03-12T11:04:18Z</time>
      </trkpt>
      <trkpt lat="42.60952" lon="0.94283">
        <ele>2288.08</ele>
        <time>2011-03-12T11:04:24Z</time>
      </trkpt>
      <trkpt lat="42.60952" lon="0.94294">
        <ele>2289.52</ele>
        <time>2011-03-12T11:04:38Z</time>
      </trkpt>
      <trkpt lat="42.60953" lon="0.94295">
        <ele>2288.08</ele>
        <time>2011-03-12T11:04:51Z</time>
      </trkpt>
      <trkpt lat="42.60955" lon="0.94303">
        <ele>2289.52</ele>
        <time>2011-03-12T11:05:04Z</time>
      </trkpt>
      <trkpt lat="42.60954" lon="0.94313">
        <ele>2289.52</ele>
        <time>2011-03-12T11:05:24Z</time>
      </trkpt>
      <trkpt lat="42.60953" lon="0.9432">
        <ele>2290</ele>
        <time>2011-03-12T11:05:38Z</time>
      </trkpt>
      <trkpt lat="42.60956" lon="0.94328">
        <ele>2290.48</ele>
        <time>2011-03-12T11:05:48Z</time>
      </trkpt>
      <trkpt lat="42.60964" lon="0.94337">
        <ele>2290.48</ele>
        <time>2011-03-12T11:06:04Z</time>
      </trkpt>
      <trkpt lat="42.60964" lon="0.94337">
        <ele>2290.48</ele>
        <time>2011-03-12T11:06:12Z</time>
      </trkpt>
      <trkpt lat="42.60964" lon="0.94341">
        <ele>2291.92</ele>
        <time>2011-03-12T11:06:17Z</time>
      </trkpt>
      <trkpt lat="42.60967" lon="0.94354">
        <ele>2291.92</ele>
        <time>2011-03-12T11:06:32Z</time>
      </trkpt>
      <trkpt lat="42.60968" lon="0.94365">
        <ele>2293.84</ele>
        <time>2011-03-12T11:06:42Z</time>
      </trkpt>
      <trkpt lat="42.6097" lon="0.94371">
        <ele>2294.8</ele>
        <time>2011-03-12T11:06:48Z</time>
      </trkpt>
      <trkpt lat="42.60971" lon="0.94375">
        <ele>2295.28</ele>
        <time>2011-03-12T11:06:52Z</time>
      </trkpt>
      <trkpt lat="42.60974" lon="0.94385">
        <ele>2296.25</ele>
        <time>2011-03-12T11:07:07Z</time>
      </trkpt>
      <trkpt lat="42.60978" lon="0.94396">
        <ele>2295.77</ele>
        <time>2011-03-12T11:07:20Z</time>
      </trkpt>
      <trkpt lat="42.60981" lon="0.94406">
        <ele>2297.21</ele>
        <time>2011-03-12T11:07:33Z</time>
      </trkpt>
      <trkpt lat="42.60986" lon="0.94423">
        <ele>2296.25</ele>
        <time>2011-03-12T11:07:46Z</time>
      </trkpt>
      <trkpt lat="42.60987" lon="0.94429">
        <ele>2297.21</ele>
        <time>2011-03-12T11:08:03Z</time>
      </trkpt>
      <trkpt lat="42.60987" lon="0.94429">
        <ele>2297.69</ele>
        <time>2011-03-12T11:08:24Z</time>
      </trkpt>
      <trkpt lat="42.60987" lon="0.94429">
        <ele>2296.25</ele>
        <time>2011-03-12T11:08:27Z</time>
      </trkpt>
      <trkpt lat="42.6099" lon="0.94433">
        <ele>2297.69</ele>
        <time>2011-03-12T11:08:47Z</time>
      </trkpt>
      <trkpt lat="42.60994" lon="0.94441">
        <ele>2297.21</ele>
        <time>2011-03-12T11:09:50Z</time>
      </trkpt>
      <trkpt lat="42.61" lon="0.94444">
        <ele>2297.69</ele>
        <time>2011-03-12T11:10:04Z</time>
      </trkpt>
      <trkpt lat="42.60998" lon="0.94448">
        <ele>2300.09</ele>
        <time>2011-03-12T11:10:17Z</time>
      </trkpt>
      <trkpt lat="42.60993" lon="0.94456">
        <ele>2301.53</ele>
        <time>2011-03-12T11:10:43Z</time>
      </trkpt>
      <trkpt lat="42.60989" lon="0.94458">
        <ele>2302.98</ele>
        <time>2011-03-12T11:10:57Z</time>
      </trkpt>
      <trkpt lat="42.60987" lon="0.94459">
        <ele>2303.94</ele>
        <time>2011-03-12T11:11:04Z</time>
      </trkpt>
      <trkpt lat="42.60989" lon="0.94466">
        <ele>2304.9</ele>
        <time>2011-03-12T11:11:16Z</time>
      </trkpt>
      <trkpt lat="42.60985" lon="0.94473">
        <ele>2306.34</ele>
        <time>2011-03-12T11:11:33Z</time>
      </trkpt>
      <trkpt lat="42.60983" lon="0.94475">
        <ele>2306.34</ele>
        <time>2011-03-12T11:11:49Z</time>
      </trkpt>
      <trkpt lat="42.60978" lon="0.94473">
        <ele>2307.78</ele>
        <time>2011-03-12T11:12:01Z</time>
      </trkpt>
      <trkpt lat="42.60977" lon="0.94475">
        <ele>2309.22</ele>
        <time>2011-03-12T11:12:15Z</time>
      </trkpt>
      <trkpt lat="42.60977" lon="0.94479">
        <ele>2309.7</ele>
        <time>2011-03-12T11:12:30Z</time>
      </trkpt>
      <trkpt lat="42.60978" lon="0.94485">
        <ele>2311.15</ele>
        <time>2011-03-12T11:12:46Z</time>
      </trkpt>
      <trkpt lat="42.60978" lon="0.94491">
        <ele>2310.19</ele>
        <time>2011-03-12T11:13:14Z</time>
      </trkpt>
      <trkpt lat="42.60979" lon="0.94492">
        <ele>2311.63</ele>
        <time>2011-03-12T11:13:17Z</time>
      </trkpt>
      <trkpt lat="42.60972" lon="0.94489">
        <ele>2312.59</ele>
        <time>2011-03-12T11:13:32Z</time>
      </trkpt>
      <trkpt lat="42.60969" lon="0.94485">
        <ele>2314.99</ele>
        <time>2011-03-12T11:13:42Z</time>
      </trkpt>
      <trkpt lat="42.60963" lon="0.94479">
        <ele>2317.4</ele>
        <time>2011-03-12T11:13:54Z</time>
      </trkpt>
      <trkpt lat="42.60958" lon="0.94475">
        <ele>2318.84</ele>
        <time>2011-03-12T11:14:10Z</time>
      </trkpt>
      <trkpt lat="42.60951" lon="0.9447">
        <ele>2321.24</ele>
        <time>2011-03-12T11:14:26Z</time>
      </trkpt>
      <trkpt lat="42.60951" lon="0.9447">
        <ele>2321.72</ele>
        <time>2011-03-12T11:14:27Z</time>
      </trkpt>
      <trkpt lat="42.60949" lon="0.94479">
        <ele>2323.16</ele>
        <time>2011-03-12T11:14:40Z</time>
      </trkpt>
      <trkpt lat="42.60946" lon="0.94486">
        <ele>2325.57</ele>
        <time>2011-03-12T11:14:54Z</time>
      </trkpt>
      <trkpt lat="42.6094" lon="0.9449">
        <ele>2326.05</ele>
        <time>2011-03-12T11:15:12Z</time>
      </trkpt>
      <trkpt lat="42.60939" lon="0.94491">
        <ele>2326.05</ele>
        <time>2011-03-12T11:15:39Z</time>
      </trkpt>
      <trkpt lat="42.60939" lon="0.94491">
        <ele>2328.93</ele>
        <time>2011-03-12T11:15:41Z</time>
      </trkpt>
      <trkpt lat="42.60939" lon="0.94491">
        <ele>2325.57</ele>
        <time>2011-03-12T11:15:44Z</time>
      </trkpt>
      <trkpt lat="42.60939" lon="0.94491">
        <ele>2321.72</ele>
        <time>2011-03-12T11:15:54Z</time>
      </trkpt>
      <trkpt lat="42.60939" lon="0.94491">
        <ele>2325.57</ele>
        <time>2011-03-12T11:15:55Z</time>
      </trkpt>
      <trkpt lat="42.60939" lon="0.94491">
        <ele>2327.01</ele>
        <time>2011-03-12T11:15:57Z</time>
      </trkpt>
      <trkpt lat="42.60938" lon="0.9449">
        <ele>2326.53</ele>
        <time>2011-03-12T11:20:27Z</time>
      </trkpt>
      <trkpt lat="42.60938" lon="0.94491">
        <ele>2321.72</ele>
        <time>2011-03-12T11:20:36Z</time>
      </trkpt>
      <trkpt lat="42.60938" lon="0.94491">
        <ele>2326.05</ele>
        <time>2011-03-12T11:20:37Z</time>
      </trkpt>
      <trkpt lat="42.60938" lon="0.94491">
        <ele>2327.01</ele>
        <time>2011-03-12T11:20:39Z</time>
      </trkpt>
      <trkpt lat="42.60938" lon="0.94491">
        <ele>2323.64</ele>
        <time>2011-03-12T11:22:31Z</time>
      </trkpt>
      <trkpt lat="42.60938" lon="0.94491">
        <ele>2325.09</ele>
        <time>2011-03-12T11:22:32Z</time>
      </trkpt>
      <trkpt lat="42.60938" lon="0.94491">
        <ele>2325.57</ele>
        <time>2011-03-12T11:22:34Z</time>
      </trkpt>
      <trkpt lat="42.60938" lon="0.94491">
        <ele>2321.24</ele>
        <time>2011-03-12T11:22:35Z</time>
      </trkpt>
      <trkpt lat="42.60938" lon="0.94491">
        <ele>2322.68</ele>
        <time>2011-03-12T11:22:36Z</time>
      </trkpt>
      <trkpt lat="42.60938" lon="0.94491">
        <ele>2327.97</ele>
        <time>2011-03-12T11:22:38Z</time>
      </trkpt>
      <trkpt lat="42.60938" lon="0.94491">
        <ele>2326.53</ele>
        <time>2011-03-12T11:22:59Z</time>
      </trkpt>
      <trkpt lat="42.60938" lon="0.94492">
        <ele>2323.16</ele>
        <time>2011-03-12T11:23:20Z</time>
      </trkpt>
      <trkpt lat="42.60938" lon="0.94492">
        <ele>2323.64</ele>
        <time>2011-03-12T11:23:21Z</time>
      </trkpt>
      <trkpt lat="42.60938" lon="0.94492">
        <ele>2327.49</ele>
        <time>2011-03-12T11:23:24Z</time>
      </trkpt>
      <trkpt lat="42.60939" lon="0.94495">
        <ele>2327.97</ele>
        <time>2011-03-12T11:23:39Z</time>
      </trkpt>
      <trkpt lat="42.6094" lon="0.94497">
        <ele>2324.61</ele>
        <time>2011-03-12T11:24:01Z</time>
      </trkpt>
      <trkpt lat="42.60941" lon="0.94501">
        <ele>2326.05</ele>
        <time>2011-03-12T11:24:04Z</time>
      </trkpt>
      <trkpt lat="42.60941" lon="0.94513">
        <ele>2325.57</ele>
        <time>2011-03-12T11:24:17Z</time>
      </trkpt>
      <trkpt lat="42.6094" lon="0.94525">
        <ele>2326.53</ele>
        <time>2011-03-12T11:24:35Z</time>
      </trkpt>
      <trkpt lat="42.60939" lon="0.9454">
        <ele>2327.97</ele>
        <time>2011-03-12T11:25:20Z</time>
      </trkpt>
      <trkpt lat="42.6094" lon="0.94548">
        <ele>2327.49</ele>
        <time>2011-03-12T11:25:40Z</time>
      </trkpt>
      <trkpt lat="42.6094" lon="0.94557">
        <ele>2327.49</ele>
        <time>2011-03-12T11:25:54Z</time>
      </trkpt>
      <trkpt lat="42.6094" lon="0.94566">
        <ele>2329.89</ele>
        <time>2011-03-12T11:26:18Z</time>
      </trkpt>
      <trkpt lat="42.6094" lon="0.94569">
        <ele>2329.89</ele>
        <time>2011-03-12T11:26:35Z</time>
      </trkpt>
      <trkpt lat="42.60939" lon="0.94572">
        <ele>2329.89</ele>
        <time>2011-03-12T11:27:09Z</time>
      </trkpt>
      <trkpt lat="42.6094" lon="0.94576">
        <ele>2331.33</ele>
        <time>2011-03-12T11:27:27Z</time>
      </trkpt>
      <trkpt lat="42.60943" lon="0.94578">
        <ele>2332.78</ele>
        <time>2011-03-12T11:27:50Z</time>
      </trkpt>
      <trkpt lat="42.60947" lon="0.94581">
        <ele>2330.85</ele>
        <time>2011-03-12T11:28:04Z</time>
      </trkpt>
      <trkpt lat="42.6095" lon="0.94579">
        <ele>2329.41</ele>
        <time>2011-03-12T11:28:09Z</time>
      </trkpt>
      <trkpt lat="42.60948" lon="0.94586">
        <ele>2329.41</ele>
        <time>2011-03-12T11:28:19Z</time>
      </trkpt>
      <trkpt lat="42.60948" lon="0.94593">
        <ele>2328.45</ele>
        <time>2011-03-12T11:28:30Z</time>
      </trkpt>
      <trkpt lat="42.6095" lon="0.94601">
        <ele>2327.49</ele>
        <time>2011-03-12T11:28:42Z</time>
      </trkpt>
      <trkpt lat="42.6095" lon="0.94601">
        <ele>2324.61</ele>
        <time>2011-03-12T11:28:47Z</time>
      </trkpt>
      <trkpt lat="42.6095" lon="0.94601">
        <ele>2325.57</ele>
        <time>2011-03-12T11:28:48Z</time>
      </trkpt>
      <trkpt lat="42.6095" lon="0.94601">
        <ele>2328.93</ele>
        <time>2011-03-12T11:28:49Z</time>
      </trkpt>
      <trkpt lat="42.6095" lon="0.94601">
        <ele>2328.45</ele>
        <time>2011-03-12T11:28:50Z</time>
      </trkpt>
      <trkpt lat="42.6095" lon="0.94601">
        <ele>2323.16</ele>
        <time>2011-03-12T11:29:14Z</time>
      </trkpt>
      <trkpt lat="42.6095" lon="0.94601">
        <ele>2319.8</ele>
        <time>2011-03-12T11:29:15Z</time>
      </trkpt>
      <trkpt lat="42.6095" lon="0.94601">
        <ele>2322.68</ele>
        <time>2011-03-12T11:29:16Z</time>
      </trkpt>
      <trkpt lat="42.6095" lon="0.94601">
        <ele>2326.53</ele>
        <time>2011-03-12T11:29:17Z</time>
      </trkpt>
      <trkpt lat="42.6095" lon="0.94601">
        <ele>2328.45</ele>
        <time>2011-03-12T11:29:20Z</time>
      </trkpt>
      <trkpt lat="42.6095" lon="0.94601">
        <ele>2324.61</ele>
        <time>2011-03-12T11:29:52Z</time>
      </trkpt>
      <trkpt lat="42.6095" lon="0.94601">
        <ele>2327.97</ele>
        <time>2011-03-12T11:29:53Z</time>
      </trkpt>
      <trkpt lat="42.60949" lon="0.94602">
        <ele>2321.24</ele>
        <time>2011-03-12T11:29:58Z</time>
      </trkpt>
      <trkpt lat="42.60949" lon="0.94602">
        <ele>2325.09</ele>
        <time>2011-03-12T11:29:59Z</time>
      </trkpt>
      <trkpt lat="42.60948" lon="0.94603">
        <ele>2327.01</ele>
        <time>2011-03-12T11:30:01Z</time>
      </trkpt>
      <trkpt lat="42.60948" lon="0.94603">
        <ele>2325.57</ele>
        <time>2011-03-12T11:30:10Z</time>
      </trkpt>
      <trkpt lat="42.60948" lon="0.94603">
        <ele>2328.93</ele>
        <time>2011-03-12T11:30:12Z</time>
      </trkpt>
      <trkpt lat="42.60948" lon="0.94603">
        <ele>2328.93</ele>
        <time>2011-03-12T11:30:13Z</time>
      </trkpt>
      <trkpt lat="42.60948" lon="0.94603">
        <ele>2324.12</ele>
        <time>2011-03-12T11:30:15Z</time>
      </trkpt>
      <trkpt lat="42.60948" lon="0.94603">
        <ele>2326.53</ele>
        <time>2011-03-12T11:30:16Z</time>
      </trkpt>
      <trkpt lat="42.60951" lon="0.94605">
        <ele>2328.45</ele>
        <time>2011-03-12T11:30:39Z</time>
      </trkpt>
      <trkpt lat="42.60954" lon="0.94609">
        <ele>2327.49</ele>
        <time>2011-03-12T11:30:43Z</time>
      </trkpt>
      <trkpt lat="42.60951" lon="0.94632">
        <ele>2326.53</ele>
        <time>2011-03-12T11:30:59Z</time>
      </trkpt>
      <trkpt lat="42.60946" lon="0.94649">
        <ele>2327.97</ele>
        <time>2011-03-12T11:31:10Z</time>
      </trkpt>
      <trkpt lat="42.60943" lon="0.94666">
        <ele>2327.49</ele>
        <time>2011-03-12T11:31:21Z</time>
      </trkpt>
      <trkpt lat="42.60938" lon="0.94693">
        <ele>2327.01</ele>
        <time>2011-03-12T11:31:38Z</time>
      </trkpt>
      <trkpt lat="42.6094" lon="0.94715">
        <ele>2326.05</ele>
        <time>2011-03-12T11:31:52Z</time>
      </trkpt>
      <trkpt lat="42.6094" lon="0.94722">
        <ele>2327.01</ele>
        <time>2011-03-12T11:31:58Z</time>
      </trkpt>
      <trkpt lat="42.6094" lon="0.94728">
        <ele>2327.49</ele>
        <time>2011-03-12T11:32:02Z</time>
      </trkpt>
      <trkpt lat="42.60933" lon="0.94742">
        <ele>2327.97</ele>
        <time>2011-03-12T11:32:17Z</time>
      </trkpt>
      <trkpt lat="42.60932" lon="0.94754">
        <ele>2328.93</ele>
        <time>2011-03-12T11:32:36Z</time>
      </trkpt>
      <trkpt lat="42.60933" lon="0.94764">
        <ele>2329.89</ele>
        <time>2011-03-12T11:32:49Z</time>
      </trkpt>
      <trkpt lat="42.60932" lon="0.94778">
        <ele>2329.89</ele>
        <time>2011-03-12T11:33:04Z</time>
      </trkpt>
      <trkpt lat="42.60934" lon="0.94788">
        <ele>2330.85</ele>
        <time>2011-03-12T11:33:15Z</time>
      </trkpt>
      <trkpt lat="42.60937" lon="0.94795">
        <ele>2330.37</ele>
        <time>2011-03-12T11:33:34Z</time>
      </trkpt>
      <trkpt lat="42.60938" lon="0.94797">
        <ele>2331.81</ele>
        <time>2011-03-12T11:33:48Z</time>
      </trkpt>
      <trkpt lat="42.60934" lon="0.94813">
        <ele>2335.18</ele>
        <time>2011-03-12T11:34:32Z</time>
      </trkpt>
      <trkpt lat="42.60925" lon="0.94819">
        <ele>2335.66</ele>
        <time>2011-03-12T11:34:45Z</time>
      </trkpt>
      <trkpt lat="42.60923" lon="0.9482">
        <ele>2337.1</ele>
        <time>2011-03-12T11:35:00Z</time>
      </trkpt>
      <trkpt lat="42.6093" lon="0.94829">
        <ele>2337.58</ele>
        <time>2011-03-12T11:35:24Z</time>
      </trkpt>
      <trkpt lat="42.60933" lon="0.94835">
        <ele>2338.54</ele>
        <time>2011-03-12T11:35:35Z</time>
      </trkpt>
      <trkpt lat="42.60942" lon="0.94834">
        <ele>2340.47</ele>
        <time>2011-03-12T11:35:53Z</time>
      </trkpt>
      <trkpt lat="42.60938" lon="0.94841">
        <ele>2341.91</ele>
        <time>2011-03-12T11:37:27Z</time>
      </trkpt>
      <trkpt lat="42.60938" lon="0.94841">
        <ele>2338.06</ele>
        <time>2011-03-12T11:37:36Z</time>
      </trkpt>
      <trkpt lat="42.60938" lon="0.94841">
        <ele>2341.43</ele>
        <time>2011-03-12T11:37:38Z</time>
      </trkpt>
      <trkpt lat="42.60938" lon="0.94841">
        <ele>2341.91</ele>
        <time>2011-03-12T11:37:39Z</time>
      </trkpt>
      <trkpt lat="42.60937" lon="0.94852">
        <ele>2341.43</ele>
        <time>2011-03-12T11:38:13Z</time>
      </trkpt>
      <trkpt lat="42.60946" lon="0.94858">
        <ele>2343.35</ele>
        <time>2011-03-12T11:38:25Z</time>
      </trkpt>
      <trkpt lat="42.60951" lon="0.94864">
        <ele>2344.79</ele>
        <time>2011-03-12T11:38:38Z</time>
      </trkpt>
      <trkpt lat="42.60951" lon="0.94866">
        <ele>2348.16</ele>
        <time>2011-03-12T11:39:00Z</time>
      </trkpt>
      <trkpt lat="42.60956" lon="0.9487">
        <ele>2351.52</ele>
        <time>2011-03-12T11:39:16Z</time>
      </trkpt>
      <trkpt lat="42.60957" lon="0.94872">
        <ele>2352.48</ele>
        <time>2011-03-12T11:39:18Z</time>
      </trkpt>
      <trkpt lat="42.60961" lon="0.94877">
        <ele>2354.41</ele>
        <time>2011-03-12T11:39:32Z</time>
      </trkpt>
      <trkpt lat="42.60968" lon="0.94883">
        <ele>2354.41</ele>
        <time>2011-03-12T11:39:51Z</time>
      </trkpt>
      <trkpt lat="42.60968" lon="0.94883">
        <ele>2355.37</ele>
        <time>2011-03-12T11:40:00Z</time>
      </trkpt>
      <trkpt lat="42.60967" lon="0.94892">
        <ele>2356.33</ele>
        <time>2011-03-12T11:40:47Z</time>
      </trkpt>
      <trkpt lat="42.60957" lon="0.94898">
        <ele>2358.25</ele>
        <time>2011-03-12T11:41:08Z</time>
      </trkpt>
      <trkpt lat="42.60955" lon="0.94901">
        <ele>2357.77</ele>
        <time>2011-03-12T11:41:15Z</time>
      </trkpt>
      <trkpt lat="42.60953" lon="0.94913">
        <ele>2360.17</ele>
        <time>2011-03-12T11:41:50Z</time>
      </trkpt>
      <trkpt lat="42.60954" lon="0.94915">
        <ele>2360.17</ele>
        <time>2011-03-12T11:42:09Z</time>
      </trkpt>
      <trkpt lat="42.60953" lon="0.94924">
        <ele>2359.69</ele>
        <time>2011-03-12T11:42:42Z</time>
      </trkpt>
      <trkpt lat="42.60949" lon="0.94929">
        <ele>2361.62</ele>
        <time>2011-03-12T11:43:04Z</time>
      </trkpt>
      <trkpt lat="42.60949" lon="0.94934">
        <ele>2364.5</ele>
        <time>2011-03-12T11:43:22Z</time>
      </trkpt>
      <trkpt lat="42.60949" lon="0.94936">
        <ele>2364.98</ele>
        <time>2011-03-12T11:43:32Z</time>
      </trkpt>
      <trkpt lat="42.60946" lon="0.94948">
        <ele>2367.38</ele>
        <time>2011-03-12T11:44:04Z</time>
      </trkpt>
      <trkpt lat="42.60947" lon="0.94948">
        <ele>2366.9</ele>
        <time>2011-03-12T11:44:26Z</time>
      </trkpt>
      <trkpt lat="42.60953" lon="0.94952">
        <ele>2368.35</ele>
        <time>2011-03-12T11:44:51Z</time>
      </trkpt>
      <trkpt lat="42.60955" lon="0.94956">
        <ele>2370.27</ele>
        <time>2011-03-12T11:45:08Z</time>
      </trkpt>
      <trkpt lat="42.60959" lon="0.94962">
        <ele>2372.67</ele>
        <time>2011-03-12T11:45:36Z</time>
      </trkpt>
      <trkpt lat="42.60959" lon="0.94962">
        <ele>2373.15</ele>
        <time>2011-03-12T11:46:25Z</time>
      </trkpt>
      <trkpt lat="42.60959" lon="0.94962">
        <ele>2373.63</ele>
        <time>2011-03-12T11:46:30Z</time>
      </trkpt>
      <trkpt lat="42.60962" lon="0.94971">
        <ele>2374.59</ele>
        <time>2011-03-12T11:47:19Z</time>
      </trkpt>
      <trkpt lat="42.60962" lon="0.94983">
        <ele>2376.52</ele>
        <time>2011-03-12T11:47:44Z</time>
      </trkpt>
      <trkpt lat="42.60967" lon="0.94987">
        <ele>2378.92</ele>
        <time>2011-03-12T11:48:00Z</time>
      </trkpt>
      <trkpt lat="42.60971" lon="0.94996">
        <ele>2379.4</ele>
        <time>2011-03-12T11:48:20Z</time>
      </trkpt>
      <trkpt lat="42.60976" lon="0.95005">
        <ele>2382.28</ele>
        <time>2011-03-12T11:48:36Z</time>
      </trkpt>
      <trkpt lat="42.60985" lon="0.95012">
        <ele>2384.69</ele>
        <time>2011-03-12T11:48:53Z</time>
      </trkpt>
      <trkpt lat="42.60992" lon="0.95016">
        <ele>2385.17</ele>
        <time>2011-03-12T11:49:04Z</time>
      </trkpt>
      <trkpt lat="42.60991" lon="0.95016">
        <ele>2386.13</ele>
        <time>2011-03-12T11:49:41Z</time>
      </trkpt>
      <trkpt lat="42.60997" lon="0.95021">
        <ele>2388.53</ele>
        <time>2011-03-12T11:50:25Z</time>
      </trkpt>
      <trkpt lat="42.61001" lon="0.95021">
        <ele>2389.97</ele>
        <time>2011-03-12T11:50:58Z</time>
      </trkpt>
      <trkpt lat="42.61009" lon="0.95022">
        <ele>2390.46</ele>
        <time>2011-03-12T11:51:11Z</time>
      </trkpt>
      <trkpt lat="42.61016" lon="0.95024">
        <ele>2392.38</ele>
        <time>2011-03-12T11:51:39Z</time>
      </trkpt>
      <trkpt lat="42.6102" lon="0.95027">
        <ele>2395.26</ele>
        <time>2011-03-12T11:52:16Z</time>
      </trkpt>
      <trkpt lat="42.61025" lon="0.95035">
        <ele>2398.63</ele>
        <time>2011-03-12T11:52:39Z</time>
      </trkpt>
      <trkpt lat="42.61014" lon="0.9504">
        <ele>2398.15</ele>
        <time>2011-03-12T11:53:20Z</time>
      </trkpt>
      <trkpt lat="42.61022" lon="0.95044">
        <ele>2401.51</ele>
        <time>2011-03-12T11:54:15Z</time>
      </trkpt>
      <trkpt lat="42.61025" lon="0.95047">
        <ele>2404.88</ele>
        <time>2011-03-12T11:54:44Z</time>
      </trkpt>
      <trkpt lat="42.61025" lon="0.95047">
        <ele>2406.32</ele>
        <time>2011-03-12T11:54:51Z</time>
      </trkpt>
      <trkpt lat="42.61034" lon="0.95053">
        <ele>2405.84</ele>
        <time>2011-03-12T11:55:07Z</time>
      </trkpt>
      <trkpt lat="42.6103" lon="0.95055">
        <ele>2407.76</ele>
        <time>2011-03-12T11:55:26Z</time>
      </trkpt>
      <trkpt lat="42.61025" lon="0.95059">
        <ele>2408.24</ele>
        <time>2011-03-12T11:55:40Z</time>
      </trkpt>
      <trkpt lat="42.61023" lon="0.95059">
        <ele>2412.09</ele>
        <time>2011-03-12T11:56:12Z</time>
      </trkpt>
      <trkpt lat="42.61022" lon="0.95061">
        <ele>2414.97</ele>
        <time>2011-03-12T11:57:03Z</time>
      </trkpt>
      <trkpt lat="42.61022" lon="0.95061">
        <ele>2413.05</ele>
        <time>2011-03-12T11:57:06Z</time>
      </trkpt>
      <trkpt lat="42.61028" lon="0.95067">
        <ele>2413.05</ele>
        <time>2011-03-12T11:57:56Z</time>
      </trkpt>
      <trkpt lat="42.61022" lon="0.95071">
        <ele>2415.93</ele>
        <time>2011-03-12T11:58:19Z</time>
      </trkpt>
      <trkpt lat="42.61021" lon="0.95072">
        <ele>2415.93</ele>
        <time>2011-03-12T11:58:35Z</time>
      </trkpt>
      <trkpt lat="42.61013" lon="0.95073">
        <ele>2416.41</ele>
        <time>2011-03-12T11:59:26Z</time>
      </trkpt>
      <trkpt lat="42.61012" lon="0.95073">
        <ele>2417.37</ele>
        <time>2011-03-12T11:59:34Z</time>
      </trkpt>
      <trkpt lat="42.61013" lon="0.95073">
        <ele>2417.85</ele>
        <time>2011-03-12T11:59:48Z</time>
      </trkpt>
      <trkpt lat="42.61024" lon="0.95079">
        <ele>2418.81</ele>
        <time>2011-03-12T12:00:18Z</time>
      </trkpt>
      <trkpt lat="42.61031" lon="0.95083">
        <ele>2418.81</ele>
        <time>2011-03-12T12:00:57Z</time>
      </trkpt>
      <trkpt lat="42.6103" lon="0.95085">
        <ele>2422.66</ele>
        <time>2011-03-12T12:01:11Z</time>
      </trkpt>
      <trkpt lat="42.6103" lon="0.95085">
        <ele>2422.18</ele>
        <time>2011-03-12T12:01:12Z</time>
      </trkpt>
      <trkpt lat="42.61028" lon="0.95085">
        <ele>2423.62</ele>
        <time>2011-03-12T12:01:24Z</time>
      </trkpt>
      <trkpt lat="42.61023" lon="0.95085">
        <ele>2424.58</ele>
        <time>2011-03-12T12:01:44Z</time>
      </trkpt>
      <trkpt lat="42.61029" lon="0.95089">
        <ele>2426.99</ele>
        <time>2011-03-12T12:02:29Z</time>
      </trkpt>
      <trkpt lat="42.61032" lon="0.95089">
        <ele>2429.87</ele>
        <time>2011-03-12T12:02:51Z</time>
      </trkpt>
      <trkpt lat="42.61035" lon="0.95091">
        <ele>2428.91</ele>
        <time>2011-03-12T12:03:01Z</time>
      </trkpt>
      <trkpt lat="42.61036" lon="0.95091">
        <ele>2428.43</ele>
        <time>2011-03-12T12:03:12Z</time>
      </trkpt>
      <trkpt lat="42.61035" lon="0.95093">
        <ele>2427.47</ele>
        <time>2011-03-12T12:03:25Z</time>
      </trkpt>
      <trkpt lat="42.6103" lon="0.95097">
        <ele>2430.83</ele>
        <time>2011-03-12T12:03:53Z</time>
      </trkpt>
      <trkpt lat="42.61035" lon="0.95102">
        <ele>2430.35</ele>
        <time>2011-03-12T12:04:17Z</time>
      </trkpt>
      <trkpt lat="42.61034" lon="0.95103">
        <ele>2433.23</ele>
        <time>2011-03-12T12:04:25Z</time>
      </trkpt>
      <trkpt lat="42.61028" lon="0.95106">
        <ele>2435.64</ele>
        <time>2011-03-12T12:04:55Z</time>
      </trkpt>
      <trkpt lat="42.61032" lon="0.95111">
        <ele>2436.6</ele>
        <time>2011-03-12T12:05:18Z</time>
      </trkpt>
      <trkpt lat="42.6104" lon="0.95115">
        <ele>2439.96</ele>
        <time>2011-03-12T12:05:31Z</time>
      </trkpt>
      <trkpt lat="42.6105" lon="0.95113">
        <ele>2442.37</ele>
        <time>2011-03-12T12:05:46Z</time>
      </trkpt>
      <trkpt lat="42.61059" lon="0.9511">
        <ele>2444.77</ele>
        <time>2011-03-12T12:06:02Z</time>
      </trkpt>
      <trkpt lat="42.61062" lon="0.95111">
        <ele>2444.29</ele>
        <time>2011-03-12T12:06:18Z</time>
      </trkpt>
      <trkpt lat="42.61063" lon="0.95112">
        <ele>2444.77</ele>
        <time>2011-03-12T12:06:22Z</time>
      </trkpt>
      <trkpt lat="42.61067" lon="0.95115">
        <ele>2448.62</ele>
        <time>2011-03-12T12:06:35Z</time>
      </trkpt>
      <trkpt lat="42.61067" lon="0.95122">
        <ele>2450.54</ele>
        <time>2011-03-12T12:06:42Z</time>
      </trkpt>
      <trkpt lat="42.61066" lon="0.95128">
        <ele>2449.1</ele>
        <time>2011-03-12T12:06:56Z</time>
      </trkpt>
      <trkpt lat="42.61066" lon="0.95128">
        <ele>2451.02</ele>
        <time>2011-03-12T12:07:00Z</time>
      </trkpt>
      <trkpt lat="42.61065" lon="0.95135">
        <ele>2451.02</ele>
        <time>2011-03-12T12:07:20Z</time>
      </trkpt>
      <trkpt lat="42.6106" lon="0.95136">
        <ele>2449.58</ele>
        <time>2011-03-12T12:08:14Z</time>
      </trkpt>
      <trkpt lat="42.61058" lon="0.95138">
        <ele>2451.98</ele>
        <time>2011-03-12T12:10:29Z</time>
      </trkpt>
      <trkpt lat="42.61053" lon="0.95143">
        <ele>2454.86</ele>
        <time>2011-03-12T12:10:42Z</time>
      </trkpt>
      <trkpt lat="42.61043" lon="0.95152">
        <ele>2455.82</ele>
        <time>2011-03-12T12:10:53Z</time>
      </trkpt>
      <trkpt lat="42.61038" lon="0.95162">
        <ele>2458.71</ele>
        <time>2011-03-12T12:11:06Z</time>
      </trkpt>
      <trkpt lat="42.61033" lon="0.95174">
        <ele>2460.63</ele>
        <time>2011-03-12T12:11:23Z</time>
      </trkpt>
      <trkpt lat="42.61026" lon="0.95187">
        <ele>2460.15</ele>
        <time>2011-03-12T12:11:38Z</time>
      </trkpt>
      <trkpt lat="42.61013" lon="0.95193">
        <ele>2461.11</ele>
        <time>2011-03-12T12:11:53Z</time>
      </trkpt>
      <trkpt lat="42.61006" lon="0.95199">
        <ele>2461.59</ele>
        <time>2011-03-12T12:12:03Z</time>
      </trkpt>
      <trkpt lat="42.61001" lon="0.95205">
        <ele>2464.48</ele>
        <time>2011-03-12T12:12:14Z</time>
      </trkpt>
      <trkpt lat="42.61004" lon="0.9521">
        <ele>2465.92</ele>
        <time>2011-03-12T12:12:22Z</time>
      </trkpt>
      <trkpt lat="42.61002" lon="0.95224">
        <ele>2469.76</ele>
        <time>2011-03-12T12:12:40Z</time>
      </trkpt>
      <trkpt lat="42.61001" lon="0.95231">
        <ele>2469.28</ele>
        <time>2011-03-12T12:12:53Z</time>
      </trkpt>
      <trkpt lat="42.60998" lon="0.95239">
        <ele>2472.17</ele>
        <time>2011-03-12T12:13:12Z</time>
      </trkpt>
      <trkpt lat="42.60995" lon="0.95243">
        <ele>2472.65</ele>
        <time>2011-03-12T12:13:27Z</time>
      </trkpt>
      <trkpt lat="42.60982" lon="0.9525">
        <ele>2474.57</ele>
        <time>2011-03-12T12:13:53Z</time>
      </trkpt>
      <trkpt lat="42.60982" lon="0.95251">
        <ele>2474.57</ele>
        <time>2011-03-12T12:13:54Z</time>
      </trkpt>
      <trkpt lat="42.60976" lon="0.95255">
        <ele>2471.69</ele>
        <time>2011-03-12T12:14:07Z</time>
      </trkpt>
      <trkpt lat="42.60969" lon="0.95261">
        <ele>2470.73</ele>
        <time>2011-03-12T12:14:17Z</time>
      </trkpt>
      <trkpt lat="42.60957" lon="0.95273">
        <ele>2472.17</ele>
        <time>2011-03-12T12:14:34Z</time>
      </trkpt>
      <trkpt lat="42.60952" lon="0.95284">
        <ele>2473.13</ele>
        <time>2011-03-12T12:14:48Z</time>
      </trkpt>
      <trkpt lat="42.60947" lon="0.95295">
        <ele>2475.05</ele>
        <time>2011-03-12T12:15:01Z</time>
      </trkpt>
      <trkpt lat="42.60943" lon="0.95304">
        <ele>2475.05</ele>
        <time>2011-03-12T12:15:14Z</time>
      </trkpt>
      <trkpt lat="42.60937" lon="0.95317">
        <ele>2475.05</ele>
        <time>2011-03-12T12:15:33Z</time>
      </trkpt>
      <trkpt lat="42.60933" lon="0.95324">
        <ele>2475.05</ele>
        <time>2011-03-12T12:15:40Z</time>
      </trkpt>
      <trkpt lat="42.60922" lon="0.9534">
        <ele>2475.53</ele>
        <time>2011-03-12T12:16:00Z</time>
      </trkpt>
      <trkpt lat="42.60914" lon="0.95352">
        <ele>2477.45</ele>
        <time>2011-03-12T12:16:19Z</time>
      </trkpt>
      <trkpt lat="42.6091" lon="0.95362">
        <ele>2478.42</ele>
        <time>2011-03-12T12:16:35Z</time>
      </trkpt>
      <trkpt lat="42.60907" lon="0.95369">
        <ele>2478.9</ele>
        <time>2011-03-12T12:16:46Z</time>
      </trkpt>
      <trkpt lat="42.60906" lon="0.95372">
        <ele>2479.38</ele>
        <time>2011-03-12T12:16:50Z</time>
      </trkpt>
      <trkpt lat="42.60906" lon="0.95374">
        <ele>2478.9</ele>
        <time>2011-03-12T12:16:58Z</time>
      </trkpt>
      <trkpt lat="42.60906" lon="0.95374">
        <ele>2477.94</ele>
        <time>2011-03-12T12:17:35Z</time>
      </trkpt>
      <trkpt lat="42.60906" lon="0.95374">
        <ele>2478.9</ele>
        <time>2011-03-12T12:18:08Z</time>
      </trkpt>
      <trkpt lat="42.60906" lon="0.95374">
        <ele>2480.82</ele>
        <time>2011-03-12T12:18:14Z</time>
      </trkpt>
      <trkpt lat="42.60906" lon="0.95374">
        <ele>2480.34</ele>
        <time>2011-03-12T12:19:59Z</time>
      </trkpt>
      <trkpt lat="42.60906" lon="0.95374">
        <ele>2479.38</ele>
        <time>2011-03-12T12:20:02Z</time>
      </trkpt>
      <trkpt lat="42.60906" lon="0.95373">
        <ele>2478.42</ele>
        <time>2011-03-12T12:20:31Z</time>
      </trkpt>
      <trkpt lat="42.60907" lon="0.95373">
        <ele>2473.13</ele>
        <time>2011-03-12T12:20:50Z</time>
      </trkpt>
      <trkpt lat="42.60907" lon="0.95373">
        <ele>2476.49</ele>
        <time>2011-03-12T12:20:51Z</time>
      </trkpt>
      <trkpt lat="42.60907" lon="0.95373">
        <ele>2480.34</ele>
        <time>2011-03-12T12:20:53Z</time>
      </trkpt>
      <trkpt lat="42.60906" lon="0.95373">
        <ele>2479.86</ele>
        <time>2011-03-12T12:21:00Z</time>
      </trkpt>
      <trkpt lat="42.60906" lon="0.95372">
        <ele>2480.34</ele>
        <time>2011-03-12T12:21:11Z</time>
      </trkpt>
      <trkpt lat="42.60906" lon="0.95373">
        <ele>2480.34</ele>
        <time>2011-03-12T12:23:58Z</time>
      </trkpt>
      <trkpt lat="42.60907" lon="0.95373">
        <ele>2481.78</ele>
        <time>2011-03-12T12:24:23Z</time>
      </trkpt>
      <trkpt lat="42.60907" lon="0.95373">
        <ele>2479.86</ele>
        <time>2011-03-12T12:24:46Z</time>
      </trkpt>
      <trkpt lat="42.60908" lon="0.95374">
        <ele>2473.13</ele>
        <time>2011-03-12T12:25:00Z</time>
      </trkpt>
      <trkpt lat="42.60908" lon="0.95374">
        <ele>2483.22</ele>
        <time>2011-03-12T12:25:01Z</time>
      </trkpt>
      <trkpt lat="42.60908" lon="0.95374">
        <ele>2479.38</ele>
        <time>2011-03-12T12:25:04Z</time>
      </trkpt>
      <trkpt lat="42.60908" lon="0.95374">
        <ele>2479.38</ele>
        <time>2011-03-12T12:25:05Z</time>
      </trkpt>
      <trkpt lat="42.60908" lon="0.95374">
        <ele>2481.3</ele>
        <time>2011-03-12T12:26:40Z</time>
      </trkpt>
      <trkpt lat="42.60909" lon="0.95374">
        <ele>2478.42</ele>
        <time>2011-03-12T12:27:44Z</time>
      </trkpt>
      <trkpt lat="42.60909" lon="0.95373">
        <ele>2478.9</ele>
        <time>2011-03-12T12:28:15Z</time>
      </trkpt>
      <trkpt lat="42.60909" lon="0.95373">
        <ele>2480.34</ele>
        <time>2011-03-12T12:28:18Z</time>
      </trkpt>
      <trkpt lat="42.60909" lon="0.95372">
        <ele>2475.53</ele>
        <time>2011-03-12T12:29:03Z</time>
      </trkpt>
      <trkpt lat="42.60909" lon="0.95372">
        <ele>2481.78</ele>
        <time>2011-03-12T12:29:04Z</time>
      </trkpt>
      <trkpt lat="42.60909" lon="0.95372">
        <ele>2482.26</ele>
        <time>2011-03-12T12:29:08Z</time>
      </trkpt>
      <trkpt lat="42.60909" lon="0.95372">
        <ele>2474.57</ele>
        <time>2011-03-12T12:29:23Z</time>
      </trkpt>
      <trkpt lat="42.60909" lon="0.95372">
        <ele>2483.7</ele>
        <time>2011-03-12T12:29:29Z</time>
      </trkpt>
      <trkpt lat="42.60909" lon="0.95372">
        <ele>2483.7</ele>
        <time>2011-03-12T12:29:30Z</time>
      </trkpt>
      <trkpt lat="42.60909" lon="0.95372">
        <ele>2479.38</ele>
        <time>2011-03-12T12:29:32Z</time>
      </trkpt>
      <trkpt lat="42.60908" lon="0.95372">
        <ele>2482.74</ele>
        <time>2011-03-12T12:29:35Z</time>
      </trkpt>
      <trkpt lat="42.60908" lon="0.95372">
        <ele>2477.94</ele>
        <time>2011-03-12T12:29:39Z</time>
      </trkpt>
      <trkpt lat="42.60908" lon="0.95372">
        <ele>2481.3</ele>
        <time>2011-03-12T12:29:40Z</time>
      </trkpt>
      <trkpt lat="42.60908" lon="0.95372">
        <ele>2481.78</ele>
        <time>2011-03-12T12:30:12Z</time>
      </trkpt>
      <trkpt lat="42.60908" lon="0.95371">
        <ele>2481.78</ele>
        <time>2011-03-12T12:31:01Z</time>
      </trkpt>
      <trkpt lat="42.60908" lon="0.95371">
        <ele>2480.82</ele>
        <time>2011-03-12T12:31:05Z</time>
      </trkpt>
      <trkpt lat="42.60909" lon="0.95371">
        <ele>2479.86</ele>
        <time>2011-03-12T12:32:53Z</time>
      </trkpt>
      <trkpt lat="42.60909" lon="0.95371">
        <ele>2481.3</ele>
        <time>2011-03-12T12:32:56Z</time>
      </trkpt>
      <trkpt lat="42.60909" lon="0.95372">
        <ele>2480.34</ele>
        <time>2011-03-12T12:33:51Z</time>
      </trkpt>
      <trkpt lat="42.60902" lon="0.95374">
        <ele>2481.78</ele>
        <time>2011-03-12T12:34:46Z</time>
      </trkpt>
      <trkpt lat="42.60893" lon="0.95375">
        <ele>2477.94</ele>
        <time>2011-03-12T12:35:15Z</time>
      </trkpt>
      <trkpt lat="42.60892" lon="0.95376">
        <ele>2487.07</ele>
        <time>2011-03-12T12:35:16Z</time>
      </trkpt>
      <trkpt lat="42.60892" lon="0.95375">
        <ele>2483.7</ele>
        <time>2011-03-12T12:35:17Z</time>
      </trkpt>
      <trkpt lat="42.60891" lon="0.95374">
        <ele>2479.86</ele>
        <time>2011-03-12T12:35:22Z</time>
      </trkpt>
      <trkpt lat="42.60891" lon="0.95375">
        <ele>2481.3</ele>
        <time>2011-03-12T12:35:23Z</time>
      </trkpt>
      <trkpt lat="42.60884" lon="0.95378">
        <ele>2484.66</ele>
        <time>2011-03-12T12:35:37Z</time>
      </trkpt>
      <trkpt lat="42.6087" lon="0.95395">
        <ele>2487.55</ele>
        <time>2011-03-12T12:36:22Z</time>
      </trkpt>
      <trkpt lat="42.60856" lon="0.95404">
        <ele>2490.91</ele>
        <time>2011-03-12T12:37:24Z</time>
      </trkpt>
      <trkpt lat="42.60836" lon="0.95415">
        <ele>2493.8</ele>
        <time>2011-03-12T12:38:06Z</time>
      </trkpt>
      <trkpt lat="42.60821" lon="0.95424">
        <ele>2497.16</ele>
        <time>2011-03-12T12:38:42Z</time>
      </trkpt>
      <trkpt lat="42.60813" lon="0.95432">
        <ele>2497.16</ele>
        <time>2011-03-12T12:39:02Z</time>
      </trkpt>
      <trkpt lat="42.60793" lon="0.95449">
        <ele>2500.53</ele>
        <time>2011-03-12T12:39:41Z</time>
      </trkpt>
      <trkpt lat="42.60791" lon="0.95451">
        <ele>2498.6</ele>
        <time>2011-03-12T12:39:44Z</time>
      </trkpt>
      <trkpt lat="42.60776" lon="0.95467">
        <ele>2501.97</ele>
        <time>2011-03-12T12:40:19Z</time>
      </trkpt>
      <trkpt lat="42.60753" lon="0.95486">
        <ele>2505.33</ele>
        <time>2011-03-12T12:41:18Z</time>
      </trkpt>
      <trkpt lat="42.60741" lon="0.95487">
        <ele>2507.26</ele>
        <time>2011-03-12T12:41:51Z</time>
      </trkpt>
      <trkpt lat="42.60737" lon="0.955">
        <ele>2506.77</ele>
        <time>2011-03-12T12:42:05Z</time>
      </trkpt>
      <trkpt lat="42.60735" lon="0.9551">
        <ele>2509.66</ele>
        <time>2011-03-12T12:42:22Z</time>
      </trkpt>
      <trkpt lat="42.60726" lon="0.95513">
        <ele>2511.58</ele>
        <time>2011-03-12T12:42:52Z</time>
      </trkpt>
      <trkpt lat="42.60718" lon="0.95512">
        <ele>2513.98</ele>
        <time>2011-03-12T12:43:22Z</time>
      </trkpt>
      <trkpt lat="42.60714" lon="0.95508">
        <ele>2513.98</ele>
        <time>2011-03-12T12:43:32Z</time>
      </trkpt>
      <trkpt lat="42.60711" lon="0.95508">
        <ele>2516.87</ele>
        <time>2011-03-12T12:43:42Z</time>
      </trkpt>
      <trkpt lat="42.60707" lon="0.95515">
        <ele>2518.79</ele>
        <time>2011-03-12T12:44:09Z</time>
      </trkpt>
      <trkpt lat="42.60707" lon="0.95515">
        <ele>2521.68</ele>
        <time>2011-03-12T12:44:17Z</time>
      </trkpt>
      <trkpt lat="42.60707" lon="0.95515">
        <ele>2519.75</ele>
        <time>2011-03-12T12:44:19Z</time>
      </trkpt>
      <trkpt lat="42.60709" lon="0.95524">
        <ele>2522.64</ele>
        <time>2011-03-12T12:44:40Z</time>
      </trkpt>
      <trkpt lat="42.60698" lon="0.9553">
        <ele>2525.52</ele>
        <time>2011-03-12T12:45:08Z</time>
      </trkpt>
      <trkpt lat="42.60689" lon="0.95537">
        <ele>2527.44</ele>
        <time>2011-03-12T12:45:42Z</time>
      </trkpt>
      <trkpt lat="42.60682" lon="0.95535">
        <ele>2528.89</ele>
        <time>2011-03-12T12:46:23Z</time>
      </trkpt>
      <trkpt lat="42.6068" lon="0.95536">
        <ele>2531.77</ele>
        <time>2011-03-12T12:46:41Z</time>
      </trkpt>
      <trkpt lat="42.60682" lon="0.95546">
        <ele>2532.73</ele>
        <time>2011-03-12T12:46:55Z</time>
      </trkpt>
      <trkpt lat="42.60688" lon="0.95552">
        <ele>2534.17</ele>
        <time>2011-03-12T12:47:28Z</time>
      </trkpt>
      <trkpt lat="42.60674" lon="0.95557">
        <ele>2537.54</ele>
        <time>2011-03-12T12:47:49Z</time>
      </trkpt>
      <trkpt lat="42.60668" lon="0.95557">
        <ele>2538.02</ele>
        <time>2011-03-12T12:48:10Z</time>
      </trkpt>
      <trkpt lat="42.6066" lon="0.95553">
        <ele>2541.38</ele>
        <time>2011-03-12T12:48:42Z</time>
      </trkpt>
      <trkpt lat="42.60656" lon="0.95552">
        <ele>2540.9</ele>
        <time>2011-03-12T12:49:12Z</time>
      </trkpt>
      <trkpt lat="42.60657" lon="0.95558">
        <ele>2543.79</ele>
        <time>2011-03-12T12:49:28Z</time>
      </trkpt>
      <trkpt lat="42.6066" lon="0.95564">
        <ele>2545.23</ele>
        <time>2011-03-12T12:49:43Z</time>
      </trkpt>
      <trkpt lat="42.60662" lon="0.95569">
        <ele>2545.23</ele>
        <time>2011-03-12T12:50:05Z</time>
      </trkpt>
      <trkpt lat="42.60664" lon="0.95571">
        <ele>2548.59</ele>
        <time>2011-03-12T12:50:30Z</time>
      </trkpt>
      <trkpt lat="42.60667" lon="0.95576">
        <ele>2547.63</ele>
        <time>2011-03-12T12:50:43Z</time>
      </trkpt>
      <trkpt lat="42.6066" lon="0.95581">
        <ele>2550.51</ele>
        <time>2011-03-12T12:50:54Z</time>
      </trkpt>
      <trkpt lat="42.60651" lon="0.95583">
        <ele>2551.48</ele>
        <time>2011-03-12T12:51:13Z</time>
      </trkpt>
      <trkpt lat="42.60649" lon="0.95582">
        <ele>2552.44</ele>
        <time>2011-03-12T12:51:29Z</time>
      </trkpt>
      <trkpt lat="42.60646" lon="0.9558">
        <ele>2553.88</ele>
        <time>2011-03-12T12:51:42Z</time>
      </trkpt>
      <trkpt lat="42.60643" lon="0.95578">
        <ele>2554.36</ele>
        <time>2011-03-12T12:52:04Z</time>
      </trkpt>
      <trkpt lat="42.60646" lon="0.9558">
        <ele>2554.84</ele>
        <time>2011-03-12T12:52:06Z</time>
      </trkpt>
      <trkpt lat="42.60648" lon="0.95585">
        <ele>2557.24</ele>
        <time>2011-03-12T12:52:17Z</time>
      </trkpt>
      <trkpt lat="42.60646" lon="0.9559">
        <ele>2558.21</ele>
        <time>2011-03-12T12:52:32Z</time>
      </trkpt>
      <trkpt lat="42.60645" lon="0.95593">
        <ele>2560.13</ele>
        <time>2011-03-12T12:52:41Z</time>
      </trkpt>
      <trkpt lat="42.60642" lon="0.95599">
        <ele>2560.61</ele>
        <time>2011-03-12T12:52:54Z</time>
      </trkpt>
      <trkpt lat="42.60638" lon="0.95608">
        <ele>2561.57</ele>
        <time>2011-03-12T12:53:10Z</time>
      </trkpt>
      <trkpt lat="42.60633" lon="0.95611">
        <ele>2564.45</ele>
        <time>2011-03-12T12:53:22Z</time>
      </trkpt>
      <trkpt lat="42.60632" lon="0.95612">
        <ele>2565.42</ele>
        <time>2011-03-12T12:53:32Z</time>
      </trkpt>
      <trkpt lat="42.60625" lon="0.95617">
        <ele>2567.82</ele>
        <time>2011-03-12T12:53:49Z</time>
      </trkpt>
      <trkpt lat="42.60621" lon="0.95621">
        <ele>2567.34</ele>
        <time>2011-03-12T12:54:06Z</time>
      </trkpt>
      <trkpt lat="42.6062" lon="0.95622">
        <ele>2567.34</ele>
        <time>2011-03-12T12:54:14Z</time>
      </trkpt>
      <trkpt lat="42.60618" lon="0.95622">
        <ele>2570.22</ele>
        <time>2011-03-12T12:54:24Z</time>
      </trkpt>
      <trkpt lat="42.60618" lon="0.95623">
        <ele>2569.26</ele>
        <time>2011-03-12T12:54:28Z</time>
      </trkpt>
      <trkpt lat="42.60607" lon="0.95631">
        <ele>2570.22</ele>
        <time>2011-03-12T12:54:43Z</time>
      </trkpt>
      <trkpt lat="42.60599" lon="0.95639">
        <ele>2570.7</ele>
        <time>2011-03-12T12:54:56Z</time>
      </trkpt>
      <trkpt lat="42.60588" lon="0.95646">
        <ele>2572.63</ele>
        <time>2011-03-12T12:55:12Z</time>
      </trkpt>
      <trkpt lat="42.60582" lon="0.95652">
        <ele>2573.59</ele>
        <time>2011-03-12T12:55:27Z</time>
      </trkpt>
      <trkpt lat="42.60575" lon="0.95655">
        <ele>2574.07</ele>
        <time>2011-03-12T12:55:42Z</time>
      </trkpt>
      <trkpt lat="42.6057" lon="0.9566">
        <ele>2575.51</ele>
        <time>2011-03-12T12:55:57Z</time>
      </trkpt>
      <trkpt lat="42.60564" lon="0.95669">
        <ele>2575.51</ele>
        <time>2011-03-12T12:56:12Z</time>
      </trkpt>
      <trkpt lat="42.60556" lon="0.95672">
        <ele>2575.99</ele>
        <time>2011-03-12T12:56:28Z</time>
      </trkpt>
      <trkpt lat="42.60552" lon="0.9568">
        <ele>2576.47</ele>
        <time>2011-03-12T12:56:43Z</time>
      </trkpt>
      <trkpt lat="42.60546" lon="0.95681">
        <ele>2576.95</ele>
        <time>2011-03-12T12:56:57Z</time>
      </trkpt>
      <trkpt lat="42.6054" lon="0.95685">
        <ele>2578.39</ele>
        <time>2011-03-12T12:57:11Z</time>
      </trkpt>
      <trkpt lat="42.60534" lon="0.95693">
        <ele>2579.35</ele>
        <time>2011-03-12T12:57:25Z</time>
      </trkpt>
      <trkpt lat="42.60533" lon="0.95693">
        <ele>2578.39</ele>
        <time>2011-03-12T12:57:27Z</time>
      </trkpt>
      <trkpt lat="42.60517" lon="0.95707">
        <ele>2578.39</ele>
        <time>2011-03-12T12:57:42Z</time>
      </trkpt>
      <trkpt lat="42.60505" lon="0.95722">
        <ele>2577.43</ele>
        <time>2011-03-12T12:57:55Z</time>
      </trkpt>
      <trkpt lat="42.60504" lon="0.95724">
        <ele>2577.43</ele>
        <time>2011-03-12T12:57:57Z</time>
      </trkpt>
      <trkpt lat="42.60493" lon="0.95738">
        <ele>2575.51</ele>
        <time>2011-03-12T12:58:11Z</time>
      </trkpt>
      <trkpt lat="42.60486" lon="0.9575">
        <ele>2575.51</ele>
        <time>2011-03-12T12:58:24Z</time>
      </trkpt>
      <trkpt lat="42.60482" lon="0.95762">
        <ele>2575.51</ele>
        <time>2011-03-12T12:58:38Z</time>
      </trkpt>
      <trkpt lat="42.60482" lon="0.95761">
        <ele>2575.99</ele>
        <time>2011-03-12T12:59:06Z</time>
      </trkpt>
      <trkpt lat="42.60482" lon="0.95762">
        <ele>2575.99</ele>
        <time>2011-03-12T12:59:57Z</time>
      </trkpt>
      <trkpt lat="42.60482" lon="0.95762">
        <ele>2579.84</ele>
        <time>2011-03-12T13:01:00Z</time>
      </trkpt>
      <trkpt lat="42.60482" lon="0.95762">
        <ele>2576.47</ele>
        <time>2011-03-12T13:01:01Z</time>
      </trkpt>
      <trkpt lat="42.60482" lon="0.95762">
        <ele>2581.76</ele>
        <time>2011-03-12T13:01:04Z</time>
      </trkpt>
      <trkpt lat="42.60482" lon="0.95762">
        <ele>2578.39</ele>
        <time>2011-03-12T13:01:05Z</time>
      </trkpt>
      <trkpt lat="42.60482" lon="0.95762">
        <ele>2575.99</ele>
        <time>2011-03-12T13:01:07Z</time>
      </trkpt>
      <trkpt lat="42.60482" lon="0.95762">
        <ele>2575.99</ele>
        <time>2011-03-12T13:01:35Z</time>
      </trkpt>
      <trkpt lat="42.60482" lon="0.95762">
        <ele>2575.99</ele>
        <time>2011-03-12T13:01:47Z</time>
      </trkpt>
      <trkpt lat="42.60483" lon="0.9576">
        <ele>2575.99</ele>
        <time>2011-03-12T13:01:51Z</time>
      </trkpt>
      <trkpt lat="42.60483" lon="0.9576">
        <ele>2577.43</ele>
        <time>2011-03-12T13:01:58Z</time>
      </trkpt>
      <trkpt lat="42.60483" lon="0.9576">
        <ele>2583.68</ele>
        <time>2011-03-12T13:01:59Z</time>
      </trkpt>
      <trkpt lat="42.60483" lon="0.9576">
        <ele>2577.43</ele>
        <time>2011-03-12T13:02:00Z</time>
      </trkpt>
      <trkpt lat="42.60483" lon="0.95759">
        <ele>2575.99</ele>
        <time>2011-03-12T13:02:18Z</time>
      </trkpt>
      <trkpt lat="42.60483" lon="0.95759">
        <ele>2576.47</ele>
        <time>2011-03-12T13:02:49Z</time>
      </trkpt>
      <trkpt lat="42.60485" lon="0.95758">
        <ele>2575.51</ele>
        <time>2011-03-12T13:06:10Z</time>
      </trkpt>
      <trkpt lat="42.60494" lon="0.95769">
        <ele>2574.55</ele>
        <time>2011-03-12T13:06:31Z</time>
      </trkpt>
      <trkpt lat="42.60502" lon="0.95782">
        <ele>2574.55</ele>
        <time>2011-03-12T13:06:49Z</time>
      </trkpt>
      <trkpt lat="42.60509" lon="0.95794">
        <ele>2573.11</ele>
        <time>2011-03-12T13:07:07Z</time>
      </trkpt>
      <trkpt lat="42.60516" lon="0.95804">
        <ele>2572.14</ele>
        <time>2011-03-12T13:07:21Z</time>
      </trkpt>
      <trkpt lat="42.60524" lon="0.95814">
        <ele>2572.63</ele>
        <time>2011-03-12T13:07:38Z</time>
      </trkpt>
      <trkpt lat="42.60531" lon="0.95823">
        <ele>2571.66</ele>
        <time>2011-03-12T13:07:52Z</time>
      </trkpt>
      <trkpt lat="42.60544" lon="0.95827">
        <ele>2569.26</ele>
        <time>2011-03-12T13:08:08Z</time>
      </trkpt>
      <trkpt lat="42.60554" lon="0.95826">
        <ele>2568.78</ele>
        <time>2011-03-12T13:08:23Z</time>
      </trkpt>
      <trkpt lat="42.6056" lon="0.95826">
        <ele>2568.78</ele>
        <time>2011-03-12T13:08:40Z</time>
      </trkpt>
      <trkpt lat="42.60564" lon="0.9583">
        <ele>2569.26</ele>
        <time>2011-03-12T13:08:54Z</time>
      </trkpt>
      <trkpt lat="42.60562" lon="0.95839">
        <ele>2564.93</ele>
        <time>2011-03-12T13:09:02Z</time>
      </trkpt>
      <trkpt lat="42.60562" lon="0.95841">
        <ele>2565.42</ele>
        <time>2011-03-12T13:09:03Z</time>
      </trkpt>
      <trkpt lat="42.60566" lon="0.9585">
        <ele>2563.49</ele>
        <time>2011-03-12T13:09:17Z</time>
      </trkpt>
      <trkpt lat="42.60569" lon="0.95855">
        <ele>2563.01</ele>
        <time>2011-03-12T13:09:52Z</time>
      </trkpt>
      <trkpt lat="42.60568" lon="0.95862">
        <ele>2563.01</ele>
        <time>2011-03-12T13:10:01Z</time>
      </trkpt>
      <trkpt lat="42.60569" lon="0.95866">
        <ele>2562.53</ele>
        <time>2011-03-12T13:10:05Z</time>
      </trkpt>
      <trkpt lat="42.60573" lon="0.95881">
        <ele>2558.69</ele>
        <time>2011-03-12T13:10:22Z</time>
      </trkpt>
      <trkpt lat="42.60578" lon="0.95896">
        <ele>2555.8</ele>
        <time>2011-03-12T13:10:38Z</time>
      </trkpt>
      <trkpt lat="42.60583" lon="0.95909">
        <ele>2552.44</ele>
        <time>2011-03-12T13:10:50Z</time>
      </trkpt>
      <trkpt lat="42.60588" lon="0.95919">
        <ele>2549.07</ele>
        <time>2011-03-12T13:11:02Z</time>
      </trkpt>
      <trkpt lat="42.60591" lon="0.95921">
        <ele>2547.63</ele>
        <time>2011-03-12T13:11:11Z</time>
      </trkpt>
      <trkpt lat="42.60604" lon="0.95921">
        <ele>2544.27</ele>
        <time>2011-03-12T13:11:27Z</time>
      </trkpt>
      <trkpt lat="42.60611" lon="0.95922">
        <ele>2543.31</ele>
        <time>2011-03-12T13:11:36Z</time>
      </trkpt>
      <trkpt lat="42.60612" lon="0.95926">
        <ele>2542.82</ele>
        <time>2011-03-12T13:11:40Z</time>
      </trkpt>
      <trkpt lat="42.60618" lon="0.95939">
        <ele>2538.98</ele>
        <time>2011-03-12T13:11:47Z</time>
      </trkpt>
      <trkpt lat="42.60618" lon="0.9594">
        <ele>2538.98</ele>
        <time>2011-03-12T13:11:48Z</time>
      </trkpt>
      <trkpt lat="42.6062" lon="0.95946">
        <ele>2536.58</ele>
        <time>2011-03-12T13:11:59Z</time>
      </trkpt>
      <trkpt lat="42.6062" lon="0.95947">
        <ele>2538.02</ele>
        <time>2011-03-12T13:12:18Z</time>
      </trkpt>
      <trkpt lat="42.60621" lon="0.95952">
        <ele>2536.58</ele>
        <time>2011-03-12T13:12:22Z</time>
      </trkpt>
      <trkpt lat="42.60626" lon="0.95969">
        <ele>2533.69</ele>
        <time>2011-03-12T13:12:32Z</time>
      </trkpt>
      <trkpt lat="42.60632" lon="0.95978">
        <ele>2530.81</ele>
        <time>2011-03-12T13:12:43Z</time>
      </trkpt>
      <trkpt lat="42.60634" lon="0.95987">
        <ele>2529.85</ele>
        <time>2011-03-12T13:12:49Z</time>
      </trkpt>
      <trkpt lat="42.60635" lon="0.95995">
        <ele>2527.92</ele>
        <time>2011-03-12T13:12:53Z</time>
      </trkpt>
      <trkpt lat="42.60639" lon="0.96005">
        <ele>2524.56</ele>
        <time>2011-03-12T13:13:04Z</time>
      </trkpt>
      <trkpt lat="42.60642" lon="0.96015">
        <ele>2521.19</ele>
        <time>2011-03-12T13:13:12Z</time>
      </trkpt>
      <trkpt lat="42.60644" lon="0.96018">
        <ele>2520.71</ele>
        <time>2011-03-12T13:13:15Z</time>
      </trkpt>
      <trkpt lat="42.60645" lon="0.96021">
        <ele>2519.27</ele>
        <time>2011-03-12T13:13:18Z</time>
      </trkpt>
      <trkpt lat="42.60652" lon="0.96034">
        <ele>2517.35</ele>
        <time>2011-03-12T13:13:32Z</time>
      </trkpt>
      <trkpt lat="42.60653" lon="0.96035">
        <ele>2517.35</ele>
        <time>2011-03-12T13:13:33Z</time>
      </trkpt>
      <trkpt lat="42.60657" lon="0.96039">
        <ele>2516.87</ele>
        <time>2011-03-12T13:13:45Z</time>
      </trkpt>
      <trkpt lat="42.60663" lon="0.9605">
        <ele>2516.39</ele>
        <time>2011-03-12T13:14:43Z</time>
      </trkpt>
      <trkpt lat="42.60666" lon="0.96051">
        <ele>2516.39</ele>
        <time>2011-03-12T13:14:46Z</time>
      </trkpt>
      <trkpt lat="42.60681" lon="0.96054">
        <ele>2516.39</ele>
        <time>2011-03-12T13:15:02Z</time>
      </trkpt>
      <trkpt lat="42.60696" lon="0.96058">
        <ele>2516.39</ele>
        <time>2011-03-12T13:15:19Z</time>
      </trkpt>
      <trkpt lat="42.60713" lon="0.96066">
        <ele>2514.47</ele>
        <time>2011-03-12T13:15:38Z</time>
      </trkpt>
      <trkpt lat="42.60718" lon="0.96072">
        <ele>2513.02</ele>
        <time>2011-03-12T13:15:52Z</time>
      </trkpt>
      <trkpt lat="42.6073" lon="0.96082">
        <ele>2511.1</ele>
        <time>2011-03-12T13:16:07Z</time>
      </trkpt>
      <trkpt lat="42.60743" lon="0.96087">
        <ele>2508.7</ele>
        <time>2011-03-12T13:16:22Z</time>
      </trkpt>
      <trkpt lat="42.60744" lon="0.96088">
        <ele>2509.18</ele>
        <time>2011-03-12T13:16:24Z</time>
      </trkpt>
      <trkpt lat="42.60758" lon="0.96105">
        <ele>2507.74</ele>
        <time>2011-03-12T13:16:45Z</time>
      </trkpt>
      <trkpt lat="42.60766" lon="0.96115">
        <ele>2507.74</ele>
        <time>2011-03-12T13:16:58Z</time>
      </trkpt>
      <trkpt lat="42.6078" lon="0.96123">
        <ele>2506.77</ele>
        <time>2011-03-12T13:17:16Z</time>
      </trkpt>
      <trkpt lat="42.60789" lon="0.96131">
        <ele>2506.77</ele>
        <time>2011-03-12T13:17:30Z</time>
      </trkpt>
      <trkpt lat="42.60798" lon="0.96145">
        <ele>2505.33</ele>
        <time>2011-03-12T13:17:48Z</time>
      </trkpt>
      <trkpt lat="42.60806" lon="0.96153">
        <ele>2503.89</ele>
        <time>2011-03-12T13:18:03Z</time>
      </trkpt>
      <trkpt lat="42.60821" lon="0.96159">
        <ele>2502.93</ele>
        <time>2011-03-12T13:18:18Z</time>
      </trkpt>
      <trkpt lat="42.60835" lon="0.96163">
        <ele>2501.49</ele>
        <time>2011-03-12T13:18:34Z</time>
      </trkpt>
      <trkpt lat="42.60841" lon="0.96165">
        <ele>2501.01</ele>
        <time>2011-03-12T13:18:51Z</time>
      </trkpt>
      <trkpt lat="42.60848" lon="0.9617">
        <ele>2500.05</ele>
        <time>2011-03-12T13:19:03Z</time>
      </trkpt>
      <trkpt lat="42.6085" lon="0.96175">
        <ele>2499.57</ele>
        <time>2011-03-12T13:19:20Z</time>
      </trkpt>
      <trkpt lat="42.6085" lon="0.96175">
        <ele>2491.87</ele>
        <time>2011-03-12T13:19:24Z</time>
      </trkpt>
      <trkpt lat="42.6085" lon="0.96175">
        <ele>2498.12</ele>
        <time>2011-03-12T13:19:25Z</time>
      </trkpt>
      <trkpt lat="42.6085" lon="0.96175">
        <ele>2491.87</ele>
        <time>2011-03-12T13:19:26Z</time>
      </trkpt>
      <trkpt lat="42.6085" lon="0.96175">
        <ele>2499.57</ele>
        <time>2011-03-12T13:19:27Z</time>
      </trkpt>
      <trkpt lat="42.6085" lon="0.96175">
        <ele>2499.08</ele>
        <time>2011-03-12T13:19:35Z</time>
      </trkpt>
      <trkpt lat="42.6085" lon="0.96175">
        <ele>2494.28</ele>
        <time>2011-03-12T13:19:38Z</time>
      </trkpt>
      <trkpt lat="42.6085" lon="0.96175">
        <ele>2498.6</ele>
        <time>2011-03-12T13:19:39Z</time>
      </trkpt>
      <trkpt lat="42.6085" lon="0.96175">
        <ele>2500.53</ele>
        <time>2011-03-12T13:19:44Z</time>
      </trkpt>
      <trkpt lat="42.6085" lon="0.96175">
        <ele>2497.64</ele>
        <time>2011-03-12T13:19:50Z</time>
      </trkpt>
      <trkpt lat="42.6085" lon="0.96174">
        <ele>2499.08</ele>
        <time>2011-03-12T13:19:55Z</time>
      </trkpt>
      <trkpt lat="42.6085" lon="0.96174">
        <ele>2498.6</ele>
        <time>2011-03-12T13:22:18Z</time>
      </trkpt>
      <trkpt lat="42.60851" lon="0.96174">
        <ele>2499.08</ele>
        <time>2011-03-12T13:23:15Z</time>
      </trkpt>
      <trkpt lat="42.60851" lon="0.96174">
        <ele>2499.08</ele>
        <time>2011-03-12T13:23:22Z</time>
      </trkpt>
      <trkpt lat="42.6085" lon="0.96175">
        <ele>2497.64</ele>
        <time>2011-03-12T13:24:36Z</time>
      </trkpt>
      <trkpt lat="42.6085" lon="0.96175">
        <ele>2498.12</ele>
        <time>2011-03-12T13:25:05Z</time>
      </trkpt>
      <trkpt lat="42.6085" lon="0.96174">
        <ele>2497.64</ele>
        <time>2011-03-12T13:25:57Z</time>
      </trkpt>
      <trkpt lat="42.6085" lon="0.96175">
        <ele>2498.12</ele>
        <time>2011-03-12T13:27:20Z</time>
      </trkpt>
      <trkpt lat="42.6085" lon="0.96175">
        <ele>2497.64</ele>
        <time>2011-03-12T13:27:42Z</time>
      </trkpt>
      <trkpt lat="42.60855" lon="0.96171">
        <ele>2495.24</ele>
        <time>2011-03-12T13:27:55Z</time>
      </trkpt>
      <trkpt lat="42.60862" lon="0.96166">
        <ele>2493.8</ele>
        <time>2011-03-12T13:28:07Z</time>
      </trkpt>
      <trkpt lat="42.60864" lon="0.96165">
        <ele>2492.36</ele>
        <time>2011-03-12T13:28:09Z</time>
      </trkpt>
      <trkpt lat="42.60876" lon="0.96163">
        <ele>2488.99</ele>
        <time>2011-03-12T13:28:16Z</time>
      </trkpt>
      <trkpt lat="42.60881" lon="0.96164">
        <ele>2487.55</ele>
        <time>2011-03-12T13:28:18Z</time>
      </trkpt>
      <trkpt lat="42.60891" lon="0.96163">
        <ele>2483.7</ele>
        <time>2011-03-12T13:28:24Z</time>
      </trkpt>
      <trkpt lat="42.60892" lon="0.96162">
        <ele>2482.74</ele>
        <time>2011-03-12T13:28:32Z</time>
      </trkpt>
      <trkpt lat="42.60896" lon="0.96168">
        <ele>2480.82</ele>
        <time>2011-03-12T13:28:42Z</time>
      </trkpt>
      <trkpt lat="42.60896" lon="0.96168">
        <ele>2479.38</ele>
        <time>2011-03-12T13:28:47Z</time>
      </trkpt>
      <trkpt lat="42.60896" lon="0.96168">
        <ele>2481.78</ele>
        <time>2011-03-12T13:28:49Z</time>
      </trkpt>
      <trkpt lat="42.60897" lon="0.96178">
        <ele>2478.42</ele>
        <time>2011-03-12T13:29:06Z</time>
      </trkpt>
      <trkpt lat="42.60897" lon="0.96179">
        <ele>2477.94</ele>
        <time>2011-03-12T13:29:07Z</time>
      </trkpt>
      <trkpt lat="42.60899" lon="0.96182">
        <ele>2476.97</ele>
        <time>2011-03-12T13:29:14Z</time>
      </trkpt>
      <trkpt lat="42.60907" lon="0.96187">
        <ele>2475.05</ele>
        <time>2011-03-12T13:29:22Z</time>
      </trkpt>
      <trkpt lat="42.60917" lon="0.96188">
        <ele>2472.17</ele>
        <time>2011-03-12T13:29:29Z</time>
      </trkpt>
      <trkpt lat="42.60919" lon="0.96188">
        <ele>2471.69</ele>
        <time>2011-03-12T13:29:30Z</time>
      </trkpt>
      <trkpt lat="42.60929" lon="0.96188">
        <ele>2469.28</ele>
        <time>2011-03-12T13:29:35Z</time>
      </trkpt>
      <trkpt lat="42.60934" lon="0.96189">
        <ele>2467.36</ele>
        <time>2011-03-12T13:29:38Z</time>
      </trkpt>
      <trkpt lat="42.60953" lon="0.9618">
        <ele>2466.4</ele>
        <time>2011-03-12T13:29:53Z</time>
      </trkpt>
      <trkpt lat="42.60963" lon="0.96167">
        <ele>2463.04</ele>
        <time>2011-03-12T13:29:59Z</time>
      </trkpt>
      <trkpt lat="42.60974" lon="0.96146">
        <ele>2460.15</ele>
        <time>2011-03-12T13:30:10Z</time>
      </trkpt>
      <trkpt lat="42.60975" lon="0.96145">
        <ele>2460.15</ele>
        <time>2011-03-12T13:30:11Z</time>
      </trkpt>
      <trkpt lat="42.60979" lon="0.96137">
        <ele>2457.75</ele>
        <time>2011-03-12T13:30:26Z</time>
      </trkpt>
      <trkpt lat="42.60983" lon="0.96122">
        <ele>2455.34</ele>
        <time>2011-03-12T13:30:37Z</time>
      </trkpt>
      <trkpt lat="42.60987" lon="0.96112">
        <ele>2453.9</ele>
        <time>2011-03-12T13:30:39Z</time>
      </trkpt>
      <trkpt lat="42.60991" lon="0.96101">
        <ele>2447.17</ele>
        <time>2011-03-12T13:30:41Z</time>
      </trkpt>
      <trkpt lat="42.60995" lon="0.96093">
        <ele>2444.77</ele>
        <time>2011-03-12T13:30:43Z</time>
      </trkpt>
      <trkpt lat="42.60998" lon="0.96088">
        <ele>2443.81</ele>
        <time>2011-03-12T13:30:48Z</time>
      </trkpt>
      <trkpt lat="42.61007" lon="0.96084">
        <ele>2440.44</ele>
        <time>2011-03-12T13:30:54Z</time>
      </trkpt>
      <trkpt lat="42.6101" lon="0.96083">
        <ele>2440.44</ele>
        <time>2011-03-12T13:30:55Z</time>
      </trkpt>
      <trkpt lat="42.61013" lon="0.96081">
        <ele>2437.08</ele>
        <time>2011-03-12T13:30:56Z</time>
      </trkpt>
      <trkpt lat="42.61016" lon="0.96079">
        <ele>2435.64</ele>
        <time>2011-03-12T13:30:58Z</time>
      </trkpt>
      <trkpt lat="42.61016" lon="0.96079">
        <ele>2434.2</ele>
        <time>2011-03-12T13:31:02Z</time>
      </trkpt>
      <trkpt lat="42.61016" lon="0.96079">
        <ele>2435.16</ele>
        <time>2011-03-12T13:31:03Z</time>
      </trkpt>
      <trkpt lat="42.6102" lon="0.96087">
        <ele>2433.23</ele>
        <time>2011-03-12T13:31:09Z</time>
      </trkpt>
      <trkpt lat="42.61025" lon="0.96097">
        <ele>2429.39</ele>
        <time>2011-03-12T13:31:18Z</time>
      </trkpt>
      <trkpt lat="42.61026" lon="0.96098">
        <ele>2428.91</ele>
        <time>2011-03-12T13:31:19Z</time>
      </trkpt>
      <trkpt lat="42.61035" lon="0.961">
        <ele>2426.02</ele>
        <time>2011-03-12T13:31:23Z</time>
      </trkpt>
      <trkpt lat="42.61037" lon="0.961">
        <ele>2425.54</ele>
        <time>2011-03-12T13:31:24Z</time>
      </trkpt>
      <trkpt lat="42.61042" lon="0.96099">
        <ele>2423.62</ele>
        <time>2011-03-12T13:31:26Z</time>
      </trkpt>
      <trkpt lat="42.61047" lon="0.96098">
        <ele>2422.66</ele>
        <time>2011-03-12T13:31:28Z</time>
      </trkpt>
      <trkpt lat="42.61047" lon="0.96096">
        <ele>2421.7</ele>
        <time>2011-03-12T13:31:38Z</time>
      </trkpt>
      <trkpt lat="42.61048" lon="0.96097">
        <ele>2420.26</ele>
        <time>2011-03-12T13:31:55Z</time>
      </trkpt>
      <trkpt lat="42.61048" lon="0.96107">
        <ele>2417.85</ele>
        <time>2011-03-12T13:32:12Z</time>
      </trkpt>
      <trkpt lat="42.61048" lon="0.96116">
        <ele>2414.97</ele>
        <time>2011-03-12T13:32:40Z</time>
      </trkpt>
      <trkpt lat="42.61048" lon="0.9613">
        <ele>2411.6</ele>
        <time>2011-03-12T13:32:43Z</time>
      </trkpt>
      <trkpt lat="42.61049" lon="0.96139">
        <ele>2409.68</ele>
        <time>2011-03-12T13:32:45Z</time>
      </trkpt>
      <trkpt lat="42.6105" lon="0.96147">
        <ele>2406.32</ele>
        <time>2011-03-12T13:32:49Z</time>
      </trkpt>
      <trkpt lat="42.61051" lon="0.96149">
        <ele>2405.84</ele>
        <time>2011-03-12T13:32:50Z</time>
      </trkpt>
      <trkpt lat="42.61052" lon="0.96154">
        <ele>2402.95</ele>
        <time>2011-03-12T13:32:56Z</time>
      </trkpt>
      <trkpt lat="42.61055" lon="0.96165">
        <ele>2400.55</ele>
        <time>2011-03-12T13:33:08Z</time>
      </trkpt>
      <trkpt lat="42.61061" lon="0.96175">
        <ele>2399.11</ele>
        <time>2011-03-12T13:33:37Z</time>
      </trkpt>
      <trkpt lat="42.61061" lon="0.96176">
        <ele>2400.07</ele>
        <time>2011-03-12T13:33:38Z</time>
      </trkpt>
      <trkpt lat="42.61064" lon="0.9618">
        <ele>2398.15</ele>
        <time>2011-03-12T13:33:41Z</time>
      </trkpt>
      <trkpt lat="42.61073" lon="0.96195">
        <ele>2393.82</ele>
        <time>2011-03-12T13:33:46Z</time>
      </trkpt>
      <trkpt lat="42.6108" lon="0.96204">
        <ele>2390.46</ele>
        <time>2011-03-12T13:33:49Z</time>
      </trkpt>
      <trkpt lat="42.61081" lon="0.96207">
        <ele>2390.46</ele>
        <time>2011-03-12T13:33:50Z</time>
      </trkpt>
      <trkpt lat="42.61086" lon="0.96218">
        <ele>2387.09</ele>
        <time>2011-03-12T13:33:53Z</time>
      </trkpt>
      <trkpt lat="42.6109" lon="0.96226">
        <ele>2382.76</ele>
        <time>2011-03-12T13:33:55Z</time>
      </trkpt>
      <trkpt lat="42.61091" lon="0.96227">
        <ele>2382.76</ele>
        <time>2011-03-12T13:33:56Z</time>
      </trkpt>
      <trkpt lat="42.61096" lon="0.9623">
        <ele>2381.8</ele>
        <time>2011-03-12T13:34:08Z</time>
      </trkpt>
      <trkpt lat="42.611" lon="0.96232">
        <ele>2381.8</ele>
        <time>2011-03-12T13:34:21Z</time>
      </trkpt>
      <trkpt lat="42.61107" lon="0.96235">
        <ele>2382.76</ele>
        <time>2011-03-12T13:34:35Z</time>
      </trkpt>
      <trkpt lat="42.61118" lon="0.96236">
        <ele>2383.73</ele>
        <time>2011-03-12T13:34:49Z</time>
      </trkpt>
      <trkpt lat="42.61118" lon="0.96235">
        <ele>2383.25</ele>
        <time>2011-03-12T13:34:54Z</time>
      </trkpt>
      <trkpt lat="42.61123" lon="0.96229">
        <ele>2382.28</ele>
        <time>2011-03-12T13:35:01Z</time>
      </trkpt>
      <trkpt lat="42.6113" lon="0.9622">
        <ele>2382.76</ele>
        <time>2011-03-12T13:35:16Z</time>
      </trkpt>
      <trkpt lat="42.6113" lon="0.9622">
        <ele>2384.21</ele>
        <time>2011-03-12T13:35:31Z</time>
      </trkpt>
      <trkpt lat="42.6113" lon="0.96221">
        <ele>2383.73</ele>
        <time>2011-03-12T13:36:58Z</time>
      </trkpt>
      <trkpt lat="42.6113" lon="0.96221">
        <ele>2383.73</ele>
        <time>2011-03-12T13:36:59Z</time>
      </trkpt>
      <trkpt lat="42.6113" lon="0.96221">
        <ele>2386.61</ele>
        <time>2011-03-12T13:37:16Z</time>
      </trkpt>
      <trkpt lat="42.6113" lon="0.96221">
        <ele>2385.17</ele>
        <time>2011-03-12T13:37:21Z</time>
      </trkpt>
      <trkpt lat="42.61131" lon="0.96222">
        <ele>2384.69</ele>
        <time>2011-03-12T13:40:25Z</time>
      </trkpt>
      <trkpt lat="42.61133" lon="0.96223">
        <ele>2382.76</ele>
        <time>2011-03-12T13:41:05Z</time>
      </trkpt>
      <trkpt lat="42.61132" lon="0.96223">
        <ele>2383.73</ele>
        <time>2011-03-12T13:41:39Z</time>
      </trkpt>
      <trkpt lat="42.61131" lon="0.96224">
        <ele>2384.21</ele>
        <time>2011-03-12T13:42:25Z</time>
      </trkpt>
      <trkpt lat="42.61131" lon="0.96225">
        <ele>2384.21</ele>
        <time>2011-03-12T13:42:54Z</time>
      </trkpt>
      <trkpt lat="42.61131" lon="0.96225">
        <ele>2386.13</ele>
        <time>2011-03-12T13:43:00Z</time>
      </trkpt>
      <trkpt lat="42.61131" lon="0.96225">
        <ele>2384.69</ele>
        <time>2011-03-12T13:43:03Z</time>
      </trkpt>
      <trkpt lat="42.61131" lon="0.96225">
        <ele>2383.73</ele>
        <time>2011-03-12T13:43:57Z</time>
      </trkpt>
      <trkpt lat="42.6113" lon="0.96225">
        <ele>2385.65</ele>
        <time>2011-03-12T13:45:17Z</time>
      </trkpt>
      <trkpt lat="42.6113" lon="0.96225">
        <ele>2385.17</ele>
        <time>2011-03-12T13:45:49Z</time>
      </trkpt>
      <trkpt lat="42.6113" lon="0.96225">
        <ele>2386.13</ele>
        <time>2011-03-12T13:47:28Z</time>
      </trkpt>
      <trkpt lat="42.6113" lon="0.96226">
        <ele>2385.17</ele>
        <time>2011-03-12T13:49:01Z</time>
      </trkpt>
      <trkpt lat="42.6113" lon="0.96227">
        <ele>2384.69</ele>
        <time>2011-03-12T13:49:12Z</time>
      </trkpt>
      <trkpt lat="42.6113" lon="0.96227">
        <ele>2384.69</ele>
        <time>2011-03-12T13:50:38Z</time>
      </trkpt>
      <trkpt lat="42.61129" lon="0.96227">
        <ele>2385.17</ele>
        <time>2011-03-12T13:51:15Z</time>
      </trkpt>
      <trkpt lat="42.61129" lon="0.96226">
        <ele>2385.17</ele>
        <time>2011-03-12T13:52:29Z</time>
      </trkpt>
      <trkpt lat="42.61129" lon="0.96227">
        <ele>2385.65</ele>
        <time>2011-03-12T13:53:41Z</time>
      </trkpt>
      <trkpt lat="42.61129" lon="0.96227">
        <ele>2385.65</ele>
        <time>2011-03-12T13:54:18Z</time>
      </trkpt>
      <trkpt lat="42.61129" lon="0.96226">
        <ele>2385.17</ele>
        <time>2011-03-12T13:55:22Z</time>
      </trkpt>
      <trkpt lat="42.61129" lon="0.96225">
        <ele>2388.53</ele>
        <time>2011-03-12T13:57:24Z</time>
      </trkpt>
      <trkpt lat="42.61129" lon="0.96225">
        <ele>2385.17</ele>
        <time>2011-03-12T13:57:25Z</time>
      </trkpt>
      <trkpt lat="42.61129" lon="0.96225">
        <ele>2385.65</ele>
        <time>2011-03-12T13:57:26Z</time>
      </trkpt>
      <trkpt lat="42.61129" lon="0.96225">
        <ele>2389.49</ele>
        <time>2011-03-12T13:57:28Z</time>
      </trkpt>
      <trkpt lat="42.61129" lon="0.96225">
        <ele>2385.65</ele>
        <time>2011-03-12T13:57:36Z</time>
      </trkpt>
      <trkpt lat="42.61129" lon="0.96225">
        <ele>2388.05</ele>
        <time>2011-03-12T13:59:17Z</time>
      </trkpt>
      <trkpt lat="42.61129" lon="0.96225">
        <ele>2385.65</ele>
        <time>2011-03-12T13:59:26Z</time>
      </trkpt>
      <trkpt lat="42.61133" lon="0.96224">
        <ele>2385.65</ele>
        <time>2011-03-12T13:59:52Z</time>
      </trkpt>
      <trkpt lat="42.61138" lon="0.96225">
        <ele>2386.61</ele>
        <time>2011-03-12T14:00:06Z</time>
      </trkpt>
      <trkpt lat="42.61148" lon="0.96231">
        <ele>2384.21</ele>
        <time>2011-03-12T14:00:21Z</time>
      </trkpt>
      <trkpt lat="42.61151" lon="0.96233">
        <ele>2383.73</ele>
        <time>2011-03-12T14:00:25Z</time>
      </trkpt>
      <trkpt lat="42.6116" lon="0.96245">
        <ele>2380.84</ele>
        <time>2011-03-12T14:00:40Z</time>
      </trkpt>
      <trkpt lat="42.61166" lon="0.96251">
        <ele>2379.88</ele>
        <time>2011-03-12T14:00:57Z</time>
      </trkpt>
      <trkpt lat="42.61169" lon="0.96257">
        <ele>2379.4</ele>
        <time>2011-03-12T14:01:12Z</time>
      </trkpt>
      <trkpt lat="42.61173" lon="0.96262">
        <ele>2377.48</ele>
        <time>2011-03-12T14:01:23Z</time>
      </trkpt>
      <trkpt lat="42.61178" lon="0.96267">
        <ele>2376.52</ele>
        <time>2011-03-12T14:01:30Z</time>
      </trkpt>
      <trkpt lat="42.61179" lon="0.96269">
        <ele>2374.59</ele>
        <time>2011-03-12T14:01:33Z</time>
      </trkpt>
      <trkpt lat="42.6118" lon="0.96269">
        <ele>2375.07</ele>
        <time>2011-03-12T14:02:12Z</time>
      </trkpt>
      <trkpt lat="42.6118" lon="0.9627">
        <ele>2375.55</ele>
        <time>2011-03-12T14:02:22Z</time>
      </trkpt>
      <trkpt lat="42.61184" lon="0.96262">
        <ele>2373.15</ele>
        <time>2011-03-12T14:02:26Z</time>
      </trkpt>
      <trkpt lat="42.61185" lon="0.96256">
        <ele>2372.19</ele>
        <time>2011-03-12T14:02:28Z</time>
      </trkpt>
      <trkpt lat="42.61189" lon="0.96247">
        <ele>2368.83</ele>
        <time>2011-03-12T14:02:32Z</time>
      </trkpt>
      <trkpt lat="42.6119" lon="0.9624">
        <ele>2368.83</ele>
        <time>2011-03-12T14:02:47Z</time>
      </trkpt>
      <trkpt lat="42.61191" lon="0.9624">
        <ele>2367.38</ele>
        <time>2011-03-12T14:03:00Z</time>
      </trkpt>
      <trkpt lat="42.61191" lon="0.9624">
        <ele>2370.75</ele>
        <time>2011-03-12T14:03:03Z</time>
      </trkpt>
      <trkpt lat="42.61191" lon="0.9624">
        <ele>2371.23</ele>
        <time>2011-03-12T14:03:11Z</time>
      </trkpt>
      <trkpt lat="42.61191" lon="0.9624">
        <ele>2368.35</ele>
        <time>2011-03-12T14:03:26Z</time>
      </trkpt>
      <trkpt lat="42.61191" lon="0.9624">
        <ele>2367.86</ele>
        <time>2011-03-12T14:03:32Z</time>
      </trkpt>
      <trkpt lat="42.61196" lon="0.96235">
        <ele>2366.9</ele>
        <time>2011-03-12T14:03:37Z</time>
      </trkpt>
      <trkpt lat="42.61203" lon="0.96234">
        <ele>2364.02</ele>
        <time>2011-03-12T14:03:41Z</time>
      </trkpt>
      <trkpt lat="42.6121" lon="0.96231">
        <ele>2361.14</ele>
        <time>2011-03-12T14:03:44Z</time>
      </trkpt>
      <trkpt lat="42.6122" lon="0.9623">
        <ele>2356.33</ele>
        <time>2011-03-12T14:03:47Z</time>
      </trkpt>
      <trkpt lat="42.61232" lon="0.96228">
        <ele>2352.48</ele>
        <time>2011-03-12T14:03:50Z</time>
      </trkpt>
      <trkpt lat="42.61241" lon="0.96225">
        <ele>2345.27</ele>
        <time>2011-03-12T14:03:53Z</time>
      </trkpt>
      <trkpt lat="42.61244" lon="0.96224">
        <ele>2347.68</ele>
        <time>2011-03-12T14:03:54Z</time>
      </trkpt>
      <trkpt lat="42.61249" lon="0.96221">
        <ele>2345.75</ele>
        <time>2011-03-12T14:03:56Z</time>
      </trkpt>
      <trkpt lat="42.61254" lon="0.9622">
        <ele>2343.35</ele>
        <time>2011-03-12T14:04:00Z</time>
      </trkpt>
      <trkpt lat="42.61254" lon="0.96219">
        <ele>2343.35</ele>
        <time>2011-03-12T14:04:17Z</time>
      </trkpt>
      <trkpt lat="42.61254" lon="0.9622">
        <ele>2343.35</ele>
        <time>2011-03-12T14:04:43Z</time>
      </trkpt>
      <trkpt lat="42.61254" lon="0.96221">
        <ele>2344.31</ele>
        <time>2011-03-12T14:05:09Z</time>
      </trkpt>
      <trkpt lat="42.61254" lon="0.96221">
        <ele>2341.43</ele>
        <time>2011-03-12T14:05:23Z</time>
      </trkpt>
      <trkpt lat="42.61254" lon="0.96221">
        <ele>2341.91</ele>
        <time>2011-03-12T14:05:24Z</time>
      </trkpt>
      <trkpt lat="42.61255" lon="0.96221">
        <ele>2343.35</ele>
        <time>2011-03-12T14:06:17Z</time>
      </trkpt>
      <trkpt lat="42.61255" lon="0.96221">
        <ele>2344.31</ele>
        <time>2011-03-12T14:06:28Z</time>
      </trkpt>
      <trkpt lat="42.61254" lon="0.96221">
        <ele>2342.39</ele>
        <time>2011-03-12T14:06:51Z</time>
      </trkpt>
      <trkpt lat="42.61254" lon="0.96221">
        <ele>2344.79</ele>
        <time>2011-03-12T14:06:55Z</time>
      </trkpt>
      <trkpt lat="42.61268" lon="0.96217">
        <ele>2340.47</ele>
        <time>2011-03-12T14:08:00Z</time>
      </trkpt>
      <trkpt lat="42.61279" lon="0.96215">
        <ele>2336.62</ele>
        <time>2011-03-12T14:08:03Z</time>
      </trkpt>
      <trkpt lat="42.61287" lon="0.96215">
        <ele>2333.26</ele>
        <time>2011-03-12T14:08:05Z</time>
      </trkpt>
      <trkpt lat="42.613" lon="0.9622">
        <ele>2330.37</ele>
        <time>2011-03-12T14:08:09Z</time>
      </trkpt>
      <trkpt lat="42.61304" lon="0.96223">
        <ele>2329.89</ele>
        <time>2011-03-12T14:08:11Z</time>
      </trkpt>
      <trkpt lat="42.61311" lon="0.96228">
        <ele>2328.93</ele>
        <time>2011-03-12T14:08:16Z</time>
      </trkpt>
      <trkpt lat="42.61322" lon="0.96237">
        <ele>2324.12</ele>
        <time>2011-03-12T14:08:22Z</time>
      </trkpt>
      <trkpt lat="42.61325" lon="0.96239">
        <ele>2323.16</ele>
        <time>2011-03-12T14:08:23Z</time>
      </trkpt>
      <trkpt lat="42.6134" lon="0.96249">
        <ele>2318.36</ele>
        <time>2011-03-12T14:08:27Z</time>
      </trkpt>
      <trkpt lat="42.61342" lon="0.96253">
        <ele>2317.88</ele>
        <time>2011-03-12T14:08:37Z</time>
      </trkpt>
      <trkpt lat="42.61342" lon="0.96253">
        <ele>2317.4</ele>
        <time>2011-03-12T14:08:43Z</time>
      </trkpt>
      <trkpt lat="42.61344" lon="0.96256">
        <ele>2317.88</ele>
        <time>2011-03-12T14:08:59Z</time>
      </trkpt>
      <trkpt lat="42.61347" lon="0.96267">
        <ele>2318.36</ele>
        <time>2011-03-12T14:09:12Z</time>
      </trkpt>
      <trkpt lat="42.61357" lon="0.96281">
        <ele>2318.36</ele>
        <time>2011-03-12T14:09:26Z</time>
      </trkpt>
      <trkpt lat="42.61368" lon="0.9629">
        <ele>2316.43</ele>
        <time>2011-03-12T14:09:39Z</time>
      </trkpt>
      <trkpt lat="42.61381" lon="0.963">
        <ele>2315.95</ele>
        <time>2011-03-12T14:09:54Z</time>
      </trkpt>
      <trkpt lat="42.61394" lon="0.96308">
        <ele>2313.07</ele>
        <time>2011-03-12T14:10:11Z</time>
      </trkpt>
      <trkpt lat="42.61405" lon="0.96314">
        <ele>2313.07</ele>
        <time>2011-03-12T14:10:23Z</time>
      </trkpt>
      <trkpt lat="42.61418" lon="0.96319">
        <ele>2312.59</ele>
        <time>2011-03-12T14:10:39Z</time>
      </trkpt>
      <trkpt lat="42.61422" lon="0.96321">
        <ele>2312.59</ele>
        <time>2011-03-12T14:10:44Z</time>
      </trkpt>
      <trkpt lat="42.61434" lon="0.96325">
        <ele>2313.55</ele>
        <time>2011-03-12T14:10:57Z</time>
      </trkpt>
      <trkpt lat="42.61444" lon="0.96328">
        <ele>2314.99</ele>
        <time>2011-03-12T14:11:13Z</time>
      </trkpt>
      <trkpt lat="42.61456" lon="0.96332">
        <ele>2314.99</ele>
        <time>2011-03-12T14:11:29Z</time>
      </trkpt>
      <trkpt lat="42.61467" lon="0.96336">
        <ele>2314.51</ele>
        <time>2011-03-12T14:11:45Z</time>
      </trkpt>
      <trkpt lat="42.61469" lon="0.96336">
        <ele>2314.51</ele>
        <time>2011-03-12T14:11:48Z</time>
      </trkpt>
      <trkpt lat="42.61479" lon="0.96338">
        <ele>2313.55</ele>
        <time>2011-03-12T14:12:02Z</time>
      </trkpt>
      <trkpt lat="42.61487" lon="0.96341">
        <ele>2314.51</ele>
        <time>2011-03-12T14:12:15Z</time>
      </trkpt>
      <trkpt lat="42.61495" lon="0.96344">
        <ele>2314.51</ele>
        <time>2011-03-12T14:12:28Z</time>
      </trkpt>
      <trkpt lat="42.615" lon="0.96346">
        <ele>2314.51</ele>
        <time>2011-03-12T14:12:36Z</time>
      </trkpt>
      <trkpt lat="42.61509" lon="0.96343">
        <ele>2314.99</ele>
        <time>2011-03-12T14:12:48Z</time>
      </trkpt>
      <trkpt lat="42.61519" lon="0.96339">
        <ele>2315.95</ele>
        <time>2011-03-12T14:13:01Z</time>
      </trkpt>
      <trkpt lat="42.6153" lon="0.96337">
        <ele>2316.91</ele>
        <time>2011-03-12T14:13:16Z</time>
      </trkpt>
      <trkpt lat="42.6154" lon="0.96337">
        <ele>2317.4</ele>
        <time>2011-03-12T14:13:31Z</time>
      </trkpt>
      <trkpt lat="42.61553" lon="0.96336">
        <ele>2315.95</ele>
        <time>2011-03-12T14:13:49Z</time>
      </trkpt>
      <trkpt lat="42.61556" lon="0.96336">
        <ele>2315.47</ele>
        <time>2011-03-12T14:14:07Z</time>
      </trkpt>
      <trkpt lat="42.61572" lon="0.96334">
        <ele>2312.11</ele>
        <time>2011-03-12T14:14:19Z</time>
      </trkpt>
      <trkpt lat="42.61583" lon="0.96331">
        <ele>2308.74</ele>
        <time>2011-03-12T14:14:35Z</time>
      </trkpt>
      <trkpt lat="42.616" lon="0.96325">
        <ele>2306.34</ele>
        <time>2011-03-12T14:14:47Z</time>
      </trkpt>
      <trkpt lat="42.61601" lon="0.96323">
        <ele>2306.82</ele>
        <time>2011-03-12T14:14:52Z</time>
      </trkpt>
      <trkpt lat="42.61605" lon="0.96318">
        <ele>2308.74</ele>
        <time>2011-03-12T14:14:58Z</time>
      </trkpt>
      <trkpt lat="42.61613" lon="0.96314">
        <ele>2310.19</ele>
        <time>2011-03-12T14:15:11Z</time>
      </trkpt>
      <trkpt lat="42.61621" lon="0.96314">
        <ele>2311.15</ele>
        <time>2011-03-12T14:15:23Z</time>
      </trkpt>
      <trkpt lat="42.61629" lon="0.96315">
        <ele>2310.67</ele>
        <time>2011-03-12T14:15:37Z</time>
      </trkpt>
      <trkpt lat="42.61631" lon="0.96314">
        <ele>2309.7</ele>
        <time>2011-03-12T14:15:53Z</time>
      </trkpt>
      <trkpt lat="42.61631" lon="0.96314">
        <ele>2313.07</ele>
        <time>2011-03-12T14:16:07Z</time>
      </trkpt>
      <trkpt lat="42.61631" lon="0.96314">
        <ele>2310.19</ele>
        <time>2011-03-12T14:16:10Z</time>
      </trkpt>
      <trkpt lat="42.61631" lon="0.96314">
        <ele>2313.55</ele>
        <time>2011-03-12T14:16:15Z</time>
      </trkpt>
      <trkpt lat="42.61631" lon="0.96314">
        <ele>2313.07</ele>
        <time>2011-03-12T14:16:16Z</time>
      </trkpt>
      <trkpt lat="42.6164" lon="0.96317">
        <ele>2312.11</ele>
        <time>2011-03-12T14:16:32Z</time>
      </trkpt>
      <trkpt lat="42.61652" lon="0.96316">
        <ele>2311.15</ele>
        <time>2011-03-12T14:16:46Z</time>
      </trkpt>
      <trkpt lat="42.61663" lon="0.96318">
        <ele>2311.15</ele>
        <time>2011-03-12T14:16:59Z</time>
      </trkpt>
      <trkpt lat="42.61673" lon="0.96317">
        <ele>2309.7</ele>
        <time>2011-03-12T14:17:13Z</time>
      </trkpt>
      <trkpt lat="42.61682" lon="0.96317">
        <ele>2309.7</ele>
        <time>2011-03-12T14:17:26Z</time>
      </trkpt>
      <trkpt lat="42.61688" lon="0.96319">
        <ele>2311.15</ele>
        <time>2011-03-12T14:17:38Z</time>
      </trkpt>
      <trkpt lat="42.61696" lon="0.96322">
        <ele>2311.63</ele>
        <time>2011-03-12T14:17:51Z</time>
      </trkpt>
      <trkpt lat="42.61706" lon="0.96326">
        <ele>2312.59</ele>
        <time>2011-03-12T14:18:05Z</time>
      </trkpt>
      <trkpt lat="42.61716" lon="0.96329">
        <ele>2312.59</ele>
        <time>2011-03-12T14:18:18Z</time>
      </trkpt>
      <trkpt lat="42.61724" lon="0.96332">
        <ele>2313.07</ele>
        <time>2011-03-12T14:18:35Z</time>
      </trkpt>
      <trkpt lat="42.6173" lon="0.96332">
        <ele>2313.07</ele>
        <time>2011-03-12T14:18:48Z</time>
      </trkpt>
      <trkpt lat="42.6174" lon="0.96333">
        <ele>2314.99</ele>
        <time>2011-03-12T14:19:04Z</time>
      </trkpt>
      <trkpt lat="42.61747" lon="0.96338">
        <ele>2314.99</ele>
        <time>2011-03-12T14:19:18Z</time>
      </trkpt>
      <trkpt lat="42.61757" lon="0.96345">
        <ele>2315.47</ele>
        <time>2011-03-12T14:19:33Z</time>
      </trkpt>
      <trkpt lat="42.61761" lon="0.96348">
        <ele>2316.43</ele>
        <time>2011-03-12T14:19:47Z</time>
      </trkpt>
      <trkpt lat="42.61766" lon="0.9635">
        <ele>2315.95</ele>
        <time>2011-03-12T14:20:06Z</time>
      </trkpt>
      <trkpt lat="42.61772" lon="0.96352">
        <ele>2318.36</ele>
        <time>2011-03-12T14:20:26Z</time>
      </trkpt>
      <trkpt lat="42.61782" lon="0.96355">
        <ele>2320.76</ele>
        <time>2011-03-12T14:20:40Z</time>
      </trkpt>
      <trkpt lat="42.61789" lon="0.96359">
        <ele>2320.76</ele>
        <time>2011-03-12T14:20:56Z</time>
      </trkpt>
      <trkpt lat="42.61794" lon="0.96359">
        <ele>2319.8</ele>
        <time>2011-03-12T14:21:22Z</time>
      </trkpt>
      <trkpt lat="42.61794" lon="0.96359">
        <ele>2319.8</ele>
        <time>2011-03-12T14:22:32Z</time>
      </trkpt>
      <trkpt lat="42.618" lon="0.96358">
        <ele>2318.84</ele>
        <time>2011-03-12T14:22:57Z</time>
      </trkpt>
      <trkpt lat="42.61802" lon="0.96355">
        <ele>2318.36</ele>
        <time>2011-03-12T14:24:35Z</time>
      </trkpt>
      <trkpt lat="42.61809" lon="0.9635">
        <ele>2318.36</ele>
        <time>2011-03-12T14:24:49Z</time>
      </trkpt>
      <trkpt lat="42.61811" lon="0.96349">
        <ele>2318.84</ele>
        <time>2011-03-12T14:25:04Z</time>
      </trkpt>
      <trkpt lat="42.61811" lon="0.96349">
        <ele>2318.36</ele>
        <time>2011-03-12T14:25:09Z</time>
      </trkpt>
      <trkpt lat="42.61818" lon="0.96341">
        <ele>2317.88</ele>
        <time>2011-03-12T14:25:27Z</time>
      </trkpt>
      <trkpt lat="42.61824" lon="0.96333">
        <ele>2319.32</ele>
        <time>2011-03-12T14:25:42Z</time>
      </trkpt>
      <trkpt lat="42.61826" lon="0.96327">
        <ele>2318.36</ele>
        <time>2011-03-12T14:25:56Z</time>
      </trkpt>
      <trkpt lat="42.61828" lon="0.96325">
        <ele>2316.91</ele>
        <time>2011-03-12T14:26:08Z</time>
      </trkpt>
      <trkpt lat="42.6183" lon="0.96324">
        <ele>2316.43</ele>
        <time>2011-03-12T14:26:32Z</time>
      </trkpt>
      <trkpt lat="42.6183" lon="0.96323">
        <ele>2316.43</ele>
        <time>2011-03-12T14:26:42Z</time>
      </trkpt>
      <trkpt lat="42.61833" lon="0.9632">
        <ele>2315.95</ele>
        <time>2011-03-12T14:27:09Z</time>
      </trkpt>
      <trkpt lat="42.61836" lon="0.96321">
        <ele>2316.91</ele>
        <time>2011-03-12T14:27:24Z</time>
      </trkpt>
      <trkpt lat="42.61843" lon="0.96317">
        <ele>2317.88</ele>
        <time>2011-03-12T14:27:35Z</time>
      </trkpt>
      <trkpt lat="42.6185" lon="0.96317">
        <ele>2319.8</ele>
        <time>2011-03-12T14:27:47Z</time>
      </trkpt>
      <trkpt lat="42.61851" lon="0.96317">
        <ele>2321.24</ele>
        <time>2011-03-12T14:28:02Z</time>
      </trkpt>
      <trkpt lat="42.61849" lon="0.96319">
        <ele>2321.72</ele>
        <time>2011-03-12T14:28:05Z</time>
      </trkpt>
      <trkpt lat="42.61843" lon="0.96323">
        <ele>2321.24</ele>
        <time>2011-03-12T14:28:14Z</time>
      </trkpt>
      <trkpt lat="42.61842" lon="0.96324">
        <ele>2317.4</ele>
        <time>2011-03-12T14:28:16Z</time>
      </trkpt>
      <trkpt lat="42.61842" lon="0.96324">
        <ele>2318.36</ele>
        <time>2011-03-12T14:28:17Z</time>
      </trkpt>
      <trkpt lat="42.61842" lon="0.96324">
        <ele>2321.24</ele>
        <time>2011-03-12T14:28:18Z</time>
      </trkpt>
      <trkpt lat="42.61842" lon="0.96324">
        <ele>2320.76</ele>
        <time>2011-03-12T14:28:19Z</time>
      </trkpt>
      <trkpt lat="42.61841" lon="0.96324">
        <ele>2317.88</ele>
        <time>2011-03-12T14:28:31Z</time>
      </trkpt>
      <trkpt lat="42.61841" lon="0.96324">
        <ele>2321.24</ele>
        <time>2011-03-12T14:28:33Z</time>
      </trkpt>
      <trkpt lat="42.61841" lon="0.96324">
        <ele>2320.76</ele>
        <time>2011-03-12T14:28:49Z</time>
      </trkpt>
      <trkpt lat="42.6184" lon="0.96324">
        <ele>2316.43</ele>
        <time>2011-03-12T14:28:57Z</time>
      </trkpt>
      <trkpt lat="42.6184" lon="0.96324">
        <ele>2312.11</ele>
        <time>2011-03-12T14:28:58Z</time>
      </trkpt>
      <trkpt lat="42.6184" lon="0.96324">
        <ele>2325.57</ele>
        <time>2011-03-12T14:28:59Z</time>
      </trkpt>
      <trkpt lat="42.6184" lon="0.96324">
        <ele>2323.16</ele>
        <time>2011-03-12T14:29:00Z</time>
      </trkpt>
      <trkpt lat="42.61838" lon="0.96328">
        <ele>2319.32</ele>
        <time>2011-03-12T14:29:07Z</time>
      </trkpt>
      <trkpt lat="42.61838" lon="0.96328">
        <ele>2322.68</ele>
        <time>2011-03-12T14:29:08Z</time>
      </trkpt>
      <trkpt lat="42.6184" lon="0.96333">
        <ele>2323.64</ele>
        <time>2011-03-12T14:29:31Z</time>
      </trkpt>
      <trkpt lat="42.61849" lon="0.96332">
        <ele>2325.09</ele>
        <time>2011-03-12T14:29:47Z</time>
      </trkpt>
      <trkpt lat="42.61849" lon="0.96332">
        <ele>2324.61</ele>
        <time>2011-03-12T14:29:49Z</time>
      </trkpt>
      <trkpt lat="42.61849" lon="0.96332">
        <ele>2321.24</ele>
        <time>2011-03-12T14:29:50Z</time>
      </trkpt>
      <trkpt lat="42.61855" lon="0.9633">
        <ele>2325.57</ele>
        <time>2011-03-12T14:30:02Z</time>
      </trkpt>
      <trkpt lat="42.61855" lon="0.9633">
        <ele>2326.05</ele>
        <time>2011-03-12T14:30:04Z</time>
      </trkpt>
      <trkpt lat="42.61866" lon="0.96327">
        <ele>2327.97</ele>
        <time>2011-03-12T14:30:19Z</time>
      </trkpt>
      <trkpt lat="42.61877" lon="0.96324">
        <ele>2329.89</ele>
        <time>2011-03-12T14:30:34Z</time>
      </trkpt>
      <trkpt lat="42.61879" lon="0.96327">
        <ele>2331.33</ele>
        <time>2011-03-12T14:30:40Z</time>
      </trkpt>
      <trkpt lat="42.61882" lon="0.96329">
        <ele>2329.89</ele>
        <time>2011-03-12T14:30:43Z</time>
      </trkpt>
      <trkpt lat="42.61889" lon="0.96334">
        <ele>2331.33</ele>
        <time>2011-03-12T14:30:55Z</time>
      </trkpt>
      <trkpt lat="42.61892" lon="0.96337">
        <ele>2332.78</ele>
        <time>2011-03-12T14:31:07Z</time>
      </trkpt>
      <trkpt lat="42.61898" lon="0.9634">
        <ele>2332.3</ele>
        <time>2011-03-12T14:31:48Z</time>
      </trkpt>
      <trkpt lat="42.61901" lon="0.96341">
        <ele>2332.3</ele>
        <time>2011-03-12T14:31:57Z</time>
      </trkpt>
      <trkpt lat="42.61909" lon="0.9634">
        <ele>2328.93</ele>
        <time>2011-03-12T14:32:01Z</time>
      </trkpt>
      <trkpt lat="42.61917" lon="0.96336">
        <ele>2325.57</ele>
        <time>2011-03-12T14:32:04Z</time>
      </trkpt>
      <trkpt lat="42.61917" lon="0.96336">
        <ele>2325.57</ele>
        <time>2011-03-12T14:32:05Z</time>
      </trkpt>
      <trkpt lat="42.61917" lon="0.96341">
        <ele>2326.05</ele>
        <time>2011-03-12T14:32:16Z</time>
      </trkpt>
      <trkpt lat="42.61917" lon="0.96341">
        <ele>2324.12</ele>
        <time>2011-03-12T14:32:27Z</time>
      </trkpt>
      <trkpt lat="42.61917" lon="0.96341">
        <ele>2320.28</ele>
        <time>2011-03-12T14:32:28Z</time>
      </trkpt>
      <trkpt lat="42.61917" lon="0.96341">
        <ele>2323.64</ele>
        <time>2011-03-12T14:32:29Z</time>
      </trkpt>
      <trkpt lat="42.61917" lon="0.96341">
        <ele>2329.41</ele>
        <time>2011-03-12T14:32:33Z</time>
      </trkpt>
      <trkpt lat="42.61917" lon="0.96341">
        <ele>2328.93</ele>
        <time>2011-03-12T14:32:34Z</time>
      </trkpt>
      <trkpt lat="42.61917" lon="0.96341">
        <ele>2326.05</ele>
        <time>2011-03-12T14:32:40Z</time>
      </trkpt>
      <trkpt lat="42.61917" lon="0.96341">
        <ele>2318.36</ele>
        <time>2011-03-12T14:32:41Z</time>
      </trkpt>
      <trkpt lat="42.61917" lon="0.96341">
        <ele>2323.16</ele>
        <time>2011-03-12T14:32:42Z</time>
      </trkpt>
      <trkpt lat="42.61917" lon="0.96341">
        <ele>2325.09</ele>
        <time>2011-03-12T14:32:44Z</time>
      </trkpt>
      <trkpt lat="42.61917" lon="0.96341">
        <ele>2327.01</ele>
        <time>2011-03-12T14:32:47Z</time>
      </trkpt>
      <trkpt lat="42.61917" lon="0.96341">
        <ele>2320.28</ele>
        <time>2011-03-12T14:32:51Z</time>
      </trkpt>
      <trkpt lat="42.61917" lon="0.96341">
        <ele>2322.68</ele>
        <time>2011-03-12T14:32:52Z</time>
      </trkpt>
      <trkpt lat="42.61917" lon="0.96341">
        <ele>2326.05</ele>
        <time>2011-03-12T14:32:53Z</time>
      </trkpt>
      <trkpt lat="42.61917" lon="0.96341">
        <ele>2326.05</ele>
        <time>2011-03-12T14:32:54Z</time>
      </trkpt>
      <trkpt lat="42.61918" lon="0.96342">
        <ele>2326.53</ele>
        <time>2011-03-12T14:33:05Z</time>
      </trkpt>
      <trkpt lat="42.61918" lon="0.96342">
        <ele>2327.01</ele>
        <time>2011-03-12T14:33:16Z</time>
      </trkpt>
      <trkpt lat="42.61918" lon="0.96342">
        <ele>2326.05</ele>
        <time>2011-03-12T14:33:18Z</time>
      </trkpt>
      <trkpt lat="42.61917" lon="0.96343">
        <ele>2331.33</ele>
        <time>2011-03-12T14:33:34Z</time>
      </trkpt>
      <trkpt lat="42.61917" lon="0.96343">
        <ele>2331.33</ele>
        <time>2011-03-12T14:33:35Z</time>
      </trkpt>
      <trkpt lat="42.61917" lon="0.96343">
        <ele>2327.49</ele>
        <time>2011-03-12T14:33:40Z</time>
      </trkpt>
      <trkpt lat="42.61918" lon="0.96344">
        <ele>2328.45</ele>
        <time>2011-03-12T14:33:41Z</time>
      </trkpt>
      <trkpt lat="42.61926" lon="0.96349">
        <ele>2328.45</ele>
        <time>2011-03-12T14:33:54Z</time>
      </trkpt>
      <trkpt lat="42.61927" lon="0.96349">
        <ele>2327.01</ele>
        <time>2011-03-12T14:34:18Z</time>
      </trkpt>
      <trkpt lat="42.61928" lon="0.9635">
        <ele>2327.49</ele>
        <time>2011-03-12T14:34:57Z</time>
      </trkpt>
      <trkpt lat="42.61928" lon="0.96351">
        <ele>2327.49</ele>
        <time>2011-03-12T14:35:09Z</time>
      </trkpt>
      <trkpt lat="42.61932" lon="0.96349">
        <ele>2326.53</ele>
        <time>2011-03-12T14:35:23Z</time>
      </trkpt>
      <trkpt lat="42.61933" lon="0.96346">
        <ele>2325.57</ele>
        <time>2011-03-12T14:35:52Z</time>
      </trkpt>
      <trkpt lat="42.61934" lon="0.96345">
        <ele>2325.57</ele>
        <time>2011-03-12T14:36:10Z</time>
      </trkpt>
      <trkpt lat="42.61935" lon="0.96346">
        <ele>2325.09</ele>
        <time>2011-03-12T14:36:19Z</time>
      </trkpt>
      <trkpt lat="42.61938" lon="0.96349">
        <ele>2315.95</ele>
        <time>2011-03-12T14:36:21Z</time>
      </trkpt>
      <trkpt lat="42.61939" lon="0.9635">
        <ele>2309.7</ele>
        <time>2011-03-12T14:36:22Z</time>
      </trkpt>
      <trkpt lat="42.61939" lon="0.96349">
        <ele>2323.16</ele>
        <time>2011-03-12T14:36:23Z</time>
      </trkpt>
      <trkpt lat="42.61939" lon="0.96349">
        <ele>2323.64</ele>
        <time>2011-03-12T14:36:24Z</time>
      </trkpt>
      <trkpt lat="42.6194" lon="0.96349">
        <ele>2323.16</ele>
        <time>2011-03-12T14:36:26Z</time>
      </trkpt>
      <trkpt lat="42.61944" lon="0.96355">
        <ele>2321.24</ele>
        <time>2011-03-12T14:36:32Z</time>
      </trkpt>
      <trkpt lat="42.61949" lon="0.96366">
        <ele>2319.32</ele>
        <time>2011-03-12T14:36:44Z</time>
      </trkpt>
      <trkpt lat="42.61951" lon="0.96366">
        <ele>2319.32</ele>
        <time>2011-03-12T14:36:58Z</time>
      </trkpt>
      <trkpt lat="42.61951" lon="0.96366">
        <ele>2319.32</ele>
        <time>2011-03-12T14:37:07Z</time>
      </trkpt>
      <trkpt lat="42.61961" lon="0.96365">
        <ele>2318.36</ele>
        <time>2011-03-12T14:37:15Z</time>
      </trkpt>
      <trkpt lat="42.61965" lon="0.96358">
        <ele>2317.88</ele>
        <time>2011-03-12T14:37:31Z</time>
      </trkpt>
      <trkpt lat="42.61968" lon="0.96354">
        <ele>2316.43</ele>
        <time>2011-03-12T14:37:47Z</time>
      </trkpt>
      <trkpt lat="42.6197" lon="0.96353">
        <ele>2315.95</ele>
        <time>2011-03-12T14:37:54Z</time>
      </trkpt>
      <trkpt lat="42.61982" lon="0.96358">
        <ele>2311.63</ele>
        <time>2011-03-12T14:37:59Z</time>
      </trkpt>
      <trkpt lat="42.61993" lon="0.9636">
        <ele>2308.26</ele>
        <time>2011-03-12T14:38:02Z</time>
      </trkpt>
      <trkpt lat="42.61995" lon="0.9636">
        <ele>2308.26</ele>
        <time>2011-03-12T14:38:03Z</time>
      </trkpt>
      <trkpt lat="42.61999" lon="0.9636">
        <ele>2307.78</ele>
        <time>2011-03-12T14:38:10Z</time>
      </trkpt>
      <trkpt lat="42.62004" lon="0.96361">
        <ele>2307.3</ele>
        <time>2011-03-12T14:38:15Z</time>
      </trkpt>
      <trkpt lat="42.62013" lon="0.96361">
        <ele>2304.9</ele>
        <time>2011-03-12T14:38:25Z</time>
      </trkpt>
      <trkpt lat="42.6202" lon="0.96357">
        <ele>2307.3</ele>
        <time>2011-03-12T14:38:38Z</time>
      </trkpt>
      <trkpt lat="42.62024" lon="0.96352">
        <ele>2307.78</ele>
        <time>2011-03-12T14:38:51Z</time>
      </trkpt>
      <trkpt lat="42.62028" lon="0.96352">
        <ele>2310.19</ele>
        <time>2011-03-12T14:39:06Z</time>
      </trkpt>
      <trkpt lat="42.62037" lon="0.9635">
        <ele>2310.19</ele>
        <time>2011-03-12T14:39:19Z</time>
      </trkpt>
      <trkpt lat="42.62051" lon="0.96345">
        <ele>2308.74</ele>
        <time>2011-03-12T14:39:35Z</time>
      </trkpt>
      <trkpt lat="42.62062" lon="0.9634">
        <ele>2308.26</ele>
        <time>2011-03-12T14:39:49Z</time>
      </trkpt>
      <trkpt lat="42.62066" lon="0.96339">
        <ele>2308.74</ele>
        <time>2011-03-12T14:40:03Z</time>
      </trkpt>
      <trkpt lat="42.6207" lon="0.96342">
        <ele>2308.26</ele>
        <time>2011-03-12T14:40:21Z</time>
      </trkpt>
      <trkpt lat="42.62072" lon="0.96343">
        <ele>2307.3</ele>
        <time>2011-03-12T14:40:23Z</time>
      </trkpt>
      <trkpt lat="42.62075" lon="0.96344">
        <ele>2306.34</ele>
        <time>2011-03-12T14:40:25Z</time>
      </trkpt>
      <trkpt lat="42.62077" lon="0.96345">
        <ele>2304.9</ele>
        <time>2011-03-12T14:40:27Z</time>
      </trkpt>
      <trkpt lat="42.62077" lon="0.96346">
        <ele>2304.9</ele>
        <time>2011-03-12T14:41:00Z</time>
      </trkpt>
      <trkpt lat="42.62078" lon="0.96347">
        <ele>2304.42</ele>
        <time>2011-03-12T14:41:01Z</time>
      </trkpt>
      <trkpt lat="42.62092" lon="0.96357">
        <ele>2301.05</ele>
        <time>2011-03-12T14:41:08Z</time>
      </trkpt>
      <trkpt lat="42.62098" lon="0.96359">
        <ele>2297.69</ele>
        <time>2011-03-12T14:41:10Z</time>
      </trkpt>
      <trkpt lat="42.621" lon="0.96356">
        <ele>2298.17</ele>
        <time>2011-03-12T14:41:17Z</time>
      </trkpt>
      <trkpt lat="42.62098" lon="0.96336">
        <ele>2295.28</ele>
        <time>2011-03-12T14:41:31Z</time>
      </trkpt>
      <trkpt lat="42.62098" lon="0.9633">
        <ele>2295.77</ele>
        <time>2011-03-12T14:41:44Z</time>
      </trkpt>
      <trkpt lat="42.62098" lon="0.96329">
        <ele>2295.28</ele>
        <time>2011-03-12T14:41:58Z</time>
      </trkpt>
      <trkpt lat="42.62099" lon="0.96327">
        <ele>2295.28</ele>
        <time>2011-03-12T14:42:19Z</time>
      </trkpt>
      <trkpt lat="42.62099" lon="0.96327">
        <ele>2280.38</ele>
        <time>2011-03-12T14:42:33Z</time>
      </trkpt>
      <trkpt lat="42.62099" lon="0.96327">
        <ele>2286.15</ele>
        <time>2011-03-12T14:42:34Z</time>
      </trkpt>
      <trkpt lat="42.62099" lon="0.96327">
        <ele>2290.96</ele>
        <time>2011-03-12T14:42:35Z</time>
      </trkpt>
      <trkpt lat="42.62099" lon="0.96327">
        <ele>2279.42</ele>
        <time>2011-03-12T14:42:36Z</time>
      </trkpt>
      <trkpt lat="42.62099" lon="0.96327">
        <ele>2303.94</ele>
        <time>2011-03-12T14:42:37Z</time>
      </trkpt>
      <trkpt lat="42.621" lon="0.96326">
        <ele>2301.53</ele>
        <time>2011-03-12T14:42:38Z</time>
      </trkpt>
      <trkpt lat="42.621" lon="0.96326">
        <ele>2297.21</ele>
        <time>2011-03-12T14:42:40Z</time>
      </trkpt>
      <trkpt lat="42.621" lon="0.96326">
        <ele>2297.21</ele>
        <time>2011-03-12T14:42:41Z</time>
      </trkpt>
      <trkpt lat="42.621" lon="0.96326">
        <ele>2290.48</ele>
        <time>2011-03-12T14:42:43Z</time>
      </trkpt>
      <trkpt lat="42.621" lon="0.96326">
        <ele>2295.77</ele>
        <time>2011-03-12T14:42:44Z</time>
      </trkpt>
      <trkpt lat="42.621" lon="0.96326">
        <ele>2285.19</ele>
        <time>2011-03-12T14:42:57Z</time>
      </trkpt>
      <trkpt lat="42.621" lon="0.96326">
        <ele>2291.92</ele>
        <time>2011-03-12T14:42:58Z</time>
      </trkpt>
      <trkpt lat="42.621" lon="0.96326">
        <ele>2293.84</ele>
        <time>2011-03-12T14:43:00Z</time>
      </trkpt>
      <trkpt lat="42.621" lon="0.96326">
        <ele>2288.08</ele>
        <time>2011-03-12T14:43:02Z</time>
      </trkpt>
      <trkpt lat="42.621" lon="0.96326">
        <ele>2294.8</ele>
        <time>2011-03-12T14:43:03Z</time>
      </trkpt>
      <trkpt lat="42.621" lon="0.96326">
        <ele>2291.44</ele>
        <time>2011-03-12T14:43:06Z</time>
      </trkpt>
      <trkpt lat="42.621" lon="0.96326">
        <ele>2294.8</ele>
        <time>2011-03-12T14:43:07Z</time>
      </trkpt>
      <trkpt lat="42.621" lon="0.96326">
        <ele>2298.17</ele>
        <time>2011-03-12T14:43:09Z</time>
      </trkpt>
      <trkpt lat="42.621" lon="0.96326">
        <ele>2298.17</ele>
        <time>2011-03-12T14:43:10Z</time>
      </trkpt>
      <trkpt lat="42.621" lon="0.96326">
        <ele>2295.28</ele>
        <time>2011-03-12T14:43:12Z</time>
      </trkpt>
      <trkpt lat="42.621" lon="0.96326">
        <ele>2289.04</ele>
        <time>2011-03-12T14:43:17Z</time>
      </trkpt>
      <trkpt lat="42.621" lon="0.96326">
        <ele>2295.77</ele>
        <time>2011-03-12T14:43:18Z</time>
      </trkpt>
      <trkpt lat="42.621" lon="0.96326">
        <ele>2294.32</ele>
        <time>2011-03-12T14:43:42Z</time>
      </trkpt>
      <trkpt lat="42.62103" lon="0.96327">
        <ele>2292.88</ele>
        <time>2011-03-12T14:44:25Z</time>
      </trkpt>
      <trkpt lat="42.62103" lon="0.96327">
        <ele>2292.88</ele>
        <time>2011-03-12T14:44:26Z</time>
      </trkpt>
      <trkpt lat="42.62104" lon="0.96328">
        <ele>2293.84</ele>
        <time>2011-03-12T14:44:57Z</time>
      </trkpt>
      <trkpt lat="42.62105" lon="0.96328">
        <ele>2294.8</ele>
        <time>2011-03-12T14:45:49Z</time>
      </trkpt>
      <trkpt lat="42.62105" lon="0.96328">
        <ele>2288.08</ele>
        <time>2011-03-12T14:45:50Z</time>
      </trkpt>
      <trkpt lat="42.62105" lon="0.96328">
        <ele>2290.96</ele>
        <time>2011-03-12T14:45:51Z</time>
      </trkpt>
      <trkpt lat="42.62105" lon="0.96328">
        <ele>2294.32</ele>
        <time>2011-03-12T14:45:52Z</time>
      </trkpt>
      <trkpt lat="42.62105" lon="0.96328">
        <ele>2293.84</ele>
        <time>2011-03-12T14:45:53Z</time>
      </trkpt>
      <trkpt lat="42.62105" lon="0.9633">
        <ele>2294.32</ele>
        <time>2011-03-12T14:47:56Z</time>
      </trkpt>
      <trkpt lat="42.62105" lon="0.9633">
        <ele>2294.32</ele>
        <time>2011-03-12T14:49:00Z</time>
      </trkpt>
      <trkpt lat="42.62108" lon="0.96334">
        <ele>2294.32</ele>
        <time>2011-03-12T14:49:04Z</time>
      </trkpt>
      <trkpt lat="42.62113" lon="0.96341">
        <ele>2294.32</ele>
        <time>2011-03-12T14:49:21Z</time>
      </trkpt>
      <trkpt lat="42.62104" lon="0.96325">
        <ele>2294.8</ele>
        <time>2011-03-12T14:49:41Z</time>
      </trkpt>
      <trkpt lat="42.62103" lon="0.96324">
        <ele>2294.8</ele>
        <time>2011-03-12T14:49:42Z</time>
      </trkpt>
      <trkpt lat="42.62098" lon="0.96329">
        <ele>2295.28</ele>
        <time>2011-03-12T14:50:02Z</time>
      </trkpt>
      <trkpt lat="42.62098" lon="0.96331">
        <ele>2294.32</ele>
        <time>2011-03-12T14:50:11Z</time>
      </trkpt>
      <trkpt lat="42.62102" lon="0.96322">
        <ele>2294.32</ele>
        <time>2011-03-12T14:50:27Z</time>
      </trkpt>
      <trkpt lat="42.62103" lon="0.96331">
        <ele>2294.8</ele>
        <time>2011-03-12T14:52:31Z</time>
      </trkpt>
      <trkpt lat="42.62103" lon="0.96331">
        <ele>2293.36</ele>
        <time>2011-03-12T14:52:43Z</time>
      </trkpt>
      <trkpt lat="42.62103" lon="0.96331">
        <ele>2294.32</ele>
        <time>2011-03-12T14:53:06Z</time>
      </trkpt>
      <trkpt lat="42.62103" lon="0.96329">
        <ele>2294.8</ele>
        <time>2011-03-12T14:53:17Z</time>
      </trkpt>
      <trkpt lat="42.62105" lon="0.96341">
        <ele>2295.77</ele>
        <time>2011-03-12T14:54:05Z</time>
      </trkpt>
      <trkpt lat="42.62105" lon="0.9634">
        <ele>2295.28</ele>
        <time>2011-03-12T14:54:21Z</time>
      </trkpt>
      <trkpt lat="42.62107" lon="0.96342">
        <ele>2294.32</ele>
        <time>2011-03-12T14:58:10Z</time>
      </trkpt>
      <trkpt lat="42.62107" lon="0.96339">
        <ele>2287.59</ele>
        <time>2011-03-12T14:59:10Z</time>
      </trkpt>
      <trkpt lat="42.62106" lon="0.96338">
        <ele>2298.65</ele>
        <time>2011-03-12T14:59:11Z</time>
      </trkpt>
      <trkpt lat="42.62106" lon="0.96337">
        <ele>2295.77</ele>
        <time>2011-03-12T14:59:12Z</time>
      </trkpt>
      <trkpt lat="42.62106" lon="0.96336">
        <ele>2291.92</ele>
        <time>2011-03-12T14:59:13Z</time>
      </trkpt>
      <trkpt lat="42.62107" lon="0.96335">
        <ele>2295.77</ele>
        <time>2011-03-12T14:59:14Z</time>
      </trkpt>
      <trkpt lat="42.62109" lon="0.96331">
        <ele>2289.52</ele>
        <time>2011-03-12T14:59:20Z</time>
      </trkpt>
      <trkpt lat="42.6211" lon="0.9633">
        <ele>2293.84</ele>
        <time>2011-03-12T14:59:21Z</time>
      </trkpt>
      <trkpt lat="42.6211" lon="0.96327">
        <ele>2297.69</ele>
        <time>2011-03-12T14:59:23Z</time>
      </trkpt>
      <trkpt lat="42.6211" lon="0.96325">
        <ele>2294.32</ele>
        <time>2011-03-12T14:59:25Z</time>
      </trkpt>
      <trkpt lat="42.62113" lon="0.96319">
        <ele>2297.69</ele>
        <time>2011-03-12T14:59:34Z</time>
      </trkpt>
      <trkpt lat="42.62114" lon="0.96318">
        <ele>2288.08</ele>
        <time>2011-03-12T14:59:35Z</time>
      </trkpt>
      <trkpt lat="42.62114" lon="0.96318">
        <ele>2295.77</ele>
        <time>2011-03-12T14:59:36Z</time>
      </trkpt>
      <trkpt lat="42.62107" lon="0.96327">
        <ele>2293.84</ele>
        <time>2011-03-12T14:59:58Z</time>
      </trkpt>
    </trkseg>
  </trk>
</gpx>